[[{"header":{"parameterUnit":"m.s-1","parameterCategory":1,"la1":30.6,"la2":29.2853,"lo1":-89.7004,"lo2":-87.6739,"dy":0.0162,"dx":0.0183,"nx":112,"ny":82,"refTime":"2024-04-18T06:00:00:Z","depth":0,"parameterNumber":2,"parameterNumberName":"U-component_of_WINDS"},"data":[0.0,0.0,0.0,0.0,0.0,0.0,0.0,0.0,0.0,0.0,0.0,0.0,0.0,0.0,0.0,0.0,0.0,0.0,0.0,0.0,0.0,0.0,0.0,0.0,0.0,0.0,0.0,0.0,0.0,0.0,0.0,0.0,0.0,0.0,0.0,0.0,0.0,0.0,0.0,0.0,0.0,0.0,0.0,0.0,0.0,0.0,0.0,0.0,0.0,0.0,0.0,0.0,0.0,0.0,0.0,0.0,0.0,0.0,0.0,0.0,0.0,0.0,0.0,0.0,0.0,0.0,0.0,0.0,0.0,0.0,0.0,0.0,0.0,0.0,0.0,0.0,0.0,0.0,0.0,0.0,0.0,0.0,0.0,0.0,0.0,0.0,0.0,0.0,0.0,0.0,-3.8792,-3.92,-3.9769,-4.0158,-4.0266,-4.0407,-4.0511,-4.0511,0.0,0.0,0.0,0.0,0.0,0.0,0.0,0.0,0.0,0.0,0.0,0.0,0.0,0.0,0.0,0.0,0.0,0.0,0.0,0.0,0.0,0.0,0.0,0.0,0.0,0.0,0.0,0.0,0.0,0.0,0.0,0.0,0.0,0.0,0.0,0.0,0.0,0.0,0.0,0.0,0.0,0.0,0.0,0.0,0.0,0.0,0.0,0.0,0.0,0.0,0.0,0.0,0.0,0.0,0.0,0.0,0.0,0.0,0.0,0.0,0.0,0.0,0.0,0.0,0.0,0.0,0.0,0.0,0.0,0.0,0.0,0.0,0.0,0.0,0.0,0.0,0.0,0.0,0.0,0.0,0.0,0.0,0.0,0.0,0.0,0.0,0.0,0.0,0.0,0.0,0.0,0.0,0.0,0.0,0.0,0.0,0.0,0.0,0.0,0.0,0.0,0.0,0.0,0.0,-3.8946,-3.9414,-3.9835,-4.011,-4.0129,-4.0359,-4.0511,-4.0511,0.0,0.0,0.0,0.0,0.0,0.0,0.0,0.0,0.0,0.0,0.0,0.0,0.0,0.0,0.0,0.0,0.0,0.0,0.0,0.0,0.0,0.0,0.0,0.0,0.0,0.0,0.0,0.0,0.0,0.0,0.0,0.0,0.0,0.0,0.0,0.0,0.0,0.0,0.0,0.0,0.0,0.0,0.0,0.0,0.0,0.0,0.0,0.0,0.0,0.0,0.0,0.0,0.0,0.0,0.0,0.0,0.0,0.0,0.0,0.0,0.0,0.0,0.0,0.0,0.0,0.0,0.0,0.0,0.0,0.0,0.0,0.0,0.0,0.0,0.0,0.0,0.0,0.0,0.0,0.0,0.0,0.0,0.0,0.0,0.0,0.0,0.0,0.0,0.0,0.0,0.0,0.0,0.0,0.0,0.0,0.0,0.0,0.0,0.0,0.0,0.0,0.0,0.0,-3.8695,-3.9073,-3.9464,-3.9732,-3.9939,-4.0091,-4.0203,-4.0342,-4.0496,-4.0589,0.0,0.0,0.0,0.0,0.0,0.0,0.0,0.0,0.0,0.0,0.0,0.0,0.0,0.0,0.0,0.0,0.0,0.0,0.0,0.0,0.0,0.0,0.0,0.0,0.0,0.0,0.0,0.0,0.0,0.0,0.0,0.0,0.0,0.0,0.0,0.0,0.0,0.0,0.0,0.0,0.0,0.0,0.0,0.0,0.0,0.0,0.0,0.0,0.0,0.0,0.0,0.0,0.0,0.0,0.0,0.0,0.0,0.0,0.0,0.0,0.0,0.0,0.0,0.0,0.0,0.0,0.0,0.0,0.0,0.0,0.0,0.0,0.0,0.0,0.0,0.0,0.0,0.0,0.0,0.0,0.0,0.0,0.0,0.0,0.0,0.0,0.0,0.0,0.0,0.0,0.0,0.0,0.0,0.0,0.0,0.0,0.0,0.0,0.0,0.0,0.0,0.0,-3.8737,-3.9096,-3.9344,-3.9568,-3.9777,-3.9991,-4.0061,-4.0194,-4.0431,-4.0477,0.0,0.0,0.0,0.0,0.0,0.0,0.0,0.0,0.0,0.0,0.0,0.0,0.0,0.0,0.0,0.0,0.0,0.0,0.0,0.0,0.0,0.0,0.0,0.0,0.0,0.0,0.0,0.0,0.0,0.0,0.0,0.0,0.0,0.0,0.0,0.0,0.0,0.0,0.0,0.0,0.0,0.0,0.0,0.0,0.0,0.0,0.0,0.0,0.0,0.0,0.0,0.0,0.0,0.0,0.0,0.0,0.0,0.0,0.0,0.0,0.0,0.0,0.0,0.0,0.0,0.0,0.0,0.0,0.0,0.0,0.0,0.0,0.0,0.0,0.0,0.0,0.0,0.0,0.0,0.0,0.0,0.0,0.0,0.0,0.0,0.0,0.0,0.0,0.0,0.0,0.0,0.0,0.0,0.0,0.0,0.0,0.0,0.0,0.0,0.0,0.0,0.0,-3.8737,-3.9017,-3.9027,-3.9433,-3.9717,-3.9728,-3.996,-4.0148,-4.029,-4.0431,0.0,0.0,0.0,0.0,0.0,0.0,0.0,0.0,0.0,0.0,0.0,0.0,0.0,0.0,0.0,0.0,0.0,0.0,0.0,0.0,0.0,0.0,0.0,0.0,0.0,0.0,0.0,0.0,0.0,0.0,0.0,0.0,0.0,0.0,0.0,0.0,0.0,0.0,0.0,0.0,0.0,0.0,0.0,0.0,0.0,0.0,0.0,0.0,0.0,0.0,0.0,0.0,0.0,0.0,0.0,0.0,0.0,0.0,0.0,0.0,0.0,0.0,0.0,0.0,0.0,0.0,0.0,0.0,0.0,0.0,0.0,0.0,0.0,0.0,0.0,0.0,0.0,0.0,0.0,0.0,0.0,0.0,0.0,0.0,0.0,0.0,0.0,0.0,0.0,0.0,0.0,0.0,0.0,0.0,0.0,0.0,0.0,0.0,0.0,0.0,0.0,0.0,-3.8428,-3.8661,-3.8733,-3.9064,-3.9311,-3.9383,-3.9604,-3.9824,-4.0043,0.0,0.0,0.0,0.0,0.0,0.0,0.0,0.0,0.0,0.0,0.0,0.0,0.0,0.0,0.0,0.0,0.0,0.0,0.0,0.0,0.0,0.0,0.0,0.0,0.0,0.0,0.0,0.0,0.0,0.0,0.0,0.0,0.0,0.0,0.0,0.0,0.0,0.0,0.0,0.0,0.0,0.0,0.0,0.0,0.0,0.0,0.0,0.0,0.0,0.0,0.0,0.0,0.0,0.0,0.0,0.0,0.0,0.0,0.0,0.0,0.0,0.0,0.0,0.0,0.0,0.0,0.0,0.0,0.0,0.0,0.0,0.0,0.0,0.0,0.0,0.0,0.0,0.0,0.0,0.0,0.0,0.0,0.0,0.0,0.0,0.0,0.0,0.0,0.0,0.0,0.0,0.0,0.0,0.0,0.0,0.0,0.0,0.0,0.0,0.0,0.0,0.0,-3.7862,-3.8103,-3.83,-3.841,-3.8688,-3.8913,-3.9008,-3.9168,-3.9433,-3.9775,0.0,0.0,0.0,0.0,0.0,0.0,0.0,0.0,0.0,0.0,0.0,0.0,0.0,0.0,0.0,0.0,0.0,0.0,0.0,0.0,0.0,0.0,0.0,0.0,0.0,0.0,0.0,0.0,0.0,0.0,0.0,0.0,0.0,0.0,0.0,0.0,0.0,0.0,0.0,0.0,0.0,0.0,0.0,0.0,0.0,0.0,0.0,0.0,0.0,0.0,0.0,0.0,0.0,0.0,0.0,0.0,0.0,0.0,0.0,0.0,0.0,0.0,0.0,0.0,0.0,0.0,0.0,0.0,0.0,0.0,0.0,0.0,0.0,0.0,0.0,0.0,0.0,0.0,0.0,0.0,0.0,0.0,0.0,0.0,0.0,0.0,0.0,0.0,0.0,0.0,0.0,0.0,0.0,0.0,0.0,0.0,0.0,0.0,0.0,0.0,0.0,0.0,-3.7577,-3.781,-3.7984,-3.8001,-3.8346,-3.8594,-3.8594,-3.8726,-3.9031,0.0,0.0,0.0,0.0,0.0,0.0,0.0,0.0,0.0,0.0,0.0,0.0,0.0,0.0,0.0,0.0,0.0,0.0,0.0,0.0,0.0,0.0,0.0,0.0,0.0,0.0,0.0,0.0,0.0,0.0,0.0,0.0,0.0,0.0,0.0,0.0,0.0,0.0,0.0,0.0,0.0,0.0,0.0,0.0,0.0,0.0,0.0,0.0,0.0,0.0,0.0,0.0,0.0,0.0,0.0,0.0,0.0,0.0,0.0,0.0,0.0,0.0,0.0,0.0,0.0,0.0,0.0,0.0,0.0,0.0,0.0,0.0,0.0,0.0,0.0,0.0,0.0,0.0,0.0,0.0,0.0,0.0,0.0,0.0,0.0,0.0,0.0,0.0,0.0,0.0,0.0,0.0,0.0,0.0,0.0,0.0,0.0,0.0,0.0,0.0,0.0,0.0,0.0,-3.7054,-3.7076,-3.7265,-3.7667,-3.7983,-3.8185,-3.8185,-3.8396,-3.8624,-3.8882,0.0,0.0,0.0,0.0,0.0,0.0,0.0,0.0,0.0,0.0,0.0,0.0,0.0,0.0,0.0,0.0,0.0,0.0,0.0,0.0,0.0,0.0,0.0,0.0,0.0,0.0,0.0,0.0,0.0,0.0,0.0,0.0,0.0,0.0,0.0,0.0,0.0,0.0,0.0,0.0,0.0,0.0,0.0,0.0,0.0,0.0,0.0,0.0,0.0,0.0,0.0,0.0,0.0,0.0,0.0,0.0,0.0,0.0,0.0,0.0,0.0,0.0,0.0,0.0,0.0,0.0,0.0,0.0,0.0,0.0,0.0,0.0,0.0,0.0,0.0,0.0,0.0,0.0,0.0,0.0,0.0,0.0,0.0,0.0,0.0,0.0,0.0,0.0,0.0,0.0,0.0,0.0,0.0,0.0,0.0,0.0,0.0,0.0,0.0,0.0,0.0,0.0,-3.644,-3.6422,-3.6586,-3.7188,-3.7394,-3.7596,-3.781,-3.7984,-3.8185,-3.8423,0.0,0.0,0.0,0.0,0.0,0.0,0.0,0.0,0.0,0.0,0.0,0.0,0.0,0.0,0.0,0.0,0.0,0.0,0.0,0.0,0.0,0.0,0.0,0.0,0.0,0.0,0.0,0.0,0.0,0.0,0.0,0.0,0.0,0.0,0.0,0.0,0.0,0.0,0.0,0.0,0.0,0.0,0.0,0.0,0.0,0.0,0.0,0.0,0.0,0.0,0.0,0.0,0.0,0.0,0.0,0.0,0.0,0.0,0.0,0.0,0.0,0.0,0.0,0.0,0.0,0.0,0.0,0.0,0.0,0.0,0.0,0.0,0.0,0.0,0.0,0.0,0.0,0.0,0.0,0.0,0.0,0.0,0.0,0.0,0.0,0.0,0.0,0.0,0.0,0.0,0.0,0.0,0.0,0.0,0.0,0.0,0.0,0.0,0.0,0.0,0.0,0.0,-3.5842,-3.5825,-3.6024,-3.6565,-3.6626,-3.6843,-3.7393,-3.7503,-3.7667,-3.8047,0.0,0.0,0.0,0.0,0.0,0.0,0.0,0.0,0.0,0.0,0.0,0.0,0.0,0.0,0.0,0.0,0.0,0.0,0.0,0.0,0.0,0.0,0.0,0.0,0.0,0.0,0.0,0.0,0.0,0.0,0.0,0.0,0.0,0.0,0.0,0.0,0.0,0.0,0.0,0.0,0.0,0.0,0.0,0.0,0.0,0.0,0.0,0.0,0.0,0.0,0.0,0.0,0.0,0.0,0.0,0.0,0.0,0.0,0.0,0.0,-3.8904,-3.9244,0.0,0.0,0.0,0.0,0.0,0.0,0.0,0.0,0.0,0.0,0.0,0.0,0.0,0.0,0.0,0.0,0.0,0.0,0.0,0.0,0.0,0.0,0.0,0.0,0.0,0.0,0.0,0.0,0.0,0.0,0.0,0.0,0.0,0.0,0.0,0.0,0.0,0.0,0.0,0.0,-3.5266,-3.5266,-3.5408,-3.602,-3.6062,-3.6126,-3.6253,-3.6664,-3.6923,-3.7004,-3.7649,0.0,0.0,0.0,0.0,0.0,0.0,0.0,0.0,0.0,0.0,0.0,0.0,0.0,0.0,0.0,0.0,0.0,0.0,0.0,0.0,0.0,0.0,0.0,0.0,0.0,0.0,0.0,0.0,0.0,0.0,0.0,0.0,0.0,0.0,0.0,0.0,0.0,0.0,0.0,0.0,0.0,0.0,0.0,0.0,0.0,0.0,0.0,0.0,0.0,0.0,0.0,0.0,0.0,0.0,0.0,0.0,0.0,0.0,0.0,-3.8508,-3.8853,0.0,0.0,0.0,0.0,0.0,0.0,0.0,0.0,0.0,0.0,0.0,0.0,0.0,0.0,0.0,0.0,0.0,0.0,0.0,0.0,0.0,0.0,0.0,0.0,0.0,0.0,0.0,0.0,0.0,0.0,0.0,0.0,0.0,0.0,0.0,0.0,0.0,0.0,0.0,0.0,-3.4617,-3.4601,-3.4816,-3.5386,-3.547,-3.5582,-3.5885,-3.6169,-3.6319,-3.6319,-3.6746,0.0,0.0,0.0,0.0,0.0,0.0,0.0,0.0,0.0,0.0,0.0,0.0,0.0,0.0,0.0,0.0,0.0,0.0,0.0,0.0,0.0,0.0,0.0,0.0,0.0,0.0,0.0,0.0,0.0,0.0,0.0,0.0,0.0,0.0,0.0,0.0,0.0,0.0,0.0,0.0,0.0,0.0,0.0,0.0,0.0,0.0,0.0,0.0,0.0,0.0,0.0,0.0,0.0,-3.7735,-3.7351,-3.7108,-3.6723,-3.6092,-3.5447,-3.7889,-3.8081,-3.6702,-3.7355,0.0,0.0,0.0,0.0,0.0,0.0,0.0,0.0,0.0,0.0,0.0,0.0,0.0,0.0,0.0,0.0,0.0,0.0,0.0,0.0,0.0,0.0,-3.0674,-3.1333,-3.0984,-3.0704,-3.1377,0.0,0.0,0.0,0.0,0.0,0.0,0.0,0.0,0.0,0.0,0.0,-3.3764,-3.3866,-3.4127,-3.464,-3.4776,-3.5058,-3.5537,-3.5671,-3.5737,-3.5737,-3.5825,-3.5907,0.0,0.0,0.0,0.0,0.0,0.0,0.0,0.0,0.0,0.0,0.0,0.0,0.0,0.0,0.0,0.0,0.0,0.0,0.0,0.0,0.0,0.0,0.0,0.0,0.0,0.0,0.0,0.0,0.0,0.0,0.0,0.0,-3.7632,-3.7771,0.0,0.0,0.0,0.0,0.0,0.0,0.0,0.0,0.0,0.0,0.0,0.0,0.0,-3.8071,-3.8004,-3.708,-3.6646,-3.6697,-3.5776,-3.5299,-3.5243,-3.5192,-3.5082,-3.4975,-3.5394,0.0,-3.5634,-3.5967,0.0,0.0,0.0,0.0,0.0,0.0,0.0,0.0,0.0,0.0,0.0,0.0,0.0,0.0,0.0,0.0,0.0,0.0,0.0,0.0,0.0,0.0,-2.9775,-2.9898,-2.9806,-2.9775,-2.9898,-3.0955,-3.1946,-3.2031,-3.2059,-3.2099,0.0,0.0,0.0,0.0,0.0,0.0,-3.2458,-3.2917,-3.3355,-3.3443,-3.3901,-3.4259,-3.4317,-3.4816,-3.5111,-3.5111,-3.5604,-3.5907,-3.5907,-3.5955,0.0,0.0,0.0,0.0,0.0,0.0,0.0,0.0,0.0,0.0,0.0,0.0,0.0,0.0,0.0,0.0,0.0,0.0,0.0,0.0,0.0,0.0,0.0,0.0,0.0,0.0,0.0,0.0,0.0,-3.6379,-3.663,-3.6202,-3.6901,-3.7466,0.0,0.0,0.0,0.0,0.0,0.0,0.0,0.0,0.0,-3.6403,-3.6014,-3.5667,-3.5375,-3.4893,-3.466,-3.466,-3.4229,-3.4011,-3.4011,-3.4011,-3.4011,-3.4011,-3.4011,-3.4065,-3.4288,-3.5207,-3.5804,-3.6135,0.0,0.0,0.0,0.0,-3.3732,-3.3144,-3.1731,-3.1217,-3.1217,-3.1217,0.0,0.0,0.0,0.0,0.0,0.0,0.0,-2.9445,-2.9445,-2.8953,-2.8417,-2.8417,-2.8417,-2.8417,-2.8417,-2.8957,-2.9773,-3.0999,-3.1217,-3.1405,-3.2,-3.2266,0.0,0.0,0.0,-3.2348,-3.2043,-3.2266,-3.2513,-3.2579,-3.281,-3.3145,-3.3553,-3.3827,-3.4128,-3.4472,-3.4745,-3.4887,-3.4887,-3.522,-3.5266,0.0,0.0,0.0,0.0,0.0,0.0,0.0,0.0,0.0,0.0,0.0,0.0,0.0,0.0,0.0,0.0,0.0,0.0,0.0,0.0,0.0,0.0,0.0,0.0,0.0,0.0,0.0,0.0,-3.5265,-3.5174,-3.4708,-3.5214,-3.5735,0.0,0.0,0.0,0.0,0.0,0.0,-3.6182,-3.5727,-3.519,-3.4651,-3.4172,-3.3701,-3.329,-3.329,-3.329,-3.329,-3.329,-3.329,-3.329,-3.329,-3.329,-3.329,-3.329,-3.329,-3.3382,-3.4423,-3.5008,-3.5222,-3.5437,-3.5297,-3.4955,-3.4166,-3.3397,-3.2587,-3.1141,-3.055,-3.0419,-3.0419,-3.0419,-3.0375,-3.0195,0.0,0.0,0.0,0.0,-2.8247,-2.8247,-2.7855,-2.7517,-2.7517,-2.7517,-2.7517,-2.7517,-2.7517,-2.7973,-2.9569,-2.9877,-3.0166,-3.1115,-3.1303,0.0,-3.1491,-3.1592,-3.1607,-3.1391,-3.1534,-3.1705,-3.1804,-3.1944,-3.2278,-3.2837,-3.2891,-3.3103,-3.3569,-3.3636,-3.3678,-3.3678,-3.4095,-3.4153,-3.3815,0.0,0.0,0.0,0.0,0.0,0.0,0.0,0.0,0.0,0.0,0.0,0.0,0.0,0.0,0.0,0.0,0.0,0.0,0.0,0.0,0.0,0.0,0.0,0.0,0.0,0.0,0.0,0.0,0.0,-3.3368,-3.355,0.0,0.0,0.0,0.0,-3.5012,-3.5012,-3.4779,-3.4273,-3.421,-3.3937,-3.3403,-3.3361,-3.3326,-3.329,-3.329,-3.329,-3.329,-3.329,-3.329,-3.329,-3.329,-3.329,-3.329,-3.329,-3.329,-3.3326,-3.3382,-3.3894,-3.4629,-3.4662,-3.5115,-3.559,-3.4226,-3.3289,-3.2503,-3.1009,-3.0112,-2.9665,-2.9665,-2.9665,-2.9526,-2.8826,-2.8588,0.0,0.0,-2.7584,-2.7537,-2.7537,-2.755,-2.7517,-2.7517,-2.7517,-2.7517,-2.7517,-2.7517,-2.755,-2.7637,-2.767,-2.7934,-2.8807,0.0,-2.9815,-2.9917,-3.0569,-3.0778,-3.0009,-3.0569,-3.1057,-3.1057,-3.1578,-3.1946,-3.1959,-3.2084,-3.2167,-3.2195,-3.2379,-3.2508,-3.2508,-3.252,-3.252,-3.2508,-3.252,0.0,0.0,0.0,0.0,0.0,0.0,0.0,0.0,0.0,0.0,0.0,0.0,0.0,0.0,0.0,0.0,0.0,0.0,0.0,0.0,0.0,0.0,0.0,0.0,0.0,0.0,0.0,0.0,-3.1304,-3.118,0.0,-3.1633,-3.1825,-3.1933,-3.1933,-3.1933,-3.1861,-3.1656,-3.1792,-3.1783,-3.1589,-3.17,-3.1759,-3.1759,-3.1759,-3.1759,-3.1759,-3.1759,-3.1759,-3.1759,-3.1759,-3.1759,-3.1759,-3.1759,-3.1759,-3.1759,-3.1759,-3.2569,-3.377,-3.377,-3.3948,-3.4086,-3.3192,-3.272,-3.2312,-3.0964,-3.0343,-3.0027,-2.9168,-2.8597,-2.8208,-2.7934,-2.7855,-2.7802,-2.7571,-2.7149,-2.6778,-2.6778,-2.6436,-2.6092,-2.6092,-2.6092,-2.6092,-2.6092,-2.6092,-2.6092,-2.6092,-2.6833,-2.7637,-2.8005,-2.8201,-2.8317,-2.8414,-2.8607,-2.8798,-2.8953,-2.9223,-2.9628,-3.0162,-3.0419,-3.0763,-3.129,-3.1362,-3.1563,-3.1959,-3.2031,-3.2074,-3.2074,-3.2074,-3.2074,-3.2074,-3.2074,-3.213,0.0,0.0,0.0,0.0,0.0,0.0,0.0,0.0,0.0,0.0,0.0,0.0,0.0,0.0,0.0,0.0,0.0,0.0,0.0,0.0,0.0,0.0,0.0,0.0,0.0,-3.0215,-2.9845,-3.0241,-2.9948,-2.9845,-3.0279,-3.0304,-3.0304,-3.0304,-3.0304,-3.0304,-3.0304,-3.0443,-3.0481,-3.0481,-3.0632,-3.0694,-3.0694,-3.0769,-3.0782,-3.0782,-3.0782,-3.0782,-3.0782,-3.0745,-3.0694,-3.0694,-3.0694,-3.0694,-3.0694,-3.0694,-3.1341,-3.2295,-3.2439,-3.2489,-3.2434,-3.2036,-3.1762,-3.1419,-3.0198,-2.9772,-2.9564,-2.8514,-2.7822,-2.7338,-2.7103,-2.6968,-2.69,-2.6641,-2.6277,-2.5978,-2.5978,-2.5616,-2.5312,-2.5312,-2.5312,-2.5312,-2.5312,-2.5312,-2.5312,-2.5312,-2.6092,-2.6854,-2.7211,-2.7204,-2.7237,-2.7577,-2.7557,-2.767,-2.8117,-2.8149,-2.8376,-2.8967,-2.9219,-2.958,-3.0104,-3.0435,-3.0763,-3.1159,-3.1276,-3.1276,-3.1276,-3.1276,-3.1305,-3.1348,-3.1348,-3.1492,-3.1719,0.0,0.0,0.0,0.0,0.0,0.0,0.0,0.0,0.0,0.0,0.0,0.0,0.0,0.0,0.0,0.0,0.0,0.0,0.0,0.0,0.0,0.0,0.0,-3.005,-2.9871,-2.9768,-3.0164,-2.9884,-2.9768,-3.0164,-3.019,-3.019,-3.019,-3.019,-3.019,-3.019,-3.0203,-3.019,-3.019,-3.0241,-3.0241,-3.0241,-3.0405,-3.0532,-3.0532,-3.0532,-3.0532,-3.0494,-3.0317,-3.0241,-3.0241,-3.0241,-3.0241,-3.0241,-3.0241,-3.0241,-3.0279,-3.0694,-3.0895,-3.0895,-3.0895,-3.0492,-2.9803,-2.8682,-2.8278,-2.8173,-2.7633,-2.7304,-2.6976,-2.6286,-2.5941,-2.5627,-2.4992,-2.4957,-2.5087,-2.5087,-2.5182,-2.5276,-2.5276,-2.5276,-2.5276,-2.5276,-2.5276,-2.5276,-2.5276,-2.5276,-2.5511,-2.6242,-2.6393,-2.662,-2.7317,-2.7451,0.0,-2.7471,-2.7484,-2.7471,-2.7517,-2.8117,-2.8492,-2.846,-2.9251,-2.9747,-2.9716,-2.9898,-3.0019,-3.0019,-3.0019,-3.0097,-3.0221,-3.0251,-3.0478,-3.0911,0.0,0.0,0.0,0.0,0.0,0.0,0.0,0.0,0.0,0.0,0.0,0.0,0.0,0.0,0.0,0.0,0.0,0.0,0.0,0.0,0.0,-2.8407,-2.8327,-2.87,-2.8275,-2.7926,-2.8035,-2.7955,-2.7926,-2.8035,-2.8063,-2.8063,-2.8063,-2.8063,-2.8063,-2.8063,-2.8171,-2.8279,-2.8279,-2.8474,-2.8566,-2.8566,-2.8605,-2.8645,-2.8645,-2.8645,-2.8645,-2.8645,-2.8605,-2.8566,-2.8566,-2.8566,-2.8566,-2.8566,-2.8566,-2.8566,-2.8673,-2.9986,-3.0455,-3.0455,-3.0455,-3.0057,-2.9378,-2.872,-2.7888,-2.6999,-2.6449,-2.5918,-2.543,-2.523,-2.5123,-2.5052,-2.4861,-2.4825,-2.4897,-2.4897,-2.4921,-2.4957,-2.4957,-2.4957,-2.4992,-2.5111,-2.5147,-2.5147,-2.5147,-2.5147,-2.5253,-2.5558,-2.5581,-2.5687,-2.5884,-2.5884,-2.6092,-2.6641,-2.6688,-2.6913,-2.7438,-2.8117,-2.8298,-2.7835,-2.8441,-2.8634,-2.8149,-2.8163,-2.8195,-2.8195,-2.8195,-2.8228,-2.826,-2.8871,-2.9016,0.0,0.0,0.0,0.0,0.0,0.0,0.0,0.0,0.0,0.0,0.0,0.0,0.0,0.0,0.0,0.0,0.0,0.0,0.0,0.0,0.0,0.0,-2.7846,-2.7788,-2.7788,-2.7464,-2.719,-2.719,-2.719,-2.719,-2.719,-2.719,-2.719,-2.719,-2.719,-2.719,-2.719,-2.7301,-2.7371,-2.7371,-2.7516,-2.7598,-2.7598,-2.7667,-2.7748,-2.7748,-2.7748,-2.7748,-2.7748,-2.7638,-2.7598,-2.7598,-2.7598,-2.7598,-2.7598,-2.7598,-2.7598,0.0,0.0,0.0,0.0,0.0,-2.9066,-2.8594,-2.7903,-2.714,-2.6347,-2.5612,-2.5076,-2.4682,-2.4682,-2.461,-2.4538,-2.4538,-2.461,-2.4682,-2.4682,-2.4754,-2.479,-2.479,-2.479,-2.4825,-2.4957,-2.4957,-2.4957,-2.4957,-2.4957,0.0,-2.5087,-2.5087,-2.5087,-2.5087,-2.5147,-2.5382,-2.5804,-2.5896,-2.6104,-2.6526,-2.7191,-2.7458,-2.7082,-2.769,0.0,0.0,0.0,-2.7517,-2.7517,-2.7557,0.0,0.0,0.0,-2.8103,-2.7611,0.0,0.0,0.0,-3.0435,-3.0584,0.0,0.0,0.0,0.0,0.0,0.0,0.0,0.0,0.0,0.0,0.0,0.0,0.0,0.0,0.0,0.0,-2.7156,-2.7067,-2.7097,-2.7108,-2.7138,-2.719,-2.719,-2.719,-2.719,-2.719,-2.719,-2.719,-2.719,-2.719,-2.719,-2.719,0.0,0.0,0.0,-2.719,-2.719,-2.7371,-2.7482,-2.7482,-2.7482,-2.7482,-2.7441,-2.726,-2.719,-2.719,-2.719,-2.719,-2.719,-2.719,-2.719,-2.7231,-2.7638,-2.7812,-2.7812,-2.7812,-2.7812,-2.7659,-2.6593,0.0,0.0,-2.5046,-2.461,-2.4454,-2.4454,-2.4345,-2.42,-2.42,-2.4345,-2.4465,-2.4345,-2.4454,-2.4574,-2.449,-2.4526,-2.461,-2.4646,-2.4718,-2.4754,-2.4754,-2.4754,-2.4754,-2.4754,-2.4754,-2.479,-2.479,-2.4957,-2.5087,-2.5087,-2.5182,-2.5241,-2.5241,0.0,0.0,-2.622,-2.6879,-2.7271,-2.7217,-2.7217,-2.725,-2.725,-2.7378,-2.7365,-2.7237,-2.7445,-2.7445,-2.7237,-2.7417,-2.7451,-2.7417,-2.9058,-2.9699,0.0,0.0,0.0,0.0,0.0,0.0,0.0,0.0,0.0,0.0,0.0,0.0,0.0,0.0,0.0,-2.6218,-2.6188,-2.626,-2.658,-2.6663,-2.6787,-2.7149,-2.719,-2.719,-2.719,-2.719,-2.719,-2.719,-2.719,-2.719,-2.719,-2.719,-2.719,-2.719,-2.719,-2.719,-2.719,-2.7219,-2.726,-2.726,-2.726,0.0,-2.726,-2.7231,-2.719,-2.719,-2.719,-2.719,-2.719,-2.719,-2.719,-2.7231,-2.7313,-2.7353,-2.7353,-2.7353,-2.7353,-2.7204,-2.6177,-2.582,-2.5658,-2.4643,-2.4309,-2.4273,-2.4273,-2.4236,0.0,-2.42,-2.4236,-2.4116,-2.3446,-2.3335,-2.3176,-2.2521,-2.2868,-2.3398,-2.357,-2.4105,-2.4574,-2.4574,-2.4574,-2.4502,-2.4345,-2.461,-2.479,-2.479,-2.4825,-2.4861,-2.4861,-2.4897,-2.4885,-2.4885,-2.5511,-2.5709,-2.5171,-2.5744,-2.5906,-2.5371,-2.5453,-2.5558,-2.5558,-2.5674,-2.5744,-2.5721,-2.6333,-2.6333,-2.5721,-2.6934,-2.7183,-2.6654,-2.7571,-2.7966,0.0,0.0,0.0,0.0,0.0,0.0,0.0,0.0,0.0,0.0,0.0,-2.5812,-2.5591,0.0,-2.5812,-2.5591,-2.577,-2.5979,-2.6177,-2.6218,-2.6467,-2.7108,-2.719,-2.719,-2.719,-2.7461,-2.761,-2.761,-2.761,-2.761,-2.761,-2.7369,-2.719,-2.719,-2.719,-2.719,-2.719,-2.719,-2.719,-2.719,-2.719,-2.719,-2.719,-2.719,-2.719,-2.719,-2.719,-2.719,-2.719,-2.719,-2.719,-2.719,-2.719,-2.719,-2.719,-2.719,-2.719,-2.7041,-2.6071,-2.5716,-2.5543,-2.4533,-2.42,-2.42,-2.42,-2.3934,-2.3593,-2.3593,-2.3324,-2.2905,-2.2494,-2.2419,-2.2306,-2.1918,-2.2107,-2.2408,-2.2547,-2.2857,-2.3165,-2.3165,-2.3165,-2.3128,-2.3016,-2.3165,-2.3582,-2.4381,-2.461,-2.4646,-2.4646,-2.4754,-2.479,-2.479,-2.5123,-2.5147,-2.4825,-2.5111,-2.5147,-2.4825,-2.4897,-2.4957,-2.4957,-2.5016,-2.5052,-2.5052,-2.5394,-2.543,-2.5052,-2.5804,-2.5978,-2.5618,-2.6202,-2.686,0.0,0.0,0.0,0.0,0.0,0.0,0.0,-2.5644,-2.5644,-2.5644,-2.5517,-2.5295,-2.4946,-2.5168,-2.5253,-2.4722,-2.5073,-2.5497,-2.5678,-2.5689,-2.6059,-2.7081,-2.722,-2.728,-2.7465,-2.7885,-2.8115,-2.8115,-2.8115,-2.8115,-2.8115,-2.7736,-2.7431,-2.738,-2.738,-2.7334,-2.719,-2.719,-2.719,-2.719,-2.719,-2.719,-2.719,-2.719,-2.719,-2.719,-2.719,-2.7097,-2.6921,-2.6921,-2.6839,-2.6674,-2.6674,-2.6674,-2.6715,-2.7056,-2.7097,-2.6785,-2.5813,-2.5344,-2.502,-2.4055,-2.374,-2.374,-2.374,-2.3287,-2.2767,-2.2767,-2.2306,-2.1756,-2.1603,-2.1538,-2.1489,-2.1336,-2.1413,-2.1538,-2.1538,-2.168,-2.1794,-2.1794,-2.1794,-2.1794,-2.1794,-2.1794,-2.2247,-2.3545,-2.3886,-2.3959,-2.3959,-2.4116,-2.4225,-2.4225,-2.4345,-2.449,-2.4682,-2.4682,-2.4682,-2.4682,-2.4718,-2.4754,-2.4754,-2.479,-2.479,-2.479,-2.479,-2.479,-2.479,-2.4895,-2.4942,-2.4942,-2.5252,-2.6009,-2.4786,-2.4828,-2.4818,-2.4786,-2.4743,-2.4743,0.0,-2.4668,-2.4668,-2.4668,-2.4186,-2.3754,-2.3711,-2.3711,-2.3527,-2.2843,-2.3299,-2.4058,-2.4818,-2.4923,-2.5507,-2.7031,-2.7264,-2.7612,-2.8451,-2.8586,-2.862,-2.862,-2.862,-2.862,-2.862,-2.8563,-2.8333,-2.7908,-2.7897,-2.7679,-2.719,-2.719,-2.719,-2.719,-2.719,-2.719,-2.719,-2.719,-2.719,-2.719,-2.719,-2.6745,-2.5955,-2.5955,-2.5505,-2.4797,-2.4797,-2.4797,-2.5009,-2.6633,-2.6663,-2.5823,-2.4937,-2.4083,-2.3247,-2.2363,-2.2069,-2.2069,-2.2069,-2.2031,-2.1918,-2.1918,-2.188,-2.1603,-2.0847,-2.0653,-2.0459,-1.9766,-2.0109,-2.0653,-2.0653,-2.127,-2.1794,-2.1794,-2.1794,-2.1794,-2.1794,-2.1794,-2.1869,-2.2031,-2.2107,-2.2096,-2.2096,-2.2107,-2.2145,-2.2145,-2.2756,-2.3482,-2.42,-2.4273,-2.4273,-2.4273,-2.4418,-2.4538,-2.4538,-2.4718,-2.479,-2.479,-2.479,-2.479,-2.479,-2.5236,-2.5411,-2.5423,-2.5108,-2.5253,-2.357,-2.3797,-2.3797,-2.3387,-2.3614,-2.3797,-2.3387,-2.3614,-2.3797,-2.3387,-2.3071,-2.2994,-2.3416,-2.3135,-2.2896,-2.3038,-2.3119,-2.3341,-2.3686,-2.3919,-2.4506,-2.5752,-2.595,-2.6357,-2.7337,-2.7667,-2.7687,-2.7362,-2.7362,-2.7362,-2.7362,-2.7646,-2.772,-2.7531,-2.7296,-2.7093,-2.685,-2.6047,-2.5653,-2.5653,-2.5653,-2.5653,-2.5653,-2.5653,-2.5653,-2.5653,-2.5653,-2.539,-2.5031,-2.5031,-2.4829,-2.4498,-2.4498,-2.4498,-2.4584,-2.5348,-2.539,-2.4904,-2.4002,-2.3433,-2.2967,-2.2094,-2.1794,-2.1794,-2.1794,-2.1461,-2.1039,-2.1039,-2.0731,-2.0265,-1.9883,-1.9805,-1.9726,-1.9381,-1.9569,-1.9805,-1.9805,-2.007,-2.0343,-2.0343,-2.0343,-2.0343,-2.0343,-2.0343,-2.0343,-2.0343,-2.1183,-2.1794,-2.1794,-2.1794,-2.1794,-2.1794,-2.2107,-2.2456,-2.2782,-2.2782,-2.2782,-2.2782,-2.2894,-2.2942,-2.2942,-2.3016,-2.3054,-2.3054,-2.3054,-2.3054,-2.3054,-2.3498,-2.3689,-2.3711,-2.4046,-2.4282,-2.2906,-2.3047,-2.2916,-2.2492,-2.2809,-2.3038,-2.2526,-2.2809,-2.3047,-2.2492,-2.2262,-2.2271,-2.2828,-2.2457,-2.2264,-2.2726,-2.2723,-2.2758,-2.3037,-2.3271,-2.3796,-2.4851,-2.4995,-2.521,-2.5798,-2.6553,-2.6822,-2.6412,-2.6412,-2.6412,-2.6412,-2.6749,-2.6915,-2.6743,-2.6457,-2.6213,-2.5946,-2.5013,-2.4483,-2.4402,-2.4456,-2.4498,-2.4498,-2.4498,-2.4498,-2.4498,-2.4402,-2.4231,-2.4016,-2.393,-2.38,-2.3637,-2.3637,-2.3681,-2.3724,-2.3724,-2.3816,-2.3859,-2.3022,-2.2514,-2.209,-2.1357,-2.1106,-2.1106,-2.1106,-2.0682,-2.0148,-2.0148,-1.9766,-1.9301,-1.9301,-1.9301,-1.9301,-1.9301,-1.9301,-1.9301,-1.9301,-1.9301,-1.9301,-1.9301,-1.9301,-1.9301,-1.9301,-1.9301,-1.9301,-1.9301,-2.0343,-2.1106,-2.1106,-2.1106,-2.1183,-2.1413,-2.1451,-2.1527,-2.1794,-2.1794,-2.1794,-2.1794,-2.1794,-2.1794,-2.1794,-2.1794,-2.1794,-2.1794,-2.1794,-2.1866,-2.1952,-2.2379,-2.2628,-2.2763,-2.3288,-2.354,-2.2731,-2.2457,-2.1872,-2.2306,-2.2438,-2.2438,-2.2394,-2.2438,-2.2438,-2.2394,-2.1872,-2.1445,-2.1445,-2.1445,-2.1311,-2.1029,-2.1499,-2.2222,-2.3084,-2.3202,-2.3648,-2.4769,-2.4914,-2.4728,-2.4236,-2.5567,-2.6413,-2.6413,-2.6413,-2.6413,-2.6413,-2.6403,-2.6202,-2.5675,-2.5655,-2.5233,-2.438,-2.4591,-2.451,-2.4135,-2.436,-2.4498,-2.4498,-2.4498,-2.4498,-2.4498,-2.4231,-2.3607,-2.2736,-2.2526,-2.2069,-2.1482,-2.1482,-2.1607,-2.1776,-2.1776,-2.2123,-2.2506,-2.2075,-2.1091,-1.992,-1.9519,-1.9381,-1.9381,-1.9381,-1.9341,-1.9341,-1.9341,-1.9301,-1.9301,-1.9301,-1.9301,-1.9301,-1.9301,-1.9301,-1.9301,-1.9301,-1.9301,-1.9301,-1.9301,-1.9301,-1.9301,-1.9301,-1.9301,-1.9301,-1.9301,-1.9341,-1.9381,-1.9381,-1.9381,-1.9687,-2.0459,-2.0537,-2.0885,-2.1718,-2.1794,-2.1794,-2.1794,-2.1794,-2.1794,-2.1794,-2.1794,-2.1794,-2.1794,-2.1794,-2.1983,-2.2371,-2.2844,-2.3278,-2.367,-2.3292,-2.312,-2.0701,-2.061,-2.0439,-2.0076,-2.0619,-2.1069,-2.0664,-2.1159,-2.1615,-2.1123,-2.1037,-2.1221,-2.1661,-2.1554,-2.1541,-2.1908,-2.1965,-2.2083,-2.2336,-2.2638,-2.2939,-2.3311,-2.3379,-2.3279,-2.3138,-2.4156,-2.4737,-2.4442,-2.4393,-2.4393,-2.4393,-2.5022,-2.5344,-2.515,-2.4861,-2.4618,-2.4282,-2.3202,-2.26,-2.246,-2.2269,-2.2183,-2.2183,-2.2183,-2.2183,-2.2173,-2.2085,-2.1863,-2.1561,-2.1516,-2.1347,-2.1141,-2.1141,-2.1186,-2.123,-2.123,-2.1192,-2.1053,-2.087,-2.0355,-1.9761,-1.925,-1.9112,-1.9112,-1.9112,-1.9112,-1.9073,-1.8922,-1.8891,-1.8891,-1.8891,-1.8891,-1.8891,-1.8891,-1.8891,-1.8891,-1.8891,-1.8891,-1.8891,-1.8891,-1.8891,-1.8891,-1.8891,-1.8891,-1.8891,-1.8891,-1.9112,-1.9301,-1.9301,-1.9301,-1.942,-1.9687,-1.9687,-1.9805,-2.0109,-2.0148,-2.0148,-2.0148,-2.0148,-2.0148,-2.0148,-2.0148,-2.0148,-2.0148,-2.0148,-2.0329,-2.0728,-2.117,-2.1581,-2.1992,-2.2092,-2.2157,-1.9484,-1.9392,-1.9171,-1.8866,-1.9371,-1.982,-1.9409,-1.9911,-2.032,-1.9874,-2.0121,-2.061,-2.1148,-2.1233,-2.1445,-2.2192,-2.2117,-2.2038,-2.2175,-2.2448,-2.2594,-2.2594,-2.2594,-2.2594,-2.2594,-2.3188,-2.3438,-2.3147,-2.3097,-2.3097,-2.3097,-2.3728,-2.4057,-2.4057,-2.3849,-2.3639,-2.3501,-2.2303,-2.1569,-2.1378,-2.1121,-2.0997,-2.0997,-2.0997,-2.0997,-2.0997,-2.0907,-2.0907,-2.0871,-2.0772,-2.0817,-2.0907,-2.0907,-2.0952,-2.0997,-2.0997,-2.0793,-2.0492,-2.0329,-1.9965,-1.951,-1.9169,-1.8999,-1.8882,-1.8882,-1.8882,-1.8851,-1.874,-1.87,-1.87,-1.87,-1.87,-1.87,-1.87,-1.87,-1.87,-1.87,-1.87,-1.87,-1.87,-1.87,-1.87,-1.87,-1.87,-1.87,-1.87,-1.8922,-1.9073,-1.9073,-1.9073,-1.9073,-1.9073,-1.9073,-1.9073,-1.9073,-1.9073,-1.9073,-1.9073,-1.9152,-1.9183,-1.9183,-1.9262,-1.9301,-1.9301,-1.9301,-1.9463,-1.9802,-2.0203,-2.0562,-2.0909,-2.1273,-2.1463,-1.9026,-1.8719,-1.8179,-1.8596,-1.8735,-1.8781,-1.8781,-1.8781,-1.8781,-1.8781,-1.925,-1.9741,-2.0058,-2.058,-2.1174,-2.1901,-2.203,-2.215,-2.2551,-2.2594,-2.2594,-2.2594,-2.2594,-2.2594,-2.2594,-2.2594,-2.2594,-2.2594,-2.2594,-2.2594,-2.2594,-2.2594,-2.2594,-2.2594,-2.2594,-2.2431,-2.203,-2.1852,-2.1506,-2.0979,-2.0961,-2.0952,-2.0952,-2.0952,-2.0952,-2.0952,-2.0781,-2.0699,-2.0654,-2.0382,-2.0428,-2.0699,-2.0699,-2.0781,-2.0952,-2.0952,-2.0826,-2.0647,-2.0448,-1.9865,-1.9221,-1.9177,-1.897,-1.8727,-1.8709,-1.87,-1.87,-1.866,-1.866,-1.866,-1.866,-1.866,-1.866,-1.866,-1.866,-1.866,-1.866,-1.866,-1.866,-1.866,-1.866,-1.866,-1.866,-1.866,-1.866,-1.866,-1.866,-1.866,-1.87,-1.87,-1.87,-1.87,-1.87,-1.87,-1.87,-1.87,-1.87,-1.87,-1.8891,-1.8962,-1.8962,-1.9152,-1.9262,-1.9262,-1.9262,-1.9383,-1.9579,-1.9976,-2.0254,-2.05,-2.0846,-2.097,-1.7738,-1.7699,-1.752,-1.7652,-1.7986,-1.8272,-1.8272,-1.855,-1.8781,-1.8781,-1.9445,-2.0074,-2.0502,-2.1179,-2.1867,-2.2379,-2.2457,-2.2491,-2.2585,-2.2594,-2.2594,-2.2594,-2.2594,-2.2594,-2.2594,-2.2594,-2.2594,-2.2594,-2.2594,-2.2594,-2.2594,-2.2594,-2.2594,-2.2594,-2.2594,-2.2551,-2.2457,-2.1836,-2.1324,-2.0905,-2.0603,-2.0464,-2.0464,-2.0464,-2.0464,-2.0464,-2.0419,-2.0382,-2.0382,-2.0337,-2.0337,-2.0382,-2.0382,-2.0428,-2.0464,-2.0464,-2.0473,-2.0365,-2.0361,-1.9971,-1.9531,-1.912,-1.8909,-1.8786,-1.853,-1.8482,-1.8442,-1.8241,-1.8161,-1.8161,-1.8161,-1.8161,-1.8161,-1.8161,-1.8161,-1.8161,-1.8161,-1.8161,-1.8161,-1.8161,-1.8161,-1.8161,-1.8161,-1.8161,-1.8161,-1.8161,-1.8161,-1.8282,-1.866,-1.87,-1.87,-1.87,-1.87,-1.87,-1.87,-1.87,-1.87,-1.87,-1.874,-1.8772,-1.8772,-1.8812,-1.8851,-1.8851,-1.8851,-1.9039,-1.9392,-1.949,-1.9858,-2.0491,-2.0589,-2.0775,-1.7279,-1.7279,-1.7279,-1.7279,-1.752,-1.7753,-1.7753,-1.7939,-1.8218,-1.8458,-1.9025,-1.9743,-2.057,-2.1263,-2.1919,-2.2508,-2.2594,-2.2594,-2.2594,-2.2594,-2.2594,-2.2594,-2.2594,-2.2594,-2.2594,-2.2594,-2.2594,-2.2594,-2.2594,-2.2594,-2.2594,-2.2594,-2.2594,-2.2594,-2.2594,-2.2517,-2.2354,-2.1713,-2.1234,-2.0921,-2.048,-2.0292,-2.0292,-2.0292,-2.0292,-2.0292,-2.0292,-2.0292,-2.0292,-2.0292,-2.0292,-2.0292,-2.0292,-2.0292,-2.0292,-2.0292,-2.0292,-2.0292,-2.0292,-2.0155,-1.9881,-1.9428,-1.9039,-1.8719,-1.8544,-1.8363,-1.8193,-1.804,-1.8,-1.8,-1.8,-1.8,-1.8,-1.8,-1.8,-1.8,-1.8,-1.8,-1.8,-1.8,-1.8,-1.8,-1.8,-1.8,-1.8,-1.8,-1.8,-1.808,-1.8371,-1.8411,-1.8411,-1.8411,-1.8411,-1.8411,-1.8411,-1.8411,-1.8411,-1.8411,-1.8491,-1.8571,-1.8571,-1.866,-1.87,-1.87,-1.87,-1.8767,-1.8929,-1.9065,-1.9419,-1.993,-2.0062,-2.0332,-1.7279,-1.7279,-1.7279,-1.7279,-1.7279,-1.7279,-1.7279,-1.7279,-1.7419,-1.79,-1.8411,-1.9182,-2.0384,-2.1038,-2.1653,-2.2474,-2.2594,-2.2594,-2.2594,-2.2594,-2.2594,-2.2594,-2.2594,-2.2594,-2.2594,-2.2594,-2.2594,-2.2594,-2.2594,-2.2594,-2.2594,-2.2594,-2.2594,-2.2594,-2.2594,-2.2439,-2.2073,-2.1687,-2.1302,-2.0942,-2.0557,-2.0343,-2.0292,-2.0292,-2.0292,-2.0292,-2.0292,-2.0292,-2.0292,-2.0292,-2.0292,-2.0292,-2.0292,-2.0292,-2.0292,-2.0292,-2.0292,-2.0292,-2.0292,-2.0292,-2.0232,-1.9819,-1.929,-1.8725,-1.8614,-1.8365,-1.8059,-1.8017,-1.8,-1.8,-1.8,-1.8,-1.8,-1.8,-1.8,-1.8,-1.8,-1.8,-1.8,-1.8,-1.8,-1.8,-1.8,-1.8,-1.8,-1.8,-1.8,-1.8,-1.8,-1.8,-1.8,-1.8,-1.8,-1.8,-1.8,-1.8,-1.8,-1.8,-1.8241,-1.8362,-1.8362,-1.8531,-1.862,-1.862,-1.862,-1.8442,-1.8193,-1.848,-1.8725,-1.8931,-1.9173,-1.9544,-1.7279,-1.7279,-1.7279,-1.7279,-1.7279,-1.7279,-1.7279,-1.7279,-1.7326,-1.7426,-1.8172,-1.9042,-1.9886,-2.078,-2.1653,-2.2474,-2.2594,-2.2594,-2.2594,-2.2594,-2.2594,-2.2594,-2.2594,-2.2594,-2.2594,-2.2594,-2.2594,-2.2594,-2.2594,-2.2594,-2.2594,-2.2594,-2.2594,-2.2594,-2.2594,-2.2568,-2.25,-2.2081,-2.1696,-2.1311,-2.0951,-2.0609,-2.0292,-2.0292,-2.0292,-2.0292,-2.0292,-2.0292,-2.0292,-2.0292,-2.0292,-2.0292,-2.0292,-2.0292,-2.0292,-2.0292,-2.0292,-2.0292,-2.0292,-2.0292,-2.0232,-1.9819,-1.9606,-1.9384,-1.8776,-1.8545,-1.8425,-1.8085,-1.8,-1.8,-1.8,-1.8,-1.8,-1.8,-1.8,-1.8,-1.8,-1.8,-1.8,-1.8,-1.8,-1.8,-1.8,-1.8,-1.8,-1.8,-1.8,-1.8,-1.8,-1.8,-1.8,-1.8,-1.8,-1.8,-1.8,-1.8,-1.8,-1.8,-1.804,-1.808,-1.808,-1.8121,-1.8121,-1.8121,-1.8121,-1.774,-1.6984,-1.7049,-1.7275,-1.7639,-1.7095,-1.7486,-1.7279,-1.7279,-1.7279,-1.7279,-1.7279,-1.7279,-1.7279,-1.7279,-1.7372,-1.766,-1.8079,-1.8808,-2.0087,-2.07,-2.1379,-2.2424,-2.2594,-2.2594,-2.2594,-2.2594,-2.2594,-2.2594,-2.2594,-2.2594,-2.2594,-2.2594,-2.2594,-2.2594,-2.2594,-2.2594,-2.2594,-2.2594,-2.2594,-2.2594,-2.2594,-2.2594,-2.2594,-2.2184,-2.1799,-2.1405,-2.1045,-2.0677,-2.0292,-2.0292,-2.0292,-2.0292,-2.0292,-2.0292,-2.0292,-2.0292,-2.0292,-2.0292,-2.0292,-2.0292,-2.0292,-2.0292,-2.0292,-2.0292,-2.0292,-2.0292,-2.0266,-2.0086,-1.9853,-1.9631,-1.9299,-1.8905,-1.8554,-1.8374,-1.8145,-1.8,-1.8,-1.8,-1.8,-1.8,-1.8,-1.8,-1.8,-1.8,-1.8,-1.8,-1.8,-1.8,-1.8,-1.8,-1.8,-1.8,-1.8,-1.7829,-1.7367,-1.7326,-1.7326,-1.7326,-1.7326,-1.7164,-1.6673,-1.6632,-1.6632,-1.6632,-1.6632,-1.6632,-1.6632,-1.6632,-1.6632,-1.6632,-1.6632,-1.6419,-1.6,-1.6,-1.6217,-1.6553,-1.6395,-1.6721,-1.7279,-1.7279,-1.7279,-1.7279,-1.7279,-1.7279,-1.7279,-1.7279,-1.7426,-1.7846,-1.804,-1.8574,-2.0087,-2.0564,-2.1046,-2.2223,-2.2392,-2.2392,-2.2392,-2.2291,-2.2241,-2.2241,-2.2241,-2.2241,-2.2241,-2.2342,-2.2392,-2.2392,-2.2544,-2.2594,-2.2594,-2.2594,-2.2594,-2.2594,-2.2594,-2.2594,-2.2594,-2.2311,-2.1876,-2.1405,-2.1122,-2.0746,-2.0292,-2.0292,-2.0292,-2.0292,-2.0292,-2.0292,-2.0292,-2.0292,-2.0292,-2.0292,-2.0292,-2.0292,-2.0292,-2.0292,-2.0292,-2.0246,-2.0011,-1.9911,-1.992,-1.9675,-1.9537,-1.9474,-1.9407,-1.8831,-1.8169,-1.8128,-1.7805,-1.7532,-1.7532,-1.7474,-1.7456,-1.7456,-1.7578,-1.7659,-1.7497,-1.7578,-1.7708,-1.7708,-1.7708,-1.7781,-1.7951,-1.7829,-1.7659,-1.7708,-1.7497,-1.7115,-1.6412,-1.6322,-1.6239,-1.6075,-1.6288,-1.6131,-1.5477,-1.5394,-1.5394,-1.5394,-1.5394,-1.5394,-1.5394,-1.5394,-1.5394,-1.5394,-1.5394,-1.5269,-1.5054,-1.5076,-1.5233,-1.5419,-1.5576,-1.5892,-1.7279,-1.7279,-1.7279,-1.7279,-1.7279,-1.7279,-1.7279,-1.7279,-1.7326,-1.738,-1.7753,-1.8332,-1.9095,-2.0063,-2.0949,-2.166,-2.1776,-2.1776,-2.1776,-2.1377,-2.1078,-2.1078,-2.1078,-2.1078,-2.1078,-2.1479,-2.1776,-2.1776,-2.2291,-2.2594,-2.2594,-2.2594,-2.2594,-2.2594,-2.2594,-2.2594,-2.2594,-2.256,-2.2182,-2.1413,-2.1379,-2.0985,-2.0292,-2.0292,-2.0292,-2.0292,-2.0292,-2.0292,-2.0292,-2.0292,-2.0292,-2.0292,-2.0292,-2.0292,-2.0292,-2.0292,-2.0292,-2.0147,-1.8964,-1.8734,-1.8742,-1.7608,-1.7964,-1.8822,-1.8473,-1.7649,-1.6809,-1.6507,-1.624,-1.5996,-1.5996,-1.5817,-1.5643,-1.5643,-1.6255,-1.6617,-1.5801,-1.6255,-1.6821,-1.6821,-1.6821,-1.7074,-1.787,-1.7196,-1.6609,-1.678,-1.5951,-1.5247,-1.5164,-1.5164,-1.4831,-1.4077,-1.488,-1.5477,-1.5394,-1.5394,-1.5394,-1.5394,-1.5394,-1.5394,-1.5394,-1.5394,-1.5394,-1.5394,-1.5394,-1.4887,-1.3873,-1.4094,-1.4095,-1.391,-1.3558,-1.3857,-1.7279,-1.7279,-1.7279,-1.7279,-1.7279,-1.7279,-1.7279,-1.7279,-1.7279,-1.7279,-1.7473,-1.7901,-1.8941,-1.9462,-2.0041,-2.1052,-2.1224,-2.1224,-2.1224,-2.1019,-2.0925,-2.0925,-2.0925,-2.0925,-2.0925,-2.107,-2.1224,-2.1224,-2.1428,-2.1581,-2.1581,-2.1886,-2.208,-2.208,-2.1733,-2.1581,-2.1581,-2.1886,-2.1661,-2.0933,-2.127,-2.1011,-2.0292,-2.0019,-1.9874,-1.9874,-1.9874,-1.9874,-1.992,-2.0201,-2.0292,-2.0292,-2.0011,-1.9874,-1.9828,-1.9509,-1.9425,-1.9279,-1.8334,-1.8048,-1.7956,-1.6962,-1.6586,-1.6612,-1.7228,-1.7013,-1.6474,-1.6157,-1.585,-1.5558,-1.5558,-1.5469,-1.5453,-1.5595,-1.5777,-1.5801,-1.5262,-1.5413,-1.5662,-1.553,-1.5489,-1.5621,-1.5951,-1.5662,-1.5406,-1.5489,-1.5115,-1.4622,-1.4119,-1.4035,-1.3704,-1.279,-1.3711,-1.4216,-1.3795,-1.3669,-1.3584,-1.3584,-1.3421,-1.3343,-1.3343,-1.3343,-1.3343,-1.3343,-1.3343,-1.3212,-1.2897,-1.3005,-1.3087,-1.3108,-1.3113,-1.328,-1.7279,-1.7279,-1.7279,-1.7279,-1.7279,-1.7279,-1.7279,-1.7279,-1.7279,-1.7279,-1.7279,-1.7618,-1.8656,-1.8965,-1.9441,-2.0491,-2.066,-2.066,-2.066,-2.0506,-2.0411,-2.0411,-2.0411,-2.0411,-2.0411,-2.0557,-2.0712,-2.0865,-2.0925,-2.0925,-2.0925,-2.1113,-2.1318,-2.1471,-2.1121,-2.0925,-2.0925,-2.1267,-2.1112,-2.0402,-2.0789,-2.0587,-1.9837,-1.9509,-1.9371,-1.9371,-1.9371,-1.9371,-1.9371,-1.9745,-1.9882,-1.9828,-1.9509,-1.9225,-1.8988,-1.8627,-1.8303,-1.7971,-1.707,-1.6835,-1.6741,-1.5792,-1.5086,-1.4711,-1.5542,-1.5692,-1.5491,-1.5299,-1.4983,-1.4688,-1.4603,-1.4617,-1.4646,-1.4828,-1.4931,-1.4907,-1.4424,-1.4477,-1.4585,-1.4409,-1.4341,-1.4413,-1.4664,-1.4406,-1.4238,-1.428,-1.4035,-1.3578,-1.2997,-1.2912,-1.2619,-1.1995,-1.2619,-1.2954,-1.254,-1.2369,-1.2283,-1.2283,-1.208,-1.2,-1.2,-1.2,-1.2034,-1.2108,-1.2108,-1.2228,-1.2389,-1.2462,-1.2541,-1.2618,-1.2911,-1.3023,-1.7279,-1.7279,-1.7279,-1.7279,-1.7279,-1.7279,-1.7279,-1.7279,-1.7279,-1.7279,-1.7279,-1.753,-1.8182,-1.8735,-1.9342,-2.0023,-2.0138,-2.0138,-2.0138,-1.9628,-1.9324,-1.9324,-1.9324,-1.9324,-1.9324,-1.9776,-2.0344,-2.0865,-2.0925,-2.0925,-2.0925,-2.0395,-2.0344,-2.0865,-2.0925,-2.0925,-2.0925,-2.0925,-2.0567,-1.9917,-1.9909,-1.955,-1.8827,-1.8827,-1.8827,-1.8827,-1.8827,-1.8827,-1.8827,-1.8827,-1.8827,-1.8827,-1.8827,-1.835,-1.7738,-1.7684,-1.721,-1.6351,-1.5073,-1.48,-1.4806,-1.357,-1.3292,-1.3491,-1.3195,-1.334,-1.3534,-1.3534,-1.3345,-1.3082,-1.2791,-1.2723,-1.2723,-1.2723,-1.3438,-1.3839,-1.2945,-1.326,-1.3717,-1.3717,-1.3544,-1.3698,-1.4538,-1.3776,-1.3099,-1.336,-1.2448,-1.1742,-1.1699,-1.1699,-1.1699,-1.1699,-1.1699,-1.1785,-1.2,-1.2,-1.2,-1.2,-1.2,-1.2,-1.2,-1.2,-1.2114,-1.2403,-1.2409,-1.2394,-1.2409,-1.2664,-1.2645,-1.2414,-1.2699,-1.2807,-1.7279,-1.7279,-1.7279,-1.7279,-1.7279,-1.7279,-1.7279,-1.7279,-1.7279,-1.7279,-1.7279,-1.7476,-1.8182,-1.8447,-1.876,-1.942,-1.9524,-1.9524,-1.9524,-1.9428,-1.9279,-1.9279,-1.9279,-1.9279,-1.9279,-1.9428,-1.9635,-1.9791,-1.9791,-1.9791,-1.9791,-1.9635,-1.9783,-2.0344,-1.999,-1.9791,-1.9791,-1.9959,-1.9772,-1.9275,-1.9477,-1.9312,-1.8781,-1.8458,-1.8319,-1.8319,-1.8319,-1.8319,-1.8365,-1.8689,-1.8781,-1.8781,-1.8458,-1.7839,-1.7124,-1.6796,-1.6183,-1.5425,-1.4472,-1.4184,-1.4094,-1.3195,-1.2953,-1.3007,-1.291,-1.305,-1.3201,-1.3055,-1.2947,-1.2918,-1.2978,-1.2886,-1.281,-1.2932,-1.3078,-1.3041,-1.2592,-1.266,-1.2778,-1.2643,-1.258,-1.2618,-1.288,-1.2612,-1.2338,-1.2256,-1.1932,-1.1619,-1.1462,-1.144,-1.144,-1.144,-1.144,-1.1564,-1.1957,-1.1871,-1.1785,-1.1785,-1.1613,-1.1527,-1.1527,-1.168,-1.1844,-1.1921,-1.208,-1.2242,-1.239,-1.2471,-1.259,-1.2657,-1.2775,-1.2813,-1.7279,-1.7279,-1.7279,-1.7279,-1.7279,-1.7279,-1.7279,-1.7279,-1.7279,-1.7279,-1.7279,-1.7494,-1.8021,-1.8218,-1.8474,-1.9008,-1.9199,-1.9279,-1.9279,-1.9279,-1.9279,-1.9279,-1.9279,-1.9279,-1.9279,-1.9279,-1.9279,-1.9279,-1.9279,-1.9279,-1.9279,-1.9279,-1.9428,-1.9783,-1.948,-1.9279,-1.9279,-1.93,-1.9115,-1.8742,-1.8791,-1.8588,-1.8218,-1.7939,-1.78,-1.78,-1.78,-1.78,0.0,-1.7792,-1.7839,-1.7746,-1.7185,-1.6466,-1.5751,-1.5425,-1.486,-1.4148,-1.3667,-1.3474,-1.3431,-1.2953,-1.2813,-1.2813,-1.2813,-1.291,-1.2958,-1.2861,-1.2813,-1.2813,-1.2953,-1.2897,-1.283,-1.2961,-1.2844,-1.2686,-1.2593,-1.248,-1.2368,-1.2229,-1.2154,-1.2094,-1.2094,-1.2094,-1.2046,-1.19,-1.1828,-1.1747,-1.1472,-1.1439,-1.1407,-1.1316,-1.1305,-1.144,-1.1693,-1.1613,-1.157,-1.157,-1.1397,-1.1348,-1.1434,-1.1623,-1.1785,-1.1968,-1.2113,-1.2307,-1.2544,-1.2544,-1.2619,-1.2813,-1.2813,-1.2813,0.0,-1.7279,-1.7279,-1.7279,-1.7279,-1.7279,-1.7279,-1.7279,0.0,-1.7279,-1.7279,-1.7381,-1.7757,-1.8079,-1.8408,-1.8738,-1.9067,-1.9279,-1.9279,-1.9279,-1.9279,-1.9279,-1.9279,-1.9279,-1.9279,-1.9279,-1.9279,-1.9279,-1.9279,-1.9279,-1.9279,-1.9279,-1.9279,-1.9279,-1.9302,-1.9242,-1.9242,-1.8921,-1.8591,-1.8262,-1.7933,-1.7618,-1.7279,-1.7279,-1.7279,-1.7279,-1.7279,-1.7279,-1.7185,-1.6473,-1.619,-1.6048,-1.5384,-1.4621,-1.3902,-1.3902,-1.3431,-1.2813,-1.2813,-1.2813,-1.2813,-1.2813,-1.2813,-1.2813,-1.2813,-1.2813,-1.2813,-1.2813,-1.2813,-1.2813,-1.2813,-1.2813,-1.2813,-1.2813,-1.2813,-1.2813,-1.2813,-1.2592,-1.2441,-1.2441,-1.23,-1.2143,-1.2143,-1.2143,-1.2137,-1.2121,-1.2121,-1.2035,-1.1752,-1.1725,-1.1639,-1.138,-1.1359,-1.1359,-1.1359,-1.1327,-1.1305,-1.1305,-1.1321,-1.1429,-1.1693,-1.1731,-1.1957,-1.2404,-1.2431,-1.2544,-1.2813,-1.2813,-1.2813,-1.2813,-1.2813,-1.2813,-1.7426,0.0,-1.7279,-1.7279,-1.7279,-1.7279,0.0,-1.7279,-1.7279,-1.7279,-1.7279,-1.7381,-1.7757,-1.8079,-1.8408,-1.8738,-1.9067,-1.9279,-1.9279,-1.9279,-1.9279,-1.9279,-1.9279,-1.9279,-1.9279,-1.9279,-1.9279,-1.9279,-1.9279,-1.9279,-1.9279,-1.9279,-1.9279,-1.9279,-1.903,-1.8906,-1.8906,-1.8577,-1.8255,-1.7925,-1.7604,-1.7399,-1.7279,-1.7279,-1.7279,-1.7279,-1.7279,-1.6998,-1.6426,-1.6285,-1.5859,-1.5337,-1.5146,-1.4621,-1.3902,-1.3902,-1.3431,-1.2813,-1.2813,-1.2813,-1.2813,-1.2813,-1.2813,-1.2813,-1.2813,-1.2813,-1.2813,-1.2813,-1.2813,-1.2813,-1.2813,-1.2813,-1.2813,-1.2813,-1.2813,-1.2813,-1.2813,-1.277,-1.2732,-1.2732,-1.2683,-1.264,-1.264,-1.264,-1.2581,-1.2355,-1.2328,-1.2242,-1.2046,-1.2013,-1.1991,-1.1937,-1.1932,-1.1932,-1.1932,-1.1558,-1.1305,-1.1305,-1.1477,-1.1639,-1.1698,-1.2048,-1.2301,-1.2414,-1.2587,-1.2759,-1.2813,-1.2813,-1.2813,-1.2813,-1.2813,-1.2813,-1.766,-1.7473,-1.7279,-1.7279,-1.7279,-1.7279,-1.7279,-1.7279,-1.7279,-1.7279,-1.7279,-1.7384,-1.756,-1.786,-1.8182,-1.8511,-1.884,-1.9103,-1.9257,-1.9279,-1.9279,-1.9279,-1.9279,-1.9279,-1.9279,-1.9279,-1.9279,-1.9279,-1.9279,-1.9279,-1.9279,-1.9279,-1.9206,-1.906,-1.8884,-1.8789,-1.8789,-1.8321,-1.7991,-1.7808,-1.7479,-1.7279,-1.7279,-1.6951,-1.6803,-1.6763,-1.6426,-1.6048,-1.5669,-1.5289,-1.4908,-1.4526,-1.4196,-1.3769,-1.3383,-1.3383,-1.3147,-1.2813,-1.2813,-1.2813,-1.2813,-1.2813,-1.2813,-1.2813,-1.2813,-1.2813,-1.2813,-1.2813,-1.2813,-1.2813,-1.2813,-1.2813,-1.2813,-1.2813,-1.2813,-1.2813,-1.2813,-1.2813,-1.2813,-1.2813,-1.2813,-1.2813,-1.2813,-1.2813,-1.277,-1.2597,-1.2576,-1.249,-1.2294,-1.2215,-1.2218,-1.2105,-1.2094,-1.2094,-1.2094,-1.1817,-1.1671,-1.1671,-1.179,-1.1908,-1.2021,-1.228,-1.2463,-1.2571,-1.2748,-1.2813,-1.2813,-1.2813,-1.2813,-1.2813,-1.2813,-1.2813,-1.7893,-1.766,-1.7279,-1.7279,-1.7279,-1.7279,-1.7279,-1.7279,-1.7279,-1.7279,-1.7279,-1.7279,-1.7279,-1.764,-1.7984,-1.8255,-1.8621,-1.8906,-1.9072,-1.9116,-1.9063,-1.8907,-1.8907,-1.8959,-1.9116,-1.9116,-1.9168,-1.9272,-1.9279,-1.9279,-1.9279,-1.9228,-1.9074,-1.8796,-1.8593,-1.8484,-1.8484,-1.8045,-1.7738,-1.7544,-1.7269,-1.7091,-1.6951,-1.6332,-1.6048,-1.6001,-1.5384,0.0,-1.486,-1.419,-1.3806,-1.3667,-1.305,-1.2813,-1.2813,-1.2813,-1.2813,-1.2813,-1.2813,-1.2813,-1.2813,-1.2813,-1.2813,-1.2813,-1.2813,-1.2813,-1.2813,-1.2813,-1.2813,-1.2813,-1.2813,-1.2813,-1.2813,-1.2813,-1.2813,-1.2813,-1.2813,-1.2813,-1.2813,-1.2813,-1.2813,-1.2813,-1.2813,-1.2813,-1.2813,-1.2813,-1.2813,-1.2737,-1.2495,-1.2468,-1.2388,-1.2224,-1.2202,-1.2202,-1.2202,-1.2202,-1.2202,-1.2202,-1.217,-1.2256,-1.2457,-1.2468,-1.256,-1.2807,-1.2813,-1.2813,-1.2813,-1.2813,-1.2813,-1.2813,-1.2813,-1.2813,-1.752,-1.738,-1.7279,-1.7279,-1.7279,-1.7279,-1.7279,-1.7279,-1.7279,-1.7279,-1.7279,-1.7279,-1.7279,-1.7823,-1.8247,-1.8291,-1.8811,-1.9005,-1.8304,-1.8199,-1.7937,-1.7206,-1.71,-1.7417,-1.8146,-1.8199,-1.852,-1.922,-1.9279,-1.9279,-1.9279,-1.9016,-1.884,-1.8789,-1.7655,-1.703,-1.703,-1.7522,-1.7335,-1.6448,-1.64,-1.6048,-1.5432,-1.5337,-1.5289,-1.5242,0.0,-1.4717,-1.4046,-1.395,-1.3522,-1.2953,-1.2856,-1.2813,-1.2813,-1.2813,-1.2813,-1.2813,-1.2813,-1.2813,-1.2813,-1.2813,-1.2813,-1.2813,-1.2813,-1.2813,-1.2813,-1.2813,-1.2813,-1.2813,-1.2813,-1.2813,-1.2813,-1.2813,-1.2813,-1.2813,-1.2813,-1.2813,-1.2813,-1.2813,-1.2813,-1.2813,-1.2813,-1.2813,-1.2813,-1.2813,-1.2813,-1.2802,-1.2764,-1.2759,-1.2743,-1.2705,-1.2705,-1.2705,-1.2705,-1.2705,-1.2705,-1.2705,-1.2468,-1.2463,-1.2748,-1.2759,-1.2775,-1.2813,-1.2813,-1.2813,-1.2813,-1.2813,-1.2813,-1.2813,-1.2813,-1.2813,-1.7372,-1.7279,-1.7279,-1.7279,-1.7279,-1.7279,-1.7279,-1.7279,-1.7279,-1.7279,-1.7279,-1.7279,-1.7279,-1.7574,-1.7889,-1.8247,-1.8701,-1.8809,-1.8126,-1.7989,-1.7674,-1.6783,-1.6677,-1.7047,-1.7937,-1.7989,-1.8363,-1.922,-1.9279,-1.9199,-1.9023,-1.8454,-1.8009,-1.7676,-1.6638,-1.5978,-1.5827,-1.6163,-1.6089,-1.5622,-1.5622,-1.5432,-1.5099,-1.4669,-1.443,-1.443,0.0,-1.3667,-1.3286,-1.3286,-1.3098,-1.2813,-1.2813,-1.2813,-1.2813,-1.2813,-1.2813,-1.2764,-1.2467,-1.237,-1.237,-1.237,-1.237,-1.2419,-1.271,-1.2813,-1.2764,-1.2467,-1.257,-1.2813,-1.2813,-1.2813,-1.2813,-1.2813,-1.2813,-1.2813,-1.2813,-1.2813,-1.2813,-1.2813,-1.2813,-1.2813,-1.2813,-1.2813,-1.2813,-1.2813,-1.2813,-1.2813,-1.2813,-1.2813,-1.2813,-1.2813,-1.2813,-1.2813,-1.2813,-1.2813,-1.2813,-1.2813,-1.2662,-1.2651,-1.2807,-1.2813,-1.2813,-1.2813,-1.2813,-1.2813,-1.2813,-1.2813,-1.2813,-1.2813,-1.2813,-1.2813,-1.7279,-1.7279,-1.7279,-1.7279,-1.7279,-1.7279,-1.7279,-1.7279,-1.7279,-1.7279,-1.7279,-1.7279,-1.7279,-1.7297,-1.7559,-1.8306,-1.8311,-1.8065,-1.7574,-1.7186,-1.6711,-1.598,-1.5879,-1.6299,-1.7305,-1.7404,-1.7832,-1.89,-1.8776,-1.8581,-1.8542,-1.7618,-1.692,-1.6412,-1.5596,-1.5025,-1.4813,-1.4675,-1.4675,-1.4813,-1.4813,-1.4717,-1.4526,-1.3908,-1.3619,-1.3619,-1.305,-1.2813,-1.2813,-1.2813,-1.2813,-1.2813,-1.2813,-1.2813,-1.2813,-1.2813,-1.2716,-1.2565,-1.2127,-1.1932,-1.1834,-1.1834,-1.1834,-1.1883,-1.2322,-1.2419,-1.2322,-1.1932,-1.2127,-1.2419,-1.2419,-1.2419,-1.2419,-1.2419,-1.2419,-1.2419,-1.2419,-1.2419,-1.2419,-1.2419,-1.2419,-1.2419,-1.2419,-1.2419,-1.2419,-1.2419,-1.2516,-1.2619,-1.2619,-1.2716,-1.2813,-1.2813,-1.2813,-1.2764,-1.2613,-1.2521,-1.2419,-1.2419,-1.2662,-1.2759,-1.2619,-1.2716,-1.2759,-1.2619,-1.2764,-1.2813,-1.2813,-1.2813,-1.2813,-1.2813,-1.2662,-1.2667,-1.7279,-1.7279,-1.7279,-1.7279,-1.7279,-1.7279,-1.7279,-1.7279,-1.7279,-1.7279,-1.7279,-1.7279,-1.7279,-1.7344,-1.7714,-1.8599,-1.7473,-1.6386,-1.609,-1.4883,-1.3868,-1.3581,-1.3527,-1.4116,-1.5559,-1.5666,-1.6352,-1.7982,-1.7152,-1.6942,-1.7647,-1.6407,-1.5656,-1.5611,-1.454,-1.4022,-1.3998,-1.3286,-1.3286,-1.3998,-1.3998,-1.3619,-1.2953,-1.2905,-1.2856,-1.2856,-1.2813,-1.2813,-1.2813,-1.2813,-1.2813,-1.2813,-1.2813,-1.2813,-1.2813,-1.2813,-1.2467,-1.2029,-1.2029,-1.1683,-1.1247,-1.1247,-1.1247,-1.1243,-1.1292,-1.134,-1.1292,-1.1292,-1.1292,-1.134,-1.134,-1.134,-1.134,-1.134,-1.134,-1.134,-1.134,-1.134,-1.134,-1.134,-1.134,-1.134,-1.134,-1.134,-1.134,-1.134,-1.1736,-1.2078,-1.2078,-1.2467,-1.2813,-1.2813,-1.2813,-1.2613,-1.2078,-1.1585,-1.134,-1.134,-1.2273,-1.257,-1.2078,-1.2521,-1.257,-1.2078,-1.2565,-1.2813,-1.2813,-1.2813,-1.2813,-1.2813,-1.2273,-1.2322,-1.7279,-1.7279,-1.7279,-1.7279,-1.7279,-1.7279,-1.7279,-1.7192,-1.7106,-1.7106,-1.6965,-1.6669,-1.5994,-1.5899,-1.5912,-1.5849,-1.5257,-1.4751,-1.4389,-1.3869,-1.3342,-1.2802,-1.3098,-1.3743,-1.4852,-1.5286,-1.5913,-1.6938,-1.6613,-1.6349,-1.6301,-1.5332,-1.4704,-1.4491,-1.367,-1.3238,-1.3238,-1.2953,-1.2953,-1.3238,-1.3238,-1.305,-1.2813,-1.2813,-1.2813,-1.2813,-1.2813,-1.2813,-1.2813,-1.2813,-1.2813,-1.2813,-1.2813,-1.2613,-1.2322,-1.2322,-1.198,-1.1438,-1.1096,-1.085,-1.0703,-1.0703,-1.0703,-1.0752,-1.11,-1.1194,-1.1145,-1.0801,-1.0703,-1.0806,-1.1096,-1.1194,-1.1194,-1.1194,-1.1194,-1.1194,-1.1194,-1.1194,-1.1194,-1.1194,-1.1194,-1.1194,-1.1194,-1.1194,-1.1194,-1.1194,-1.1389,-1.1487,-1.1487,-1.1683,-1.1834,-1.1834,-1.1834,-1.1731,-1.1536,-1.134,-1.1194,-1.1194,-1.1585,-1.1731,-1.1487,-1.1688,-1.1878,-1.198,-1.2224,-1.2322,-1.2322,-1.2322,-1.2127,-1.1785,-1.1585,-1.159,-1.7239,-1.7091,-1.6904,-1.6662,-1.6466,-1.6325,-1.6129,-1.6278,-1.6386,-1.5954,-1.5758,-1.5419,-1.4651,-1.4465,-1.431,-1.4022,-1.3518,-1.3161,-1.3044,-1.2688,-1.2303,-1.2093,-1.2391,-1.3032,-1.3987,-1.4473,-1.5007,-1.583,-1.5571,-1.5317,-1.5146,-1.436,-1.3699,-1.3335,-1.2953,-1.2716,-1.2565,-1.2716,-1.2813,-1.2813,-1.2613,-1.2613,-1.2813,-1.2613,-1.2565,-1.2521,-1.237,-1.2273,-1.2322,-1.2467,-1.2565,-1.2565,-1.2565,-1.2224,-1.1731,-1.1731,-1.1389,-1.0904,-1.0511,-1.0314,-1.0167,-1.0167,-1.0167,-1.0216,-1.0556,-1.0708,-1.0609,-1.0265,-1.0167,-1.0216,-1.0609,-1.0708,-1.0708,-1.0708,-1.0708,-1.0708,-1.0708,-1.0708,-1.0708,-1.0708,-1.0708,-1.0708,-1.0708,-1.0708,-1.0708,-1.0708,-1.085,-1.0949,-1.0949,-1.11,-1.1194,-1.1194,-1.1047,-1.0949,-1.0949,-1.0801,-1.0708,-1.0708,-1.0708,-1.0757,-1.0949,-1.1096,-1.1292,-1.1487,-1.1683,-1.1731,-1.1731,-1.1731,-1.1536,-1.1194,-1.1047,-1.1047,-1.7019,-1.6588,-1.6001,-1.5188,-1.4657,-1.4172,-1.3632,-1.4495,-1.5019,-1.3771,-1.3482,-1.3482,-1.3488,-1.3258,-1.3294,-1.3868,-1.2523,-1.1603,-1.2208,-1.1074,-1.0483,-1.119,-1.1265,-1.1744,-1.2861,-1.2966,-1.344,-1.4575,-1.368,-1.3447,-1.4339,-1.3372,-1.2516,-1.2029,-1.2516,-1.2521,-1.2029,-1.2516,-1.2813,-1.2813,-1.2273,-1.2273,-1.2764,-1.2224,-1.198,-1.198,-1.1438,-1.1194,-1.1243,-1.1785,-1.198,-1.198,-1.198,-1.1683,-1.1194,-1.1194,-1.0855,-1.0413,-1.0413,-1.0019,-0.9579,-0.9579,-0.9579,-0.9579,-0.9579,-0.9579,-0.9579,-0.9579,-0.9579,-0.9579,-0.9579,-0.9579,-0.9579,-0.9579,-0.9579,-0.9579,-0.9579,-0.9579,-0.9579,-0.9579,-0.9579,-0.9579,-0.9579,-0.9579,-0.9579,-0.9579,-1.0068,-1.0413,-1.0413,-1.0855,-1.1194,-1.1194,-1.0703,-1.0413,-1.0413,-0.992,-0.9579,-0.9579,-0.9579,-0.9821,-1.0364,-1.09,-1.0953,-1.0413,-1.09,-1.1194,-1.1194,-1.1194,-1.1194,-1.1145,-1.0659,-1.0654,-1.6129,-1.5751,-1.5358,-1.4208,-1.3824,-1.344,-1.2382,-1.3011,-1.3644,-1.3065,-1.2915,-1.2721,-1.1994,-1.1799,-1.1585,-1.1013,-1.0487,-1.0258,-1.059,-1.0268,-1.0137,-1.0475,-1.0862,-1.1229,-1.1542,-1.1964,-1.2287,-1.2456,-1.2128,-1.2034,-1.2126,-1.1864,-1.1585,-1.1438,-1.198,-1.2175,-1.198,-1.2516,-1.2619,-1.2224,-1.2078,-1.2078,-1.2224,-1.1683,-1.1438,-1.1438,-1.1292,-1.1194,-1.1194,-1.1389,-1.1438,-1.1438,-1.1438,-1.1096,-1.0659,-1.0659,-1.0314,-0.9821,-0.9821,-0.9727,-0.9579,-0.9579,-0.9579,-0.9579,-0.9579,-0.9579,-0.9579,-0.9579,-0.9579,-0.9579,-0.9579,-0.9579,-0.9579,-0.9579,-0.9579,-0.9579,-0.9579,-0.9579,-0.9579,-0.9579,-0.9579,-0.9579,-0.9579,-0.9579,-0.9579,-0.9579,-0.9727,-0.9821,-0.9821,-0.9969,-1.0068,-1.0068,-0.992,-0.9821,-0.9821,-0.9677,-0.9579,-0.9579,-0.9579,-0.9677,-0.9821,-0.9969,-1.0167,-1.0413,-1.056,-1.0659,-1.0659,-1.0659,-1.0462,-1.0068,-0.992,-0.992,-1.4883,-1.4304,-1.3914,-1.2861,-1.2431,-1.1994,-1.1033,-1.1277,-1.1668,-1.1521,-1.1473,-1.1277,-1.0694,-1.0547,-1.035,-0.9723,-0.9579,-0.9665,-0.977,-0.9782,-0.9851,-1.0082,-1.036,-1.0668,-1.0878,-1.1187,-1.1406,-1.1392,-1.1373,-1.1321,-1.1203,-1.1194,-1.1096,-1.0904,-1.1389,-1.159,-1.1389,-1.1883,-1.198,-1.1683,-1.1487,-1.134,-1.134,-1.1047,-1.09,-1.085,-1.0659,-1.0708,-1.09,-1.09,-1.09,-1.09,-1.09,-1.0556,-1.0068,-1.0068,-0.9871,-0.9579,-0.9579,-0.9579,-0.9579,-0.9579,-0.9579,-0.9579,-0.9579,-0.9579,-0.9579,-0.9579,-0.9579,-0.9579,-0.9579,-0.9579,-0.9579,-0.9579,-0.9579,-0.9579,-0.9579,-0.9579,-0.9579,-0.9579,-0.9579,-0.9579,-0.9579,-0.9579,-0.9579,-0.9579,-0.9579,-0.9579,-0.9579,-0.9579,-0.9579,-0.9579,-0.9579,-0.9579,-0.9579,-0.9579,-0.9579,-0.9579,-0.9278,-0.913,-0.913,-0.913,-0.9274,-0.962,-0.962,-0.9472,-0.9122,-0.9468,-0.9422,-0.913,-0.913,-0.9278,-1.3403,-1.2635,-1.2047,-1.1268,-1.0694,-1.0216,-0.9727,-0.9579,-0.9579,-0.9579,-0.9579,-0.9579,-0.9579,-0.9579,-0.9579,-0.9579,-0.9579,-0.9579,-0.9579,-0.9579,-0.9685,-0.9843,-0.986,-1.0066,-1.0534,-1.0584,-1.0706,-1.1016,-1.1047,-1.1047,-1.1047,-1.1047,-1.085,-1.0364,-1.0855,-1.0904,-1.0413,-1.0949,-1.1198,-1.1096,-1.0605,-1.0364,-1.0314,-1.0314,-1.0314,-1.0314,-0.9826,-0.9871,-1.0314,-1.0314,-1.0314,-1.0314,-1.0314,-1.0019,-0.9579,-0.9579,-0.9579,-0.9579,-0.9579,-0.9579,-0.9579,-0.9579,-0.9579,-0.9579,-0.9579,-0.9579,-0.9579,-0.9579,-0.9579,-0.9579,-0.9579,-0.9579,-0.9579,-0.9579,-0.9579,-0.9579,-0.9579,-0.9579,-0.9579,-0.9579,-0.9579,-0.9579,-0.9579,-0.9579,-0.9579,-0.9579,-0.9579,-0.9579,-0.9579,-0.9529,-0.9529,-0.9579,-0.9476,-0.9426,-0.948,-0.943,-0.9381,-0.9381,-0.868,-0.8283,-0.8283,-0.8283,-0.8283,-0.8283,-0.8283,-0.7935,-0.7188,-0.7935,-0.8283,-0.8283,-0.8382,-0.873,-1.2576,-1.1858,-1.1468,-1.0256,-0.9871,-0.9723,-0.9628,-0.9579,-0.9579,-0.9579,-0.9579,-0.9579,-0.9579,-0.9579,-0.9579,-0.9579,-0.9579,-0.9579,-0.9579,-0.9579,-0.964,-0.9681,-0.9685,-0.9735,-0.9834,-0.9834,-0.9867,-0.9924,-0.992,-0.992,-0.992,-0.992,-0.9875,-0.9776,-1.0314,-1.0511,-1.0413,-1.0949,-1.0998,-1.056,-1.0462,-1.0167,-0.9776,-0.9776,-0.9776,-0.9776,-0.9628,-0.9677,-0.9776,-0.9776,-0.9776,-0.9776,-0.9776,-0.9723,-0.9579,-0.9579,-0.9579,-0.9579,-0.9579,-0.9579,-0.9579,-0.9579,-0.9579,-0.9579,-0.9579,-0.9579,-0.9579,-0.9579,-0.9579,-0.9579,-0.9579,-0.9579,-0.9579,-0.9579,-0.9579,-0.9579,-0.9579,-0.9579,-0.9579,-0.9579,-0.9579,-0.9579,-0.9579,-0.9579,-0.9579,-0.9579,-0.9579,-0.9579,-0.9579,-0.9031,-0.8882,-0.9529,-0.8482,-0.7985,-0.8581,-0.8084,-0.7733,-0.7733,-0.7537,-0.7437,-0.7437,-0.7437,-0.7437,-0.7437,-0.7437,-0.7388,-0.7188,-0.7388,-0.7437,-0.7484,-0.8084,-0.8134,-1.2139,-1.1126,-1.0453,-0.9772,-0.9579,-0.9579,-0.9579,-0.9579,-0.9579,-0.9579,-0.9579,-0.9579,-0.9579,-0.9579,-0.9579,-0.9579,-0.9579,-0.9579,-0.9579,-0.9579,-0.9579,-0.9579,-0.9579,-0.9579,-0.9579,-0.9579,-0.9579,-0.9579,-0.9579,-0.9579,-0.9579,-0.9579,-0.9579,-0.9579,-0.9871,-1.0019,-1.0019,-1.0314,-1.0314,-1.0019,-1.0019,-0.9871,-0.9579,-0.9579,-0.9579,-0.9579,-0.9579,-0.9579,-0.9579,-0.9579,-0.9579,-0.9579,-0.9579,-0.9579,-0.9579,-0.9579,-0.9579,-0.9579,-0.9579,-0.9579,-0.9579,-0.9579,-0.9579,-0.9579,-0.9579,-0.9579,-0.9579,-0.9579,-0.9579,-0.9579,-0.9579,-0.9579,-0.9579,-0.9579,-0.9579,-0.9579,-0.9579,-0.9579,-0.9579,-0.9579,-0.9579,-0.9579,-0.9579,-0.9579,-0.9579,-0.9579,-0.9278,-0.9031,-0.9031,-0.8333,-0.7985,-0.8382,-0.7686,-0.7388,-0.7786,-0.7437,-0.7188,-0.7188,-0.6839,-0.6639,-0.6639,-0.6237,-0.6237,-0.6639,-0.6639,-0.6439,-0.6034,-0.6439,-0.6639,-0.6639,-0.7039,-0.7235,-1.1945,-1.0645,-0.9579,-0.9579,-0.9579,-0.9579,-0.9579,-0.9579,-0.9579,-0.9579,-0.9579,-0.9579,-0.9579,-0.9579,-0.9579,-0.9579,-0.9579,-0.9579,-0.9579,-0.9579,-0.9579,-0.9579,-0.9579,-0.9579,-0.9579,-0.9579,-0.9579,-0.9579,-0.9579,-0.9579,-0.9579,-0.9579,-0.9579,-0.9579,-0.9579,-0.9579,-0.9579,-0.9579,-0.9579,-0.9579,-0.9579,-0.9579,-0.9579,-0.9579,-0.9579,-0.9579,-0.9579,-0.9579,-0.9579,-0.9579,-0.9579,-0.9579,-0.9579,-0.9579,-0.9579,-0.9579,-0.9579,-0.9579,-0.9579,-0.9579,-0.9579,-0.9579,-0.9579,-0.9579,-0.9579,-0.9579,-0.9579,-0.9579,-0.9579,-0.9579,-0.9579,-0.9579,-0.9579,-0.9579,-0.9579,-0.9579,-0.9579,-0.9579,-0.9579,-0.9579,-0.9579,-0.9579,-0.9579,-0.9579,-0.9529,-0.9426,-0.8832,-0.8333,-0.8233,-0.7487,-0.7039,-0.7188,-0.6936,-0.6836,-0.6989,-0.6889,-0.6786,-0.6786,-0.6139,-0.5792,-0.5792,-0.5135,-0.5135,-0.5792,-0.5792,-0.5489,-0.4784,-0.5489,-0.5792,-0.5792,-0.5942,-0.6289,-1.2047,-1.0645,-0.9579,-0.9579,-0.9579,-0.9579,-0.9579,-0.9579,-0.9579,-0.9579,-0.9579,-0.9579,-0.9579,-0.9579,-0.9579,-0.9579,-0.9579,-0.9579,-0.9579,-0.9579,-0.9579,-0.9579,-0.9579,-0.9579,-0.9579,-0.9579,-0.9579,-0.9579,-0.9579,-0.9579,-0.9579,-0.9579,-0.9579,-0.9579,-0.9579,-0.9579,-0.9579,-0.9579,-0.9579,-0.9579,-0.9579,-0.9579,-0.9579,-0.9579,-0.9579,-0.9579,-0.9579,-0.9579,-0.9579,-0.9579,-0.9579,-0.9579,-0.9579,-0.9579,-0.9579,-0.9579,-0.9579,-0.9579,-0.9579,-0.9579,-0.9579,-0.9579,-0.9579,-0.9579,-0.9579,-0.9579,-0.9579,-0.9579,-0.9579,-0.9579,-0.9579,-0.9579,-0.9579,-0.9579,-0.9579,-0.9579,-0.9579,-0.9579,-0.9579,-0.9579,-0.9579,-0.9579,-0.9579,-0.9579,-0.9377,-0.868,-0.8482,-0.8134,-0.7437,-0.6639,-0.6439,-0.7138,-0.5937,-0.5386,-0.6092,-0.5539,-0.5135,-0.5135,-0.5035,-0.4935,-0.4935,-0.4834,-0.4834,-0.4935,-0.4935,-0.4885,-0.4784,-0.4885,-0.4935,-0.4985,-0.5689,-0.5689,-1.1487,-1.0261,-0.9579,-0.9579,-0.9579,-0.9579,-0.9579,-0.9579,-0.9579,-0.9579,-0.9579,-0.9579,-0.9579,-0.9579,-0.9579,-0.9579,-0.9579,-0.9579,-0.9579,-0.9579,-0.9579,-0.9579,-0.9579,-0.9579,-0.9579,-0.9579,-0.9579,-0.9579,-0.9579,-0.9579,-0.9579,-0.9579,-0.9579,-0.9579,-0.9579,-0.9579,-0.9579,-0.9579,-0.9579,-0.9579,-0.9579,-0.9579,-0.9579,-0.9579,-0.9579,-0.9579,-0.9579,-0.9579,-0.9579,-0.9579,-0.9579,-0.9579,-0.9579,-0.9579,-0.9579,-0.9579,-0.9579,-0.9579,-0.9579,-0.9579,-0.9579,-0.9579,-0.9579,-0.9579,-0.9579,-0.9579,-0.9579,-0.9579,-0.9697,-0.977,-0.977,-0.9847,-0.9929,-0.9929,-0.9847,-0.977,-0.977,-0.9697,-0.9579,-0.9579,-0.9229,-0.8931,-0.8931,-0.8531,-0.8134,-0.7783,-0.7338,-0.6939,-0.6589,-0.5839,-0.5486,-0.5834,-0.5236,-0.4935,-0.5288,-0.4985,-0.4784,-0.4784,-0.4784,-0.4784,-0.4784,-0.4784,-0.4784,-0.4784,-0.4784,-0.4784,-0.4784,-0.4784,-0.4784,-0.4784,-0.5186,-0.5135,-1.1284,-1.0289,-0.9719,-0.9616,-0.9579,-0.9579,-0.9579,-0.9579,-0.9579,-0.9579,-0.9579,-0.9579,-0.9579,-0.9579,-0.9579,-0.9579,-0.9579,-0.9579,-0.9579,-0.9579,-0.9579,-0.9579,-0.9579,-0.9579,-0.9579,-0.9579,-0.9579,-0.9579,-0.9579,-0.9579,-0.9579,-0.9579,-0.9579,-0.9579,-0.9579,-0.9579,-0.9579,-0.9579,-0.9579,-0.9579,-0.9579,-0.9579,-0.9579,-0.9579,-0.9579,-0.9579,-0.9579,-0.9579,-0.9579,-0.9579,-0.9579,-0.9579,-0.9579,-0.9579,-0.9579,-0.9579,-0.9579,-0.9579,-0.9579,-0.9579,-0.9579,-0.9579,-0.9657,-0.9693,-0.9693,-0.9726,-0.9766,-0.9766,-0.9855,-0.9953,-0.9953,-1.011,-1.0212,-1.0212,-1.0106,-0.9929,-0.9839,-0.9568,-0.9278,-0.9278,-0.863,-0.8084,-0.8084,-0.7584,-0.7138,-0.6939,-0.6392,-0.5942,-0.5739,-0.5188,-0.4784,-0.4784,-0.4784,-0.4784,-0.4784,-0.4784,-0.4784,-0.4784,-0.4784,-0.4784,-0.4784,-0.4784,-0.4784,-0.4784,-0.4784,-0.4784,-0.4784,-0.4784,-0.4784,-0.4784,-0.4784,-0.4784,-1.2094,-1.0991,-1.0,-0.9686,-0.9579,-0.9579,-0.9579,-0.9579,-0.9579,-0.9579,-0.9579,-0.9579,-0.9579,-0.9579,-0.9579,-0.9579,-0.9579,-0.9579,-0.9579,-0.9579,-0.9579,-0.9579,-0.9579,-0.9579,-0.9579,-0.9579,-0.9579,-0.9579,-0.9579,-0.9579,-0.9579,-0.9579,-0.9579,-0.9579,-0.9579,-0.9579,-0.9579,-0.9579,-0.9579,-0.9579,-0.9579,-0.9579,-0.9579,-0.9579,-0.9579,-0.9579,-0.9579,-0.9579,-0.9579,-0.9579,-0.9579,-0.9579,-0.9579,-0.9579,-0.9579,-0.9579,-0.9579,-0.9579,-0.9579,-0.9579,-0.9579,-0.9579,-0.9738,-0.9872,-0.9872,-1.0045,-1.0188,-1.0188,-1.0192,-1.02,-1.02,-1.0208,-1.0212,-1.0212,-1.0208,-1.0054,-0.9713,-0.8985,-0.8482,-0.8482,-0.7836,-0.7238,-0.7238,-0.7238,-0.6939,-0.6192,-0.6042,-0.5739,-0.4985,-0.4834,-0.4784,-0.4784,-0.4784,-0.4784,-0.4784,-0.4784,-0.4784,-0.4784,-0.4784,-0.4784,-0.4784,-0.4784,-0.4784,-0.4784,-0.4784,-0.4784,-0.4784,-0.4784,-0.4784,-0.4784,-0.4784,-0.4784,-1.2502,-1.1257,-1.0079,-1.0119,-0.9875,-0.9579,-0.9579,-0.9579,-0.9579,-0.9579,-0.9579,-0.9579,-0.9579,-0.9579,-0.9579,-0.9579,-0.9579,-0.9579,-0.9579,-0.9579,-0.9579,-0.9579,-0.9579,-0.9579,-0.9579,-0.9579,-0.9579,-0.9579,-0.9579,-0.9579,-0.9579,-0.9579,-0.9579,-0.9579,-0.9579,-0.9579,-0.9579,-0.9579,-0.9579,-0.9579,-0.9579,-0.9579,-0.9579,-0.9579,-0.9579,-0.9579,-0.9579,-0.9579,-0.9579,-0.9579,-0.9579,-0.9579,-0.9579,-0.9579,-0.9579,-0.9579,-0.9579,-0.9644,-0.9754,-0.9791,-0.9811,-0.9933,-1.0014,-1.0114,-1.0114,-1.0159,-1.0212,-1.0212,-1.0245,-1.0335,-1.0335,-1.042,-1.0473,-1.0363,-1.0335,-1.027,-1.0026,-0.9764,-0.9402,-0.8782,-0.8007,-0.7285,-0.6717,-0.6141,-0.5688,-0.5384,-0.5278,-0.5135,-0.4834,-0.4784,-0.4784,-0.4784,-0.4784,-0.4784,-0.4784,-0.4784,-0.4784,-0.4784,-0.4784,-0.4784,-0.4784,-0.4784,-0.4784,-0.4784,-0.4784,-0.4784,-0.4784,-0.4784,-0.4784,-0.4784,-0.4784,-0.4784,-1.2951,-1.1843,-1.0754,-1.0493,-1.0117,-0.9821,-0.9628,-0.9579,-0.9579,-0.9579,-0.9579,-0.9579,-0.9579,-0.9579,-0.9579,-0.9579,-0.9579,-0.9579,-0.9579,-0.9579,-0.9579,-0.9579,-0.9681,-0.9713,-0.9713,-0.977,-0.9807,-0.9807,-0.9807,-0.9778,-0.9717,-0.9713,-0.9689,-0.9579,-0.9579,-0.9579,-0.9579,-0.9579,-0.9579,-0.9579,-0.9579,-0.9579,-0.9579,-0.9579,-0.9579,-0.9579,-0.9579,-0.9579,-0.9579,-0.9579,-0.9579,-0.9579,-0.9579,-0.9579,-0.9579,-0.9579,-0.9665,-0.973,-0.9843,-0.9925,-0.9998,-1.0175,-1.0205,-1.0253,-1.0253,-1.0294,-1.0392,-1.0392,-1.0428,-1.0521,-1.0521,-1.0607,-1.0664,-1.055,-1.0521,-1.0489,-1.0367,-0.982,-0.916,-0.8528,-0.7527,-0.6582,-0.6004,-0.5422,-0.5018,-0.5018,-0.4965,-0.4916,-0.4883,-0.4881,-0.4869,-0.4788,-0.4784,-0.4784,-0.4784,-0.4784,-0.4784,-0.4784,-0.4784,-0.4784,-0.4784,-0.4784,-0.4784,-0.4784,-0.4784,-0.4784,-0.4784,-0.4784,-0.4784,-0.4784,-0.4784,-0.4784,0.0,0.0,0.0,-1.0798,-1.0462,-1.0265,-0.9723,-0.9628,-0.9628,-0.9628,-0.9579,-0.9579,-0.9579,-0.9579,-0.9579,-0.9579,-0.9579,-0.9579,-0.9579,-0.9579,-0.9579,-0.9583,-0.9782,-0.9888,-0.9892,-1.0106,-1.0212,-1.0212,-1.0212,-1.0135,-0.99,-0.9888,-0.9807,-0.9583,-0.9579,-0.9579,-0.9579,-0.9579,-0.9579,-0.9579,-0.9579,-0.9579,-0.9579,-0.9579,-0.9579,-0.9579,-0.9579,-0.9579,-0.9579,-0.9579,-0.9579,-0.9579,-0.9579,-0.9579,-0.9587,-0.9587,-0.9746,-0.9892,-0.99,-1.0018,-1.0224,-1.0228,-1.0298,-1.0391,-1.0391,-1.0558,-1.0692,-1.0692,-1.0692,-1.0692,-1.0692,-1.0692,-1.0692,-1.0692,-1.0692,-1.0692,-1.0637,-0.9015,-0.7592,-0.7592,-0.6275,-0.5116,-0.5116,-0.5114,-0.5112,-0.5112,-0.511,-0.5075,-0.4988,-0.5027,-0.4941,-0.4802,-0.479,-0.4788,-0.4788,-0.4786,-0.4784,-0.4784,-0.4784,-0.4784,-0.4784,-0.4784,-0.4784,-0.4784,-0.4784,-0.4784,-0.4784,-0.4784,-0.4784,-0.4784,-0.4784,-0.4784,-1.4832,0.0,0.0,0.0,0.0,0.0,-1.0314,-1.0167,-1.0068,-0.9677,-0.9579,-0.9579,-0.9579,-0.9579,-0.9579,-0.9579,-0.9579,-0.9579,-0.9579,-0.9579,-0.9673,-0.9799,-0.9855,-0.9937,-1.0122,-1.0184,-1.0212,-1.0212,-1.0212,-1.0192,-1.0139,-0.9957,-0.9807,-0.9583,-0.9579,-0.9579,-0.9579,-0.9579,-0.9579,-0.9579,-0.9579,-0.9579,-0.9579,-0.9579,-0.9579,-0.9579,-0.9579,-0.9579,-0.9579,-0.9579,-0.9579,-0.9579,-0.9579,-0.9705,-0.9815,-0.9815,-0.9929,-1.0155,-1.0237,-1.0318,-1.0379,-1.0505,-1.0578,-1.0623,-1.0623,-1.0655,-1.0692,-1.0692,-1.0692,-1.0692,-1.0692,-1.0692,-1.0523,-0.9915,-1.0249,-1.0359,-0.9027,-0.8301,-0.7865,-0.7865,-0.6999,-0.6074,-0.5414,-0.5251,-0.5152,-0.5152,-0.5151,-0.5098,-0.5073,-0.5071,-0.5061,-0.5035,-0.4973,-0.4934,-0.4934,-0.4873,-0.4784,-0.4784,-0.4784,-0.4784,-0.4784,-0.4784,-0.4784,-0.4784,-0.4784,-0.4784,-0.4784,-0.4784,-0.4784,-0.4784,-0.4784,-0.4784,-1.5977,-1.4911,-1.3948,-1.3682,0.0,0.0,-1.1086,-1.0654,-1.0265,-0.9727,-0.9579,-0.9579,-0.9579,-0.9579,-0.9579,-0.9579,-0.9579,-0.9579,-0.9579,-0.9579,-0.9693,-0.9864,-0.9953,-1.0071,-1.0257,-1.0343,-1.0437,-1.0437,-1.0437,-1.0351,-1.0278,-1.0103,-0.992,-0.9742,-0.9734,-0.9701,-0.9579,-0.9579,-0.9579,-0.9579,-0.9579,-0.9579,-0.9579,-0.9579,-0.9579,-0.9579,-0.9579,-0.9579,-0.9583,-0.9705,-0.9734,-0.9734,-0.9734,-0.9843,-1.0053,-1.0053,-1.0115,-1.029,-1.0342,-1.0427,-1.0558,-1.066,-1.0692,-1.0692,-1.0692,-1.0692,-1.0692,-1.0692,-1.0692,-1.0692,-1.0692,-1.0692,-1.0582,-1.008,-1.0304,-1.0304,-0.8916,-0.8251,-0.7919,-0.7537,-0.6765,-0.5993,-0.5493,-0.5337,-0.5302,-0.5302,-0.5257,-0.5208,-0.5169,-0.5165,-0.5151,-0.5112,-0.5061,-0.5028,-0.5028,-0.4979,-0.4932,-0.4894,-0.4892,-0.4875,-0.4786,-0.4784,-0.4784,-0.4784,-0.4784,-0.4784,-0.4784,-0.4784,-0.4784,-0.4784,-0.4784,-0.4784,-1.7116,-1.6355,-1.5617,-1.4779,-1.3884,0.0,-1.1999,-1.1135,-1.0413,-0.9871,-0.9776,-0.9776,-0.9677,-0.9677,-0.9677,-0.9628,-0.9579,-0.9579,-0.9579,-0.9579,-0.9697,-0.9892,-1.0114,-1.0241,-1.0444,-1.0603,-1.0692,-1.0692,-1.0692,-1.0615,-1.0391,-1.0282,-1.0107,-0.992,-0.9896,-0.9811,-0.9657,-0.9587,-0.9579,-0.9579,-0.9579,-0.9579,-0.9579,-0.9579,-0.9579,-0.9579,-0.9648,-0.9657,-0.9669,-0.9843,-0.9904,-0.9888,-0.9908,-1.003,-1.0245,-1.0245,-1.0306,-1.0411,-1.0411,-1.0562,-1.0692,-1.0692,-1.0692,-1.0692,-1.0692,-1.0692,-1.0692,-1.0692,-1.0692,-1.0692,-1.0692,-1.0692,-1.0692,-1.0582,-1.0637,-1.0414,-0.9471,-0.8585,-0.7756,-0.6879,-0.5993,-0.5382,-0.5382,-0.5382,-0.5382,-0.5382,-0.5382,-0.5351,-0.5215,-0.5204,-0.5174,-0.5147,-0.5128,-0.5122,-0.5122,-0.5114,-0.5073,-0.4992,-0.4986,-0.4951,-0.4817,-0.4815,-0.4815,-0.4815,-0.4804,-0.4798,-0.4798,-0.479,-0.4784,-0.4784,-0.4784,-0.4784,-1.9079,-1.7781,-1.6624,-1.6445,-1.5086,0.0,-1.2926,-1.2209,-1.1541,-1.0998,-1.0904,-1.0752,-1.0314,-1.0216,-1.0117,-0.9677,-0.9579,-0.9579,-0.9579,-0.9579,-0.9746,-1.0122,-1.0192,-1.0343,-1.0611,-1.0672,-1.0692,-1.0692,-1.0692,-1.0615,-1.0391,-1.04,-1.0298,-1.0163,-0.9965,-0.9868,-0.9835,-0.9697,-0.9579,-0.9579,-0.9579,-0.9579,-0.9579,-0.9579,-0.9579,-0.9587,-0.9774,-0.9835,-0.9847,-1.0082,-1.0069,-0.99,-1.0102,-1.0221,-1.0383,-1.0383,-1.0493,-1.0643,-1.0643,-1.0664,-1.0692,-1.0692,-1.0692,-1.0692,-1.0692,-1.0692,-1.0692,-1.0692,-1.0692,-1.0692,-1.0692,-1.0692,-1.0527,-0.9805,-1.0194,-1.0249,-0.864,-0.814,-0.7756,-0.6879,-0.5993,-0.5382,-0.5382,-0.5382,-0.5382,-0.5382,-0.5382,-0.5375,-0.5357,-0.5355,-0.5347,-0.5331,-0.5261,-0.5164,-0.5164,-0.5151,-0.51,-0.5084,-0.5081,-0.5073,-0.5055,-0.5055,-0.5055,-0.5055,-0.4981,-0.4945,-0.4945,-0.4871,-0.4784,-0.4784,-0.4784,-0.4784,-2.0295,-1.9199,-1.8226,-1.7645,-1.6419,0.0,0.0,-1.336,-1.2403,-1.1863,-1.1482,-1.1096,-1.0855,-1.0801,-1.0605,-1.0068,-1.0019,-0.992,-0.9628,-0.9579,-0.9762,-1.0171,-1.0212,-1.0355,-1.066,-1.0692,-1.0692,-1.0692,-1.0692,-1.0655,-1.0566,-1.0562,-1.0481,-1.0302,-1.0205,-1.0115,-1.0073,-0.9937,-0.9896,-0.9896,-0.9896,-0.9896,-0.9896,-0.9896,-0.9896,-0.99,-0.9985,-1.0073,-1.0038,-1.0221,-1.0241,-1.0168,-1.0262,-1.0408,-1.0562,-1.0562,-1.0615,-1.0692,-1.0692,-1.0692,-1.0692,-1.0692,-1.0692,-1.0692,-1.0692,-1.0692,-1.0692,-1.0692,-1.0692,-1.0692,-1.0692,-1.0692,-1.0582,-1.0135,-1.0025,-0.9691,-0.8306,-0.7645,-0.7096,-0.6214,-0.5714,-0.5382,-0.5382,-0.5382,-0.5382,-0.5382,-0.5382,-0.5382,-0.5382,-0.5382,-0.5382,-0.5382,-0.5341,-0.5312,-0.5312,-0.5271,-0.5224,-0.5179,-0.5175,-0.5155,-0.511,-0.5108,-0.532,-0.5741,-0.5273,-0.5248,-0.5716,-0.5199,-0.4873,-0.4834,-0.5188,-0.5188,-2.1472,-2.0619,-1.9803,-1.8812,-1.7831,-1.6835,0.0,0.0,0.0,-1.306,-1.2296,-1.1678,-1.158,-1.1438,-1.1198,-1.0659,-1.0462,-1.0265,-0.9826,-0.9706,-0.9799,-1.0175,-1.0212,-1.0355,-1.066,-1.0692,-1.0692,-1.0692,-1.0692,-1.0692,-1.0692,-1.0692,-1.0627,-1.0435,-1.0399,-1.0363,-1.0217,-1.0233,-1.0212,-1.0212,-1.0212,-1.0212,-1.0212,-1.0212,-1.0212,-1.0216,-1.0253,-1.0213,-1.0229,-1.0412,-1.0485,-1.0485,-1.0485,-1.057,-1.0692,-1.0692,-1.0692,-1.0692,-1.0692,-1.0692,-1.0692,-1.0692,-1.0692,-1.0692,-1.0692,-1.0692,-1.0692,-1.0692,-1.0692,-1.0692,-1.0692,-1.0692,-1.0692,-1.0692,-1.0135,-0.9416,-0.8696,-0.7814,-0.6932,-0.6047,-0.5768,-0.5605,-0.5437,-0.5382,-0.5382,-0.5382,-0.5382,-0.5382,-0.5382,-0.5382,-0.5382,-0.5382,-0.5382,-0.5382,-0.5382,-0.5382,-0.5349,-0.5221,-0.5217,-0.5237,-0.5163,-0.5161,-0.548,-0.6173,-0.5674,-0.5718,-0.646,-0.5907,-0.5448,-0.5139,-0.5727,-0.5768,-2.3188,-2.1882,-2.0492,-2.0357,-1.8934,-1.7591,-1.7451,0.0,-1.5466,-1.5412,0.0,-1.3468,-1.298,0.0,0.0,-1.1194,-1.0703,-1.0364,-1.0314,-1.0058,-0.9933,-1.0192,-1.0212,-1.0355,-1.066,-1.0692,-1.0692,-1.0692,-1.0692,-1.0692,-1.0692,-1.0692,-1.0684,-1.0664,-1.0513,-1.037,-1.0404,-1.0245,-1.0212,-1.0212,-1.0212,-1.0212,-1.0212,-1.0212,-1.0212,-1.0224,-1.0335,-1.0404,-1.0366,-1.059,-1.0664,-1.0664,-1.0664,-1.0676,-1.0692,-1.0692,-1.0692,-1.0692,-1.0692,-1.0692,-1.0692,-1.0692,-1.0692,-1.0692,-1.0692,-1.0692,-1.0692,-1.0692,-1.0692,-1.0692,-1.0692,-1.0692,-1.0692,-1.0692,-1.0637,-1.0527,-1.0414,-0.9695,-0.8809,-0.7867,-0.7096,-0.6325,-0.5549,-0.5382,-0.5382,-0.5382,-0.5382,-0.5382,-0.5382,-0.5382,-0.5382,-0.5382,-0.5382,-0.5382,-0.5382,-0.5382,-0.5377,-0.5367,-0.5365,-0.5361,-0.5351,-0.5351,-0.5406,-0.5515,-0.6141,-0.6472,-0.6578,-0.7219,-0.7042,-0.6228,-0.6179,-0.6541,-2.359,-2.2599,-2.1472,-2.0763,-1.9675,-1.8711,-1.8396,-1.7591,-1.6788,-1.6506,0.0,0.0,0.0,0.0,0.0,0.0,-1.1727,-1.1198,-1.09,-1.0479,-1.0192,-1.018,-1.0257,-1.0416,-1.0668,-1.0692,-1.0692,-1.0692,-1.0692,-1.0692,-1.0692,-1.0692,-1.0692,-1.0692,-1.0623,-1.0586,-1.0586,-1.0505,-1.0469,-1.0469,-1.0469,-1.0469,-1.0469,-1.0469,-1.0469,-1.0473,-1.055,-1.0586,-1.059,-1.0664,-1.0692,-1.0692,-1.0692,-1.0692,-1.0692,-1.0692,-1.0692,-1.0692,-1.0692,-1.0692,-1.0692,-1.0692,-1.0692,-1.0692,-1.0692,-1.0692,-1.0692,-1.0692,-1.0692,-1.0692,-1.0692,-1.0692,-1.0582,-1.008,-0.9526,-0.9137,-0.9137,-0.8423,-0.7706,-0.7318,-0.6932,-0.6437,-0.5549,-0.5382,-0.5382,-0.5382,-0.5382,-0.5382,-0.5382,-0.5382,-0.5382,-0.5382,-0.5382,-0.5382,-0.5382,-0.5382,-0.5382,-0.5382,-0.5382,-0.5382,-0.5382,-0.5882,-0.6379,-0.6871,-0.7265,-0.7676,-0.8224,-0.8004,-0.7973,-0.8132,-0.7911,-0.7758,-2.3894,-2.3256,-2.2492,-2.1615,-2.0718,-2.0002,-1.9592,-1.885,-1.8102,-1.7731,-1.6929,0.0,0.0,0.0,-1.4184,0.0,0.0,-1.2068,-1.1487,-1.0901,-1.0469,-1.0383,-1.0469,-1.0554,-1.068,-1.0692,-1.0692,-1.0692,-1.0692,-1.0692,-1.0692,-1.0692,-1.0692,-1.0692,-1.0692,-1.0692,-1.0692,-1.0692,-1.0692,-1.0692,-1.0692,-1.0692,-1.0692,-1.0692,-1.0692,-1.0692,-1.0692,-1.0692,-1.0692,-1.0692,-1.0692,-1.0692,-1.0692,-1.0692,-1.0692,-1.0692,-1.0692,-1.0692,-1.0692,-1.0692,-1.0692,-1.0692,-1.0692,-1.0692,-1.0692,-1.0692,-1.0692,-1.0692,-1.0692,-1.0692,-1.0692,-1.0692,-1.0523,-0.9915,-0.9247,-0.8751,-0.8751,-0.8257,-0.7709,-0.7487,-0.7432,-0.7154,-0.6267,-0.5714,-0.5382,-0.5382,-0.5382,-0.5382,-0.5382,-0.5382,-0.5493,-0.5714,-0.5549,-0.5493,-0.5714,-0.5549,-0.5493,-0.5714,-0.577,-0.5882,-0.61,-0.671,-0.7374,-0.7974,-0.8251,-0.8696,-0.9416,-0.8972,-0.9082,-0.9743,-0.9251,-0.886,-2.4454,-2.398,-2.346,-2.3416,-2.2378,-2.1356,-2.1311,-2.0402,-1.9546,-1.95,-1.8527,-1.7498,-1.6936,0.0,0.0,0.0,0.0,0.0,0.0,-1.1224,-1.0722,-1.0858,-1.0791,-1.0684,-1.0692,-1.0692,-1.0692,-1.0692,-1.0692,-1.0692,-1.0692,-1.0692,-1.0692,-1.0692,-1.0692,-1.0692,-1.0692,-1.0692,-1.0692,-1.0692,-1.0692,-1.0692,-1.0692,-1.0692,-1.0692,-1.0692,-1.0692,-1.0692,-1.0692,-1.0692,-1.0692,-1.0692,-1.0692,-1.0692,-1.0692,-1.0692,-1.0692,-1.0692,-1.0692,-1.0692,-1.0692,-1.0692,-1.0692,-1.0692,-1.0692,-1.0692,-1.0692,-1.0692,-1.0692,-1.0692,-1.0692,-1.0692,-1.0692,-1.0637,-1.0637,-1.0637,-1.0637,-1.0582,-1.0304,-0.9471,-0.9306,-0.903,-0.8085,-0.6543,-0.5382,-0.5382,-0.5382,-0.5382,-0.5382,-0.5382,-0.5714,-0.6548,-0.5882,-0.5714,-0.6604,-0.5882,-0.577,-0.6604,-0.6659,-0.7043,-0.7864,-0.7919,-0.7974,-0.7974,-0.8916,-0.9361,-0.9416,-1.0245,-1.0637,-1.0633,-0.9583,-0.9559,0.0,0.0,-2.2906,-2.3363,-2.2422,-2.1535,-2.1961,-2.1392,-2.0673,-2.0311,-1.9583,-1.8804,-1.8257,0.0,0.0,0.0,0.0,0.0,0.0,-1.2139,-1.1223,-1.0928,-1.0795,-1.0692,-1.0692,-1.0692,-1.0692,-1.0692,-1.0692,-1.0692,-1.0692,-1.0692,-1.0692,-1.0692,-1.0692,-1.0692,-1.0692,-1.0692,-1.0692,-1.0692,-1.0692,-1.0692,-1.0692,-1.0692,-1.0692,-1.0692,-1.0692,-1.0692,-1.0692,-1.0692,-1.0692,-1.0692,-1.0692,-1.0692,-1.0692,-1.0692,-1.0692,-1.0692,-1.0692,-1.0692,-1.0692,-1.0692,-1.0692,-1.0692,-1.0692,-1.0692,-1.0692,-1.0692,-1.0692,-1.0692,-1.0692,-1.0692,-1.0523,-0.997,-0.986,-0.986,-0.986,-0.986,-0.975,-0.9471,-0.9416,-0.9082,-0.814,-0.7534,-0.693,-0.6325,-0.577,-0.5382,-0.5382,-0.5382,-0.5493,-0.5826,-0.6102,-0.6381,-0.6657,-0.6437,-0.6657,-0.7482,-0.7043,-0.7099,-0.7974,-0.8582,-0.8916,-0.8916,-0.9805,-1.0249,-1.0249,-1.0582,-1.0692,-1.0688,-1.0358,-1.033,-2.4497,-2.3831,0.0,-2.345,-2.2599,-2.1882,-2.2306,-2.1872,-2.1311,-2.0952,-2.0546,-1.9957,-1.8966,0.0,0.0,0.0,0.0,0.0,0.0,-1.2633,-1.163,-1.0975,-1.0795,-1.0692,-1.0692,-1.0692,-1.0692,-1.0692,-1.0692,-1.0692,-1.0692,-1.0692,-1.0692,-1.0692,-1.0692,-1.0692,-1.0692,-1.0692,-1.0692,-1.0692,-1.0692,-1.0692,-1.0692,-1.0692,-1.0692,-1.0692,-1.0692,-1.0692,-1.0692,-1.0692,-1.0692,-1.0692,-1.0692,-1.0692,-1.0692,-1.0692,-1.0692,-1.0692,-1.0692,-1.0692,-1.0692,-1.0692,-1.0692,-1.0692,-1.0692,-1.0692,-1.0692,-1.0692,-1.0692,-1.0692,-1.0692,-1.0692,-1.0582,-0.997,-0.986,-0.986,-0.986,-0.986,-0.986,-0.986,-0.986,-0.9695,-0.9082,-0.8696,-0.8198,-0.7318,-0.671,-0.632,-0.632,-0.632,-0.6432,-0.6765,-0.7043,-0.7152,-0.7152,-0.7152,-0.7537,-0.842,-0.798,-0.8036,-0.8916,-0.9526,-0.986,-0.986,-1.0414,-1.0692,-1.0692,-1.0692,-1.0692,-1.0692,-1.0692,-1.0692]},{"header":{"parameterUnit":"m.s-1","parameterCategory":1,"la1":30.6,"la2":29.2853,"lo1":-89.7004,"lo2":-87.6739,"dy":0.0162,"dx":0.0183,"nx":112,"ny":82,"refTime":"2024-04-18T06:00:00:Z","depth":0,"parameterNumber":3,"parameterNumberName":"V-component_of_WINDS"},"data":[0.0,0.0,0.0,0.0,0.0,0.0,0.0,0.0,0.0,0.0,0.0,0.0,0.0,0.0,0.0,0.0,0.0,0.0,0.0,0.0,0.0,0.0,0.0,0.0,0.0,0.0,0.0,0.0,0.0,0.0,0.0,0.0,0.0,0.0,0.0,0.0,0.0,0.0,0.0,0.0,0.0,0.0,0.0,0.0,0.0,0.0,0.0,0.0,0.0,0.0,0.0,0.0,0.0,0.0,0.0,0.0,0.0,0.0,0.0,0.0,0.0,0.0,0.0,0.0,0.0,0.0,0.0,0.0,0.0,0.0,0.0,0.0,0.0,0.0,0.0,0.0,0.0,0.0,0.0,0.0,0.0,0.0,0.0,0.0,0.0,0.0,0.0,0.0,0.0,0.0,1.3499,1.2266,1.0193,0.8627,0.8009,0.7261,0.6779,0.6779,0.0,0.0,0.0,0.0,0.0,0.0,0.0,0.0,0.0,0.0,0.0,0.0,0.0,0.0,0.0,0.0,0.0,0.0,0.0,0.0,0.0,0.0,0.0,0.0,0.0,0.0,0.0,0.0,0.0,0.0,0.0,0.0,0.0,0.0,0.0,0.0,0.0,0.0,0.0,0.0,0.0,0.0,0.0,0.0,0.0,0.0,0.0,0.0,0.0,0.0,0.0,0.0,0.0,0.0,0.0,0.0,0.0,0.0,0.0,0.0,0.0,0.0,0.0,0.0,0.0,0.0,0.0,0.0,0.0,0.0,0.0,0.0,0.0,0.0,0.0,0.0,0.0,0.0,0.0,0.0,0.0,0.0,0.0,0.0,0.0,0.0,0.0,0.0,0.0,0.0,0.0,0.0,0.0,0.0,0.0,0.0,0.0,0.0,0.0,0.0,0.0,0.0,0.0,0.0,1.3173,1.1628,0.9932,0.8846,0.8759,0.7526,0.6779,0.6779,0.0,0.0,0.0,0.0,0.0,0.0,0.0,0.0,0.0,0.0,0.0,0.0,0.0,0.0,0.0,0.0,0.0,0.0,0.0,0.0,0.0,0.0,0.0,0.0,0.0,0.0,0.0,0.0,0.0,0.0,0.0,0.0,0.0,0.0,0.0,0.0,0.0,0.0,0.0,0.0,0.0,0.0,0.0,0.0,0.0,0.0,0.0,0.0,0.0,0.0,0.0,0.0,0.0,0.0,0.0,0.0,0.0,0.0,0.0,0.0,0.0,0.0,0.0,0.0,0.0,0.0,0.0,0.0,0.0,0.0,0.0,0.0,0.0,0.0,0.0,0.0,0.0,0.0,0.0,0.0,0.0,0.0,0.0,0.0,0.0,0.0,0.0,0.0,0.0,0.0,0.0,0.0,0.0,0.0,0.0,0.0,0.0,0.0,0.0,0.0,0.0,0.0,0.0,1.3893,1.279,1.1456,1.0414,0.9589,0.8934,0.8317,0.7614,0.6868,0.6293,0.0,0.0,0.0,0.0,0.0,0.0,0.0,0.0,0.0,0.0,0.0,0.0,0.0,0.0,0.0,0.0,0.0,0.0,0.0,0.0,0.0,0.0,0.0,0.0,0.0,0.0,0.0,0.0,0.0,0.0,0.0,0.0,0.0,0.0,0.0,0.0,0.0,0.0,0.0,0.0,0.0,0.0,0.0,0.0,0.0,0.0,0.0,0.0,0.0,0.0,0.0,0.0,0.0,0.0,0.0,0.0,0.0,0.0,0.0,0.0,0.0,0.0,0.0,0.0,0.0,0.0,0.0,0.0,0.0,0.0,0.0,0.0,0.0,0.0,0.0,0.0,0.0,0.0,0.0,0.0,0.0,0.0,0.0,0.0,0.0,0.0,0.0,0.0,0.0,0.0,0.0,0.0,0.0,0.0,0.0,0.0,0.0,0.0,0.0,0.0,0.0,0.0,1.3717,1.2656,1.1794,1.102,1.0241,0.9371,0.9065,0.836,0.7129,0.6864,0.0,0.0,0.0,0.0,0.0,0.0,0.0,0.0,0.0,0.0,0.0,0.0,0.0,0.0,0.0,0.0,0.0,0.0,0.0,0.0,0.0,0.0,0.0,0.0,0.0,0.0,0.0,0.0,0.0,0.0,0.0,0.0,0.0,0.0,0.0,0.0,0.0,0.0,0.0,0.0,0.0,0.0,0.0,0.0,0.0,0.0,0.0,0.0,0.0,0.0,0.0,0.0,0.0,0.0,0.0,0.0,0.0,0.0,0.0,0.0,0.0,0.0,0.0,0.0,0.0,0.0,0.0,0.0,0.0,0.0,0.0,0.0,0.0,0.0,0.0,0.0,0.0,0.0,0.0,0.0,0.0,0.0,0.0,0.0,0.0,0.0,0.0,0.0,0.0,0.0,0.0,0.0,0.0,0.0,0.0,0.0,0.0,0.0,0.0,0.0,0.0,0.0,1.3717,1.296,1.2869,1.1494,1.0549,1.0506,0.9501,0.858,0.7786,0.7129,0.0,0.0,0.0,0.0,0.0,0.0,0.0,0.0,0.0,0.0,0.0,0.0,0.0,0.0,0.0,0.0,0.0,0.0,0.0,0.0,0.0,0.0,0.0,0.0,0.0,0.0,0.0,0.0,0.0,0.0,0.0,0.0,0.0,0.0,0.0,0.0,0.0,0.0,0.0,0.0,0.0,0.0,0.0,0.0,0.0,0.0,0.0,0.0,0.0,0.0,0.0,0.0,0.0,0.0,0.0,0.0,0.0,0.0,0.0,0.0,0.0,0.0,0.0,0.0,0.0,0.0,0.0,0.0,0.0,0.0,0.0,0.0,0.0,0.0,0.0,0.0,0.0,0.0,0.0,0.0,0.0,0.0,0.0,0.0,0.0,0.0,0.0,0.0,0.0,0.0,0.0,0.0,0.0,0.0,0.0,0.0,0.0,0.0,0.0,0.0,0.0,0.0,1.4559,1.3928,1.3669,1.2693,1.1972,1.1666,1.089,0.9975,0.8969,0.0,0.0,0.0,0.0,0.0,0.0,0.0,0.0,0.0,0.0,0.0,0.0,0.0,0.0,0.0,0.0,0.0,0.0,0.0,0.0,0.0,0.0,0.0,0.0,0.0,0.0,0.0,0.0,0.0,0.0,0.0,0.0,0.0,0.0,0.0,0.0,0.0,0.0,0.0,0.0,0.0,0.0,0.0,0.0,0.0,0.0,0.0,0.0,0.0,0.0,0.0,0.0,0.0,0.0,0.0,0.0,0.0,0.0,0.0,0.0,0.0,0.0,0.0,0.0,0.0,0.0,0.0,0.0,0.0,0.0,0.0,0.0,0.0,0.0,0.0,0.0,0.0,0.0,0.0,0.0,0.0,0.0,0.0,0.0,0.0,0.0,0.0,0.0,0.0,0.0,0.0,0.0,0.0,0.0,0.0,0.0,0.0,0.0,0.0,0.0,0.0,0.0,1.6023,1.5443,1.4894,1.4552,1.3795,1.3209,1.2863,1.2303,1.1354,1.0009,0.0,0.0,0.0,0.0,0.0,0.0,0.0,0.0,0.0,0.0,0.0,0.0,0.0,0.0,0.0,0.0,0.0,0.0,0.0,0.0,0.0,0.0,0.0,0.0,0.0,0.0,0.0,0.0,0.0,0.0,0.0,0.0,0.0,0.0,0.0,0.0,0.0,0.0,0.0,0.0,0.0,0.0,0.0,0.0,0.0,0.0,0.0,0.0,0.0,0.0,0.0,0.0,0.0,0.0,0.0,0.0,0.0,0.0,0.0,0.0,0.0,0.0,0.0,0.0,0.0,0.0,0.0,0.0,0.0,0.0,0.0,0.0,0.0,0.0,0.0,0.0,0.0,0.0,0.0,0.0,0.0,0.0,0.0,0.0,0.0,0.0,0.0,0.0,0.0,0.0,0.0,0.0,0.0,0.0,0.0,0.0,0.0,0.0,0.0,0.0,0.0,0.0,1.673,1.6147,1.5733,1.5692,1.472,1.3999,1.3999,1.3571,1.2541,0.0,0.0,0.0,0.0,0.0,0.0,0.0,0.0,0.0,0.0,0.0,0.0,0.0,0.0,0.0,0.0,0.0,0.0,0.0,0.0,0.0,0.0,0.0,0.0,0.0,0.0,0.0,0.0,0.0,0.0,0.0,0.0,0.0,0.0,0.0,0.0,0.0,0.0,0.0,0.0,0.0,0.0,0.0,0.0,0.0,0.0,0.0,0.0,0.0,0.0,0.0,0.0,0.0,0.0,0.0,0.0,0.0,0.0,0.0,0.0,0.0,0.0,0.0,0.0,0.0,0.0,0.0,0.0,0.0,0.0,0.0,0.0,0.0,0.0,0.0,0.0,0.0,0.0,0.0,0.0,0.0,0.0,0.0,0.0,0.0,0.0,0.0,0.0,0.0,0.0,0.0,0.0,0.0,0.0,0.0,0.0,0.0,0.0,0.0,0.0,0.0,0.0,0.0,1.7723,1.7585,1.7229,1.6476,1.5684,1.5186,1.5186,1.4643,1.3915,1.3057,0.0,0.0,0.0,0.0,0.0,0.0,0.0,0.0,0.0,0.0,0.0,0.0,0.0,0.0,0.0,0.0,0.0,0.0,0.0,0.0,0.0,0.0,0.0,0.0,0.0,0.0,0.0,0.0,0.0,0.0,0.0,0.0,0.0,0.0,0.0,0.0,0.0,0.0,0.0,0.0,0.0,0.0,0.0,0.0,0.0,0.0,0.0,0.0,0.0,0.0,0.0,0.0,0.0,0.0,0.0,0.0,0.0,0.0,0.0,0.0,0.0,0.0,0.0,0.0,0.0,0.0,0.0,0.0,0.0,0.0,0.0,0.0,0.0,0.0,0.0,0.0,0.0,0.0,0.0,0.0,0.0,0.0,0.0,0.0,0.0,0.0,0.0,0.0,0.0,0.0,0.0,0.0,0.0,0.0,0.0,0.0,0.0,0.0,0.0,0.0,0.0,0.0,1.8868,1.8859,1.8541,1.744,1.6992,1.6542,1.6147,1.5733,1.5186,1.4461,0.0,0.0,0.0,0.0,0.0,0.0,0.0,0.0,0.0,0.0,0.0,0.0,0.0,0.0,0.0,0.0,0.0,0.0,0.0,0.0,0.0,0.0,0.0,0.0,0.0,0.0,0.0,0.0,0.0,0.0,0.0,0.0,0.0,0.0,0.0,0.0,0.0,0.0,0.0,0.0,0.0,0.0,0.0,0.0,0.0,0.0,0.0,0.0,0.0,0.0,0.0,0.0,0.0,0.0,0.0,0.0,0.0,0.0,0.0,0.0,0.0,0.0,0.0,0.0,0.0,0.0,0.0,0.0,0.0,0.0,0.0,0.0,0.0,0.0,0.0,0.0,0.0,0.0,0.0,0.0,0.0,0.0,0.0,0.0,0.0,0.0,0.0,0.0,0.0,0.0,0.0,0.0,0.0,0.0,0.0,0.0,0.0,0.0,0.0,0.0,0.0,0.0,2.0021,2.0012,1.961,1.8581,1.8461,1.8069,1.709,1.6894,1.6427,1.5372,0.0,0.0,0.0,0.0,0.0,0.0,0.0,0.0,0.0,0.0,0.0,0.0,0.0,0.0,0.0,0.0,0.0,0.0,0.0,0.0,0.0,0.0,0.0,0.0,0.0,0.0,0.0,0.0,0.0,0.0,0.0,0.0,0.0,0.0,0.0,0.0,0.0,0.0,0.0,0.0,0.0,0.0,0.0,0.0,0.0,0.0,0.0,0.0,0.0,0.0,0.0,0.0,0.0,0.0,0.0,0.0,0.0,0.0,0.0,0.0,2.4133,2.3232,0.0,0.0,0.0,0.0,0.0,0.0,0.0,0.0,0.0,0.0,0.0,0.0,0.0,0.0,0.0,0.0,0.0,0.0,0.0,0.0,0.0,0.0,0.0,0.0,0.0,0.0,0.0,0.0,0.0,0.0,0.0,0.0,0.0,0.0,0.0,0.0,0.0,0.0,0.0,0.0,2.0981,2.0981,2.0701,1.9659,1.958,1.9462,1.9225,1.843,1.7859,1.76,1.6322,0.0,0.0,0.0,0.0,0.0,0.0,0.0,0.0,0.0,0.0,0.0,0.0,0.0,0.0,0.0,0.0,0.0,0.0,0.0,0.0,0.0,0.0,0.0,0.0,0.0,0.0,0.0,0.0,0.0,0.0,0.0,0.0,0.0,0.0,0.0,0.0,0.0,0.0,0.0,0.0,0.0,0.0,0.0,0.0,0.0,0.0,0.0,0.0,0.0,0.0,0.0,0.0,0.0,0.0,0.0,0.0,0.0,0.0,0.0,2.5791,2.4692,0.0,0.0,0.0,0.0,0.0,0.0,0.0,0.0,0.0,0.0,0.0,0.0,0.0,0.0,0.0,0.0,0.0,0.0,0.0,0.0,0.0,0.0,0.0,0.0,0.0,0.0,0.0,0.0,0.0,0.0,0.0,0.0,0.0,0.0,0.0,0.0,0.0,0.0,0.0,0.0,2.2107,2.2096,2.1756,2.074,2.0634,2.044,1.9943,1.9383,1.9058,1.9058,1.8221,0.0,0.0,0.0,0.0,0.0,0.0,0.0,0.0,0.0,0.0,0.0,0.0,0.0,0.0,0.0,0.0,0.0,0.0,0.0,0.0,0.0,0.0,0.0,0.0,0.0,0.0,0.0,0.0,0.0,0.0,0.0,0.0,0.0,0.0,0.0,0.0,0.0,0.0,0.0,0.0,0.0,0.0,0.0,0.0,0.0,0.0,0.0,0.0,0.0,0.0,0.0,0.0,0.0,3.015,2.9911,2.8927,2.9539,2.9818,2.9678,2.7465,2.6418,2.624,2.5196,0.0,0.0,0.0,0.0,0.0,0.0,0.0,0.0,0.0,0.0,0.0,0.0,0.0,0.0,0.0,0.0,0.0,0.0,0.0,0.0,0.0,0.0,2.7258,2.6467,2.6875,2.7224,2.6445,0.0,0.0,0.0,0.0,0.0,0.0,0.0,0.0,0.0,0.0,0.0,2.3423,2.3276,2.2857,2.1962,2.1783,2.1326,2.0518,2.0285,2.0168,2.0168,2.0012,1.9904,0.0,0.0,0.0,0.0,0.0,0.0,0.0,0.0,0.0,0.0,0.0,0.0,0.0,0.0,0.0,0.0,0.0,0.0,0.0,0.0,0.0,0.0,0.0,0.0,0.0,0.0,0.0,0.0,0.0,0.0,0.0,0.0,3.1021,3.1067,0.0,0.0,0.0,0.0,0.0,0.0,0.0,0.0,0.0,0.0,0.0,0.0,0.0,3.0418,3.0501,3.0431,3.0343,3.0251,3.0287,3.0215,3.01,3.019,3.0228,3.0203,2.9831,0.0,2.9114,2.8545,0.0,0.0,0.0,0.0,0.0,0.0,0.0,0.0,0.0,0.0,0.0,0.0,0.0,0.0,0.0,0.0,0.0,0.0,0.0,0.0,0.0,0.0,2.8379,2.8249,2.8346,2.8379,2.8249,2.6968,2.5755,2.565,2.5615,2.5533,0.0,0.0,0.0,0.0,0.0,0.0,2.5075,2.4469,2.3902,2.3745,2.3191,2.2729,2.2606,2.1756,2.1201,2.1201,2.0401,1.9904,1.9904,1.9777,0.0,0.0,0.0,0.0,0.0,0.0,0.0,0.0,0.0,0.0,0.0,0.0,0.0,0.0,0.0,0.0,0.0,0.0,0.0,0.0,0.0,0.0,0.0,0.0,0.0,0.0,0.0,0.0,0.0,3.1624,3.1842,3.1679,3.1377,3.116,0.0,0.0,0.0,0.0,0.0,0.0,0.0,0.0,0.0,3.1298,3.1032,3.1074,3.1435,3.1418,3.1414,3.1414,3.1365,3.1371,3.1371,3.1371,3.1371,3.1371,3.1371,3.1283,3.1009,2.9871,2.9123,2.8679,0.0,0.0,0.0,0.0,2.6236,2.607,2.6449,2.6603,2.6603,2.6603,0.0,0.0,0.0,0.0,0.0,0.0,0.0,2.8497,2.8497,2.9079,2.9685,2.9685,2.9685,2.9685,2.9685,2.902,2.8069,2.6828,2.6603,2.6352,2.5625,2.5322,0.0,0.0,0.0,2.5216,2.5603,2.5322,2.5004,2.4886,2.4612,2.4192,2.3658,2.3195,2.275,2.2333,2.1869,2.1642,2.1642,2.1058,2.0981,0.0,0.0,0.0,0.0,0.0,0.0,0.0,0.0,0.0,0.0,0.0,0.0,0.0,0.0,0.0,0.0,0.0,0.0,0.0,0.0,0.0,0.0,0.0,0.0,0.0,0.0,0.0,0.0,3.2315,3.2443,3.2084,3.2197,3.2176,0.0,0.0,0.0,0.0,0.0,0.0,3.1731,3.1332,3.1408,3.2031,3.1657,3.1703,3.2218,3.2218,3.2218,3.2218,3.2218,3.2218,3.2218,3.2218,3.2218,3.2218,3.2218,3.2218,3.2096,3.0859,3.0165,2.9884,2.9538,2.9032,2.8433,2.8102,2.7653,2.7283,2.7673,2.7689,2.7571,2.7571,2.7571,2.7591,2.7729,0.0,0.0,0.0,0.0,2.9766,2.9766,3.0133,3.0494,3.0494,3.0494,3.0494,3.0494,3.0494,2.9997,2.8368,2.8044,2.7703,2.6633,2.6442,0.0,2.6249,2.6158,2.6171,2.6399,2.6227,2.602,2.5869,2.5695,2.5275,2.4576,2.4505,2.4217,2.3669,2.3607,2.3582,2.3582,2.2835,2.2713,2.335,0.0,0.0,0.0,0.0,0.0,0.0,0.0,0.0,0.0,0.0,0.0,0.0,0.0,0.0,0.0,0.0,0.0,0.0,0.0,0.0,0.0,0.0,0.0,0.0,0.0,0.0,0.0,0.0,0.0,3.2223,3.1977,0.0,0.0,0.0,0.0,3.0369,3.0369,3.0635,3.12,3.1211,3.1508,3.2186,3.2146,3.2182,3.2218,3.2218,3.2218,3.2218,3.2218,3.2218,3.2218,3.2218,3.2218,3.2218,3.2218,3.2218,3.2182,3.2096,3.1468,3.057,3.0532,2.9859,2.9014,2.9426,2.9194,2.8757,2.9234,2.9015,2.8522,2.8522,2.8522,2.8638,2.9205,2.9411,0.0,0.0,3.0434,3.045,3.045,3.0464,3.0494,3.0494,3.0494,3.0494,3.0494,3.0494,3.0464,3.0359,3.0329,3.0086,2.9251,0.0,2.8109,2.8143,2.7404,2.717,2.8045,2.7404,2.682,2.682,2.6205,2.5755,2.5707,2.5521,2.5415,2.538,2.524,2.517,2.517,2.5123,2.5123,2.517,2.5123,0.0,0.0,0.0,0.0,0.0,0.0,0.0,0.0,0.0,0.0,0.0,0.0,0.0,0.0,0.0,0.0,0.0,0.0,0.0,0.0,0.0,0.0,0.0,0.0,0.0,0.0,0.0,0.0,3.3939,3.4027,0.0,3.3553,3.3317,3.3213,3.3213,3.3213,3.3282,3.3504,3.3429,3.3492,3.3728,3.3624,3.3541,3.3541,3.3541,3.3541,3.3541,3.3541,3.3541,3.3541,3.3541,3.3541,3.3541,3.3541,3.3541,3.3541,3.3541,3.2783,3.1629,3.1629,3.1381,3.1029,3.0817,3.0579,3.033,2.9707,2.9366,2.9187,2.9168,2.9484,2.9856,3.0086,3.0133,3.0208,3.0419,3.0822,3.1146,3.1146,3.1436,3.1722,3.1722,3.1722,3.1722,3.1722,3.1722,3.1722,3.1722,3.1072,3.0359,2.9966,2.9782,2.9645,2.9552,2.9366,2.9178,2.9079,2.878,2.8363,2.7881,2.7571,2.7157,2.6548,2.6433,2.6193,2.5707,2.565,2.5627,2.5627,2.5627,2.5627,2.5627,2.5627,2.5557,0.0,0.0,0.0,0.0,0.0,0.0,0.0,0.0,0.0,0.0,0.0,0.0,0.0,0.0,0.0,0.0,0.0,0.0,0.0,0.0,0.0,0.0,0.0,0.0,0.0,3.4912,3.5255,3.4865,3.5142,3.5255,3.4832,3.4784,3.4784,3.4784,3.4784,3.4784,3.4784,3.4714,3.4681,3.4681,3.4547,3.4466,3.4466,3.4399,3.4413,3.4413,3.4413,3.4413,3.4413,3.4447,3.4466,3.4466,3.4466,3.4466,3.4466,3.4466,3.3905,3.308,3.2938,3.2917,3.2861,3.2458,3.218,3.1833,3.0596,3.0165,3.015,2.9916,3.0163,3.0629,3.0837,3.0955,3.1014,3.1262,3.1595,3.1866,3.1866,3.2132,3.2398,3.2398,3.2398,3.2398,3.2398,3.2398,3.2398,3.2398,3.1722,3.1028,3.0689,3.0748,3.0718,3.036,3.0405,3.0329,2.9889,2.9858,2.9642,2.9093,2.8839,2.8441,2.7828,2.7524,2.7157,2.6671,2.6595,2.6595,2.6595,2.6595,2.6561,2.648,2.648,2.6308,2.5973,0.0,0.0,0.0,0.0,0.0,0.0,0.0,0.0,0.0,0.0,0.0,0.0,0.0,0.0,0.0,0.0,0.0,0.0,0.0,0.0,0.0,0.0,0.0,3.5029,3.5207,3.532,3.493,3.5222,3.532,3.493,3.4883,3.4883,3.4883,3.4883,3.4883,3.4883,3.4898,3.4883,3.4883,3.4865,3.4865,3.4865,3.4747,3.4662,3.4662,3.4662,3.4662,3.4695,3.4798,3.4865,3.4865,3.4865,3.4865,3.4865,3.4865,3.4865,3.4832,3.4466,3.4312,3.4312,3.4312,3.3939,3.3245,3.1995,3.1544,3.1427,3.0757,3.0659,3.0896,3.1536,3.1821,3.2074,3.2718,3.2746,3.2621,3.2621,3.2523,3.2425,3.2425,3.2425,3.2425,3.2425,3.2425,3.2425,3.2425,3.2425,3.2216,3.1623,3.1523,3.1306,3.0673,3.0554,0.0,3.051,3.0524,3.051,3.0494,2.9889,2.9504,2.9535,2.8807,2.8352,2.8384,2.8249,2.8177,2.8177,2.8177,2.8066,2.7875,2.7842,2.7564,2.6989,0.0,0.0,0.0,0.0,0.0,0.0,0.0,0.0,0.0,0.0,0.0,0.0,0.0,0.0,0.0,0.0,0.0,0.0,0.0,0.0,0.0,3.6523,3.6585,3.6243,3.66,3.6892,3.6784,3.6846,3.6892,3.6784,3.6738,3.6738,3.6738,3.6738,3.6738,3.6738,3.6631,3.6523,3.6523,3.6445,3.6399,3.6399,3.6367,3.6336,3.6336,3.6336,3.6336,3.6336,3.6367,3.6399,3.6399,3.6399,3.6399,3.6399,3.6399,3.6399,3.629,3.5109,3.4651,3.4651,3.4651,3.4273,3.3647,3.2821,3.2509,3.2391,3.1731,3.1864,3.233,3.2511,3.2594,3.2648,3.2843,3.287,3.2816,3.2816,3.2773,3.2746,3.2746,3.2746,3.2718,3.2578,3.2551,3.2551,3.2551,3.2551,3.2468,3.2203,3.216,3.2076,3.1892,3.1892,3.1722,3.1262,3.1248,3.1028,3.0539,2.9889,2.969,3.0178,2.958,2.9393,2.9858,2.9872,2.9842,2.9842,2.9842,2.9811,2.978,2.9188,2.9016,0.0,0.0,0.0,0.0,0.0,0.0,0.0,0.0,0.0,0.0,0.0,0.0,0.0,0.0,0.0,0.0,0.0,0.0,0.0,0.0,0.0,0.0,3.6952,3.7044,3.7044,3.7285,3.751,3.751,3.751,3.751,3.751,3.751,3.751,3.751,3.751,3.751,3.751,3.7405,3.7329,3.7329,3.7271,3.7211,3.7211,3.7135,3.7075,3.7075,3.7075,3.7075,3.7075,3.7181,3.7211,3.7211,3.7211,3.7211,3.7211,3.7211,3.7211,0.0,0.0,0.0,0.0,0.0,3.5497,3.5075,3.4076,3.374,3.3571,3.2634,3.2605,3.2978,3.2978,3.3032,3.3085,3.3085,3.3032,3.2978,3.2978,3.2924,3.2897,3.2897,3.2897,3.287,3.2746,3.2746,3.2746,3.2746,3.2746,0.0,3.2621,3.2621,3.2621,3.2621,3.2551,3.2342,3.2007,3.1908,3.1737,3.1334,3.0733,3.0495,3.0881,3.0284,0.0,0.0,0.0,3.0494,3.0494,3.0405,0.0,0.0,0.0,2.9875,3.033,0.0,0.0,0.0,2.7524,2.7417,0.0,0.0,0.0,0.0,0.0,0.0,0.0,0.0,0.0,0.0,0.0,0.0,0.0,0.0,0.0,0.0,3.7462,3.7599,3.7553,3.7569,3.7524,3.751,3.751,3.751,3.751,3.751,3.751,3.751,3.751,3.751,3.751,3.751,0.0,0.0,0.0,3.751,3.751,3.7329,3.7224,3.7224,3.7224,3.7224,3.7254,3.7435,3.751,3.751,3.751,3.751,3.751,3.751,3.751,3.748,3.7181,3.7076,3.7076,3.7076,3.7076,3.6872,3.5451,0.0,0.0,3.3388,3.3032,3.3123,3.3123,3.3203,3.3309,3.3309,3.3203,3.3139,3.3203,3.3123,3.3058,3.3096,3.3069,3.3032,3.3005,3.2951,3.2924,3.2924,3.2924,3.2924,3.2924,3.2924,3.2897,3.2897,3.2746,3.2621,3.2621,3.2523,3.2453,3.2453,0.0,0.0,3.1667,3.1058,3.0689,3.0763,3.0763,3.0733,3.0733,3.054,3.0526,3.0718,3.048,3.048,3.0718,3.0584,3.0554,3.0584,2.9058,2.843,0.0,0.0,0.0,0.0,0.0,0.0,0.0,0.0,0.0,0.0,0.0,0.0,0.0,0.0,0.0,3.8148,3.8193,3.8119,3.7873,3.7815,3.7727,3.7539,3.751,3.751,3.751,3.751,3.751,3.751,3.751,3.751,3.751,3.751,3.751,3.751,3.751,3.751,3.751,3.7464,3.7435,3.7435,3.7435,0.0,3.7435,3.748,3.751,3.751,3.751,3.751,3.751,3.751,3.751,3.748,3.7421,3.7391,3.7391,3.7391,3.7391,3.7186,3.5783,3.5294,3.5074,3.3686,3.3229,3.3256,3.3256,3.3282,0.0,3.3309,3.3282,3.3346,3.3797,3.3873,3.3958,3.435,3.4143,3.3806,3.3662,3.333,3.3058,3.3058,3.3058,3.3112,3.3203,3.3032,3.2897,3.2897,3.287,3.2843,3.2843,3.2816,3.28,3.28,3.2216,3.2033,3.2582,3.2005,3.1849,3.2401,3.2287,3.2203,3.2203,3.2061,3.2005,3.2048,3.1522,3.1522,3.2048,3.0984,3.0792,3.1277,3.0419,3.0056,0.0,0.0,0.0,0.0,0.0,0.0,0.0,0.0,0.0,0.0,0.0,3.8448,3.8572,0.0,3.8448,3.8572,3.8476,3.8335,3.8177,3.8148,3.7976,3.7569,3.751,3.751,3.751,3.7796,3.8002,3.8002,3.8002,3.8002,3.8002,3.767,3.751,3.751,3.751,3.751,3.751,3.751,3.751,3.751,3.751,3.751,3.751,3.751,3.751,3.751,3.751,3.751,3.751,3.751,3.751,3.751,3.751,3.751,3.751,3.751,3.751,3.7304,3.5884,3.5394,3.5157,3.3767,3.3309,3.3309,3.3309,3.3477,3.3694,3.3694,3.3857,3.4118,3.4391,3.444,3.4513,3.4738,3.4617,3.4423,3.4309,3.4127,3.3942,3.3942,3.3942,3.3968,3.4043,3.3942,3.3678,3.3176,3.3032,3.3005,3.3005,3.2924,3.2897,3.2897,3.2594,3.2551,3.287,3.2578,3.2551,3.287,3.2816,3.2746,3.2746,3.2676,3.2648,3.2648,3.2358,3.233,3.2648,3.2007,3.1866,3.2206,3.2213,3.1589,0.0,0.0,0.0,0.0,0.0,0.0,0.0,3.856,3.856,3.856,3.8644,3.8766,3.8969,3.8849,3.8794,3.9088,3.8887,3.8704,3.8795,3.8811,3.8634,3.8141,3.7898,3.7807,3.7889,3.8381,3.8697,3.8697,3.8697,3.8697,3.8697,3.8175,3.7842,3.7686,3.7686,3.7622,3.751,3.751,3.751,3.751,3.751,3.751,3.751,3.751,3.751,3.751,3.751,3.7553,3.7655,3.7655,3.7714,3.7831,3.7831,3.7831,3.7801,3.7583,3.7553,3.7465,3.6022,3.5613,3.5484,3.4037,3.3591,3.3591,3.3591,3.3882,3.4234,3.4234,3.4513,3.4816,3.4911,3.4975,3.4981,3.5075,3.5028,3.4975,3.4975,3.4864,3.4793,3.4793,3.4793,3.4793,3.4793,3.4793,3.4504,3.3704,3.3487,3.3435,3.3435,3.3346,3.3266,3.3266,3.3203,3.3096,3.2978,3.2978,3.2978,3.2978,3.2951,3.2924,3.2924,3.2897,3.2897,3.2897,3.2897,3.2897,3.2897,3.3037,3.31,3.31,3.3893,3.3141,3.9094,3.9067,3.905,3.9094,3.9121,3.9121,0.0,3.9191,3.9191,3.9191,3.9468,3.9729,3.9755,3.9755,3.9841,4.017,3.9952,3.9843,4.0203,4.0275,4.0232,4.017,3.9301,3.889,3.9249,3.9345,3.9392,3.9392,3.9392,3.9392,3.9392,3.9313,3.8997,3.8412,3.8397,3.8096,3.751,3.751,3.751,3.751,3.751,3.751,3.751,3.751,3.751,3.751,3.751,3.7756,3.821,3.821,3.8535,3.9017,3.9017,3.9017,3.8882,3.786,3.7815,3.8016,3.654,3.6385,3.6578,3.5103,3.4642,3.4642,3.4642,3.4666,3.4738,3.4738,3.4761,3.4911,3.5391,3.5504,3.5616,3.6028,3.5815,3.5504,3.5504,3.5138,3.4793,3.4793,3.4793,3.4793,3.4793,3.4793,3.4745,3.4666,3.4617,3.4601,3.4601,3.4617,3.4593,3.4593,3.4218,3.3771,3.3309,3.3256,3.3256,3.3256,3.315,3.3085,3.3085,3.2951,3.2897,3.2897,3.2897,3.2897,3.2897,3.349,3.3798,3.3814,3.5038,3.4837,3.9816,3.9703,3.9703,3.9901,3.979,3.9703,3.9901,3.979,3.9703,3.9901,4.0062,4.0129,3.9952,4.007,4.0162,4.0104,4.0552,4.0943,4.1128,4.1534,4.1916,4.2127,4.173,4.1173,4.0434,4.073,4.1047,4.1241,4.1241,4.1241,4.1241,4.0508,3.9959,3.9686,3.9255,3.8873,3.8614,3.8525,3.8483,3.8483,3.8483,3.8483,3.8483,3.8483,3.8483,3.8483,3.8483,3.8634,3.8821,3.8821,3.8974,3.9206,3.9206,3.9206,3.9152,3.8662,3.8634,3.8624,3.7137,3.6783,3.6754,3.5273,3.4793,3.4793,3.4793,3.5021,3.5276,3.5276,3.5459,3.5727,3.5963,3.6006,3.6049,3.6259,3.6135,3.6006,3.6006,3.5837,3.5683,3.5683,3.5683,3.5683,3.5683,3.5683,3.5683,3.5683,3.5168,3.4793,3.4793,3.4793,3.4793,3.4793,3.4617,3.4415,3.4177,3.4177,3.4177,3.4177,3.4102,3.4093,3.4093,3.4043,3.4018,3.4018,3.4018,3.4018,3.4018,3.4755,3.5121,3.5153,3.6502,3.6861,4.0179,4.0121,4.0196,4.0368,4.0212,4.0104,4.0326,4.0212,4.0121,4.0368,4.0473,4.049,4.0246,4.041,4.0583,4.0684,4.1311,4.1915,4.2319,4.2859,4.3374,4.3702,4.3732,4.3337,4.2305,4.239,4.2613,4.2891,4.2891,4.2891,4.2891,4.1988,4.1347,4.118,4.0643,4.0173,3.9764,3.9643,3.9468,3.9242,3.9232,3.9206,3.9206,3.9206,3.9206,3.9206,3.9242,3.9348,3.948,3.9532,3.961,3.9731,3.9731,3.9705,3.9679,3.9679,3.9441,3.8935,3.7661,3.7193,3.6947,3.5633,3.5214,3.5214,3.5214,3.5464,3.5793,3.5793,3.6028,3.6301,3.6301,3.6301,3.6301,3.6301,3.6301,3.6301,3.6301,3.6301,3.6301,3.6301,3.6301,3.6301,3.6301,3.6301,3.6301,3.6301,3.5683,3.5214,3.5214,3.5214,3.5168,3.5028,3.5005,3.4958,3.4793,3.4793,3.4793,3.4793,3.4793,3.4793,3.4793,3.4793,3.4793,3.4793,3.4793,3.4908,3.5131,3.5901,3.639,3.6605,3.8002,3.8603,4.0279,4.041,4.0707,4.0449,4.0375,4.0375,4.04,4.0375,4.0375,4.04,4.0707,4.0977,4.0977,4.0977,4.1377,4.2526,4.2422,4.2687,4.411,4.4335,4.4475,4.48,4.4831,4.4957,4.5224,4.4395,4.3851,4.3851,4.3851,4.3851,4.3851,4.3834,4.3499,4.2836,4.2803,4.2099,4.0675,4.0525,4.0094,3.9385,3.9269,3.9206,3.9206,3.9206,3.9206,3.9206,3.9348,3.968,4.0186,4.0326,4.0645,4.1047,4.1047,4.0959,4.0847,4.0847,4.0014,3.8787,3.8043,3.766,3.7366,3.6517,3.6259,3.6259,3.6259,3.628,3.628,3.628,3.6301,3.6301,3.6301,3.6301,3.6301,3.6301,3.6301,3.6301,3.6301,3.6301,3.6301,3.6301,3.6301,3.6301,3.6301,3.6301,3.6301,3.6301,3.628,3.6259,3.6259,3.6259,3.6071,3.5616,3.5571,3.5368,3.484,3.4793,3.4793,3.4793,3.4793,3.4793,3.4793,3.4793,3.4793,3.4793,3.4793,3.5181,3.5975,3.6647,3.7343,3.8065,3.9345,3.9944,4.1293,4.1338,4.1445,4.1622,4.1356,4.1128,4.1333,4.1082,4.0866,4.1123,4.1736,4.2102,4.1834,4.2416,4.2969,4.3112,4.3696,4.4292,4.4799,4.5281,4.5633,4.5751,4.576,4.5811,4.5905,4.5311,4.4974,4.5135,4.5161,4.5161,4.5161,4.4794,4.4455,4.4228,4.3719,4.3182,4.27,4.2073,4.1624,4.1366,4.0803,4.0538,4.0538,4.0538,4.0538,4.0521,4.057,4.0689,4.0873,4.0896,4.1007,4.1157,4.1157,4.1134,4.1111,4.1111,4.0493,3.9595,3.874,3.8484,3.8265,3.688,3.6423,3.6423,3.6423,3.6423,3.6444,3.6544,3.6582,3.6582,3.6582,3.6582,3.6582,3.6582,3.6582,3.6582,3.6582,3.6582,3.6582,3.6582,3.6582,3.6582,3.6582,3.6582,3.6582,3.6582,3.6423,3.6301,3.6301,3.6301,3.6237,3.6071,3.6071,3.6006,3.5815,3.5793,3.5793,3.5793,3.5793,3.5793,3.5793,3.5793,3.5793,3.5793,3.5793,3.6207,3.7013,3.7705,3.8438,3.917,4.0165,4.0597,4.1903,4.1945,4.2068,4.2249,4.2019,4.1788,4.198,4.1744,4.1547,4.1784,4.2185,4.2492,4.2532,4.3057,4.3606,4.391,4.4603,4.5185,4.5466,4.5898,4.6196,4.6196,4.6196,4.6196,4.6196,4.5879,4.5752,4.5922,4.5947,4.5947,4.5947,4.558,4.5363,4.5363,4.4854,4.4458,4.4199,4.3305,4.2561,4.1957,4.1453,4.1209,4.1209,4.1209,4.1209,4.1209,4.1255,4.1255,4.1295,4.1323,4.13,4.1255,4.1255,4.1232,4.1209,4.1209,4.0918,4.0436,3.9576,3.8973,3.8394,3.7318,3.679,3.6564,3.6564,3.6564,3.6602,3.6681,3.6702,3.6702,3.6702,3.6702,3.6702,3.6702,3.6702,3.6702,3.6702,3.6702,3.6702,3.6702,3.6702,3.6702,3.6702,3.6702,3.6702,3.6702,3.6544,3.6444,3.6444,3.6444,3.6444,3.6444,3.6444,3.6444,3.6444,3.6444,3.6444,3.6444,3.6402,3.6364,3.6364,3.6322,3.6301,3.6301,3.6301,3.6701,3.7538,3.8299,3.9081,3.9847,4.0649,4.1012,4.2113,4.2292,4.257,4.2389,4.2328,4.2308,4.2308,4.2308,4.2308,4.2308,4.2118,4.2214,4.3014,4.3027,4.3412,4.4904,4.5168,4.5414,4.6109,4.6196,4.6196,4.6196,4.6196,4.6196,4.6196,4.6196,4.6196,4.6196,4.6196,4.6196,4.6196,4.6196,4.6196,4.6196,4.6196,4.5863,4.5168,4.4189,4.2899,4.1284,4.1249,4.1232,4.1232,4.1232,4.1232,4.1232,4.134,4.1403,4.1426,4.156,4.1538,4.1403,4.1403,4.134,4.1232,4.1232,4.1318,4.1298,4.0458,3.9199,3.7927,3.784,3.7332,3.6754,3.6719,3.6702,3.6702,3.6722,3.6722,3.6722,3.6722,3.6722,3.6722,3.6722,3.6722,3.6722,3.6722,3.6722,3.6722,3.6722,3.6722,3.6722,3.6722,3.6722,3.6722,3.6722,3.6722,3.6722,3.6702,3.6702,3.6702,3.6702,3.6702,3.6702,3.6702,3.6702,3.6702,3.6702,3.6582,3.6523,3.6523,3.6402,3.6322,3.6322,3.6322,3.6744,3.7611,3.8374,3.922,4.0125,4.0803,4.1157,4.2692,4.2729,4.2824,4.2749,4.2631,4.253,4.253,4.2409,4.2308,4.2308,4.2544,4.305,4.3841,4.4278,4.4834,4.5758,4.5916,4.5986,4.6179,4.6196,4.6196,4.6196,4.6196,4.6196,4.6196,4.6196,4.6196,4.6196,4.6196,4.6196,4.6196,4.6196,4.6196,4.6196,4.6196,4.6109,4.5916,4.4523,4.336,4.2391,4.1778,4.1498,4.1498,4.1498,4.1498,4.1498,4.152,4.156,4.156,4.1582,4.1582,4.156,4.156,4.1538,4.1498,4.1498,4.1515,4.1525,4.1288,4.0609,3.9606,3.8349,3.7822,3.7577,3.6963,3.6768,3.6788,3.6888,3.6928,3.6928,3.6928,3.6928,3.6928,3.6928,3.6928,3.6928,3.6928,3.6928,3.6928,3.6928,3.6928,3.6928,3.6928,3.6928,3.6928,3.6928,3.6928,3.6869,3.6722,3.6702,3.6702,3.6702,3.6702,3.6702,3.6702,3.6702,3.6702,3.6702,3.6681,3.6643,3.6643,3.6623,3.6602,3.6602,3.6602,3.6967,3.7752,3.7943,3.8764,4.0108,4.0299,4.0664,4.2901,4.2901,4.2901,4.2901,4.2824,4.2728,4.2728,4.265,4.2532,4.245,4.2605,4.3073,4.4112,4.4454,4.494,4.6021,4.6196,4.6196,4.6196,4.6196,4.6196,4.6196,4.6196,4.6196,4.6196,4.6196,4.6196,4.6196,4.6196,4.6196,4.6196,4.6196,4.6196,4.6196,4.6196,4.6039,4.5705,4.4518,4.3535,4.2775,4.199,4.1604,4.1604,4.1604,4.1604,4.1604,4.1604,4.1604,4.1604,4.1604,4.1604,4.1604,4.1604,4.1604,4.1604,4.1604,4.1604,4.1604,4.1604,4.1323,4.0762,3.9505,3.8607,3.7959,3.7501,3.7134,3.6891,3.6987,3.7007,3.7007,3.7007,3.7007,3.7007,3.7007,3.7007,3.7007,3.7007,3.7007,3.7007,3.7007,3.7007,3.7007,3.7007,3.7007,3.7007,3.7007,3.7007,3.6968,3.6846,3.6826,3.6826,3.6826,3.6826,3.6826,3.6826,3.6826,3.6826,3.6826,3.6786,3.6745,3.6745,3.6722,3.6702,3.6702,3.6702,3.6931,3.7352,3.7721,3.8527,3.9757,4.0128,4.0669,4.2901,4.2901,4.2901,4.2901,4.2901,4.2901,4.2901,4.2901,4.2844,4.2688,4.247,4.2706,4.409,4.4107,4.4395,4.5951,4.6196,4.6196,4.6196,4.6196,4.6196,4.6196,4.6196,4.6196,4.6196,4.6196,4.6196,4.6196,4.6196,4.6196,4.6196,4.6196,4.6196,4.6196,4.6196,4.5881,4.5256,4.4466,4.3676,4.2938,4.2148,4.171,4.1604,4.1604,4.1604,4.1604,4.1604,4.1604,4.1604,4.1604,4.1604,4.1604,4.1604,4.1604,4.1604,4.1604,4.1604,4.1604,4.1604,4.1604,4.1481,4.0748,3.955,3.8392,3.8164,3.7654,3.713,3.7042,3.7007,3.7007,3.7007,3.7007,3.7007,3.7007,3.7007,3.7007,3.7007,3.7007,3.7007,3.7007,3.7007,3.7007,3.7007,3.7007,3.7007,3.7007,3.7007,3.7007,3.7007,3.7007,3.7007,3.7007,3.7007,3.7007,3.7007,3.7007,3.7007,3.7007,3.6888,3.6829,3.6829,3.6766,3.6742,3.6742,3.6742,3.6788,3.6891,3.7577,3.8392,3.9247,4.0084,4.0859,4.2901,4.2901,4.2901,4.2901,4.2901,4.2901,4.2901,4.2901,4.2882,4.2862,4.2552,4.2769,4.4274,4.4185,4.4395,4.5951,4.6196,4.6196,4.6196,4.6196,4.6196,4.6196,4.6196,4.6196,4.6196,4.6196,4.6196,4.6196,4.6196,4.6196,4.6196,4.6196,4.6196,4.6196,4.6196,4.6144,4.6003,4.5273,4.4483,4.3693,4.2956,4.2254,4.1604,4.1604,4.1604,4.1604,4.1604,4.1604,4.1604,4.1604,4.1604,4.1604,4.1604,4.1604,4.1604,4.1604,4.1604,4.1604,4.1604,4.1604,4.1481,4.0748,4.0309,3.9852,3.8497,3.8023,3.7777,3.7183,3.7007,3.7007,3.7007,3.7007,3.7007,3.7007,3.7007,3.7007,3.7007,3.7007,3.7007,3.7007,3.7007,3.7007,3.7007,3.7007,3.7007,3.7007,3.7007,3.7007,3.7007,3.7007,3.7007,3.7007,3.7007,3.7007,3.7007,3.7007,3.7007,3.7007,3.6987,3.6968,3.6968,3.6948,3.6948,3.6948,3.6948,3.7089,3.7377,3.7519,3.8017,3.8817,3.9911,4.0699,4.2901,4.2901,4.2901,4.2901,4.2901,4.2901,4.2901,4.2901,4.2863,4.2767,4.2591,4.2872,4.4205,4.4266,4.4571,4.5975,4.6196,4.6196,4.6196,4.6196,4.6196,4.6196,4.6196,4.6196,4.6196,4.6196,4.6196,4.6196,4.6196,4.6196,4.6196,4.6196,4.6196,4.6196,4.6196,4.6196,4.6196,4.5484,4.4694,4.3886,4.3149,4.2394,4.1604,4.1604,4.1604,4.1604,4.1604,4.1604,4.1604,4.1604,4.1604,4.1604,4.1604,4.1604,4.1604,4.1604,4.1604,4.1604,4.1604,4.1604,4.1552,4.1183,4.0818,4.0362,3.9568,3.876,3.8041,3.7672,3.7306,3.7007,3.7007,3.7007,3.7007,3.7007,3.7007,3.7007,3.7007,3.7007,3.7007,3.7007,3.7007,3.7007,3.7007,3.7007,3.7007,3.7007,3.7007,3.7068,3.7243,3.7262,3.7262,3.7262,3.7262,3.7338,3.7559,3.7577,3.7577,3.7577,3.7577,3.7577,3.7577,3.7577,3.7577,3.7577,3.7577,3.765,3.7808,3.7808,3.8204,3.8996,3.995,4.0745,4.2901,4.2901,4.2901,4.2901,4.2901,4.2901,4.2901,4.2901,4.2862,4.2689,4.2629,4.2974,4.4205,4.4351,4.4751,4.6073,4.6295,4.6295,4.6295,4.6343,4.6368,4.6368,4.6368,4.6368,4.6368,4.6319,4.6295,4.6295,4.6221,4.6196,4.6196,4.6196,4.6196,4.6196,4.6196,4.6196,4.6196,4.5617,4.4852,4.3886,4.3307,4.2535,4.1604,4.1604,4.1604,4.1604,4.1604,4.1604,4.1604,4.1604,4.1604,4.1604,4.1604,4.1604,4.1604,4.1604,4.1604,4.1626,4.1719,4.1744,4.1762,4.1835,4.1425,4.0828,4.0687,3.9814,3.8852,3.8656,3.8074,3.749,3.749,3.7366,3.7223,3.7223,3.7166,3.7127,3.7204,3.7166,3.7126,3.7126,3.7126,3.7069,3.7009,3.7068,3.7127,3.7126,3.7204,3.7339,3.7632,3.7649,3.7685,3.7755,3.7685,3.7774,3.8068,3.8101,3.8101,3.8101,3.8101,3.8101,3.8101,3.8101,3.8101,3.8101,3.8101,3.8152,3.8216,3.8396,3.8796,3.9395,4.0444,4.1264,4.2901,4.2901,4.2901,4.2901,4.2901,4.2901,4.2901,4.2901,4.2882,4.2881,4.2728,4.3057,4.4579,4.4537,4.4797,4.6318,4.6566,4.6566,4.6566,4.6772,4.6929,4.6929,4.6929,4.6929,4.6929,4.6725,4.6566,4.6566,4.6343,4.6196,4.6196,4.6196,4.6196,4.6196,4.6196,4.6196,4.6196,4.6126,4.5354,4.3904,4.3834,4.3026,4.1604,4.1604,4.1604,4.1604,4.1604,4.1604,4.1604,4.1604,4.1604,4.1604,4.1604,4.1604,4.1604,4.1604,4.1604,4.1653,4.2098,4.22,4.2218,4.264,4.2449,4.1905,4.1248,4.1203,4.1216,4.0474,3.9697,3.91,3.91,3.8541,3.8,3.8,3.7721,3.7542,3.7913,3.7721,3.745,3.745,3.745,3.7357,3.7048,3.7301,3.7524,3.7469,3.7808,3.8097,3.813,3.813,3.8261,3.8545,3.8263,3.8068,3.8101,3.8101,3.8101,3.8101,3.8101,3.8101,3.8101,3.8101,3.8101,3.8101,3.8101,3.8281,3.864,3.939,3.9804,3.9973,4.1883,4.2649,4.2901,4.2901,4.2901,4.2901,4.2901,4.2901,4.2901,4.2901,4.2901,4.2901,4.2843,4.3217,4.4623,4.476,4.5146,4.6598,4.6842,4.6842,4.6842,4.6934,4.6998,4.6998,4.6998,4.6998,4.6998,4.6911,4.6842,4.6842,4.6749,4.6678,4.6678,4.6536,4.6423,4.6423,4.6607,4.6678,4.6678,4.6536,4.567,4.4135,4.3974,4.3079,4.1604,4.1736,4.1784,4.1784,4.1784,4.1784,4.1762,4.1648,4.1604,4.1604,4.1719,4.1784,4.1805,4.1956,4.2016,4.2061,4.2418,4.2519,4.2559,4.2922,4.3069,4.2996,4.2374,4.1976,4.1687,4.1413,4.0757,4.0137,4.0137,3.9522,3.8856,3.8842,3.8325,3.7913,3.8133,3.803,3.7929,3.7962,3.7978,3.7946,3.7808,3.7929,3.8012,3.7978,3.8129,3.8342,3.853,3.856,3.87,3.9073,3.8718,3.8535,3.8688,3.8733,3.8763,3.8763,3.884,3.8888,3.8888,3.8888,3.8888,3.8888,3.8888,3.9201,3.9839,4.0174,4.0578,4.1105,4.2393,4.2934,4.2901,4.2901,4.2901,4.2901,4.2901,4.2901,4.2901,4.2901,4.2901,4.2901,4.2901,4.3333,4.4764,4.4952,4.5386,4.6847,4.7093,4.7093,4.7093,4.716,4.7223,4.7223,4.7223,4.7223,4.7223,4.7138,4.707,4.7002,4.6998,4.6998,4.6998,4.687,4.6778,4.6708,4.6888,4.6998,4.6998,4.6801,4.5927,4.4383,4.4203,4.3283,4.1823,4.1956,4.2019,4.2019,4.2019,4.2019,4.2019,4.1866,4.1801,4.1805,4.1956,4.2065,4.2151,4.2333,4.2474,4.2595,4.2922,4.3014,4.3051,4.3387,4.3658,4.3807,4.3436,4.2966,4.2561,4.261,4.2018,4.1335,4.1096,4.0572,4.0104,4.0058,3.954,3.909,3.9229,3.898,3.8752,3.8797,3.8614,3.8421,3.8326,3.8402,3.8465,3.8449,3.856,3.8744,3.8984,3.9013,3.9129,3.9386,3.9129,3.8998,3.9175,3.9229,3.9256,3.9256,3.936,3.9405,3.9405,3.9405,3.9517,3.976,3.976,4.0152,4.1001,4.1244,4.1669,4.2258,4.3067,4.3441,4.2901,4.2901,4.2901,4.2901,4.2901,4.2901,4.2901,4.2901,4.2901,4.2901,4.2901,4.3389,4.5001,4.5091,4.5429,4.7028,4.7298,4.7298,4.7298,4.7533,4.7678,4.7678,4.7678,4.7678,4.7678,4.745,4.7209,4.7002,4.6998,4.6998,4.6998,4.7187,4.7209,4.7002,4.6998,4.6998,4.6998,4.6998,4.6195,4.4603,4.4585,4.3782,4.2287,4.2287,4.2287,4.2287,4.2287,4.2287,4.2287,4.2287,4.2287,4.2287,4.2287,4.2454,4.2692,4.2693,4.2865,4.3159,4.3621,4.3756,4.3775,4.4214,4.434,4.43,4.4368,4.4325,4.4266,4.4266,4.365,4.2791,4.2002,4.1777,4.1777,4.1777,4.1512,4.1359,4.1689,4.081,3.9978,3.9978,3.9335,3.8681,3.8373,3.8633,3.8868,3.8799,3.9183,3.9482,3.9495,3.9495,3.9495,3.9495,3.9495,3.9469,3.9405,3.9405,3.9405,3.9405,3.9405,3.9405,3.9405,3.9405,3.9778,4.0568,4.0587,4.102,4.1892,4.2754,4.3207,4.3294,4.4106,4.4482,4.2901,4.2901,4.2901,4.2901,4.2901,4.2901,4.2901,4.2901,4.2901,4.2901,4.2901,4.339,4.5001,4.5231,4.5714,4.7322,4.7575,4.7575,4.7575,4.7636,4.7717,4.7717,4.7717,4.7717,4.7717,4.7636,4.7551,4.7486,4.7486,4.7486,4.7486,4.7551,4.7468,4.7209,4.7381,4.7486,4.7486,4.6737,4.5882,4.4863,4.4135,4.3247,4.2308,4.245,4.251,4.251,4.251,4.251,4.249,4.2348,4.2308,4.2308,4.245,4.2671,4.2921,4.3051,4.3284,4.356,4.3886,4.398,4.403,4.4368,4.444,4.4444,4.4473,4.4411,4.4387,4.443,4.4238,4.3962,4.3638,4.3156,4.2731,4.2632,4.2118,4.1679,4.1838,4.1572,4.1311,4.1353,4.1147,4.0952,4.085,4.0933,4.0833,4.0245,4.0282,4.019,3.9646,3.9571,3.9571,3.9571,3.9571,3.9514,3.9418,3.9444,3.9469,3.9469,3.952,3.9546,3.9546,4.0071,4.047,4.0733,4.1276,4.2002,4.2854,4.3136,4.3548,4.4139,4.4369,4.4501,4.2901,4.2901,4.2901,4.2901,4.2901,4.2901,4.2901,4.2901,4.2901,4.2901,4.2901,4.3299,4.4603,4.5091,4.5725,4.7047,4.7518,4.7717,4.7717,4.7717,4.7717,4.7717,4.7717,4.7717,4.7717,4.7717,4.7717,4.7717,4.7717,4.7717,4.7717,4.7717,4.7636,4.7468,4.7615,4.7717,4.7717,4.6738,4.5864,4.5109,4.4135,4.3266,4.2532,4.265,4.2709,4.2709,4.2709,4.2709,0.0,4.2691,4.2671,4.271,4.2939,4.3178,4.3423,4.356,4.3777,4.4033,4.4185,4.4244,4.4277,4.444,4.4501,4.4501,4.4501,4.4473,4.4458,4.4487,4.4501,4.4501,4.444,4.4069,4.3662,4.3582,4.3189,4.2828,4.2856,4.2645,4.2433,4.2474,4.2211,4.2004,4.2004,4.2004,4.1835,4.1329,4.1248,4.0966,4.0171,4.0059,3.9946,3.9627,3.9589,3.9571,3.9476,3.952,3.9533,3.9533,3.9583,3.9739,4.004,4.0534,4.1098,4.1736,4.2243,4.2919,4.3745,4.3745,4.4008,4.4501,4.4501,4.4501,0.0,4.2901,4.2901,4.2901,4.2901,4.2901,4.2901,4.2901,0.0,4.2901,4.2901,4.3155,4.3951,4.4747,4.5562,4.6377,4.7192,4.7717,4.7717,4.7717,4.7717,4.7717,4.7717,4.7717,4.7717,4.7717,4.7717,4.7717,4.7717,4.7717,4.7717,4.7717,4.7717,4.7717,4.7624,4.7627,4.7627,4.683,4.6015,4.52,4.4385,4.3607,4.2901,4.2901,4.2901,4.2901,4.2901,4.2901,4.2939,4.3196,4.3303,4.3355,4.3595,4.3857,4.4091,4.4091,4.4277,4.4501,4.4501,4.4501,4.4501,4.4501,4.4501,4.4501,4.4501,4.4501,4.4501,4.4501,4.4501,4.4501,4.4501,4.4501,4.4501,4.4501,4.4501,4.4501,4.4501,4.3914,4.3388,4.3388,4.2718,4.2173,4.2173,4.2173,4.2155,4.2098,4.2098,4.1798,4.0985,4.0891,4.0591,3.9852,3.9777,3.9777,3.9777,3.9664,3.9589,3.9589,3.9646,4.0021,4.0778,4.091,4.1698,4.3257,4.3351,4.3745,4.4501,4.4501,4.4501,4.4501,4.4501,4.4501,4.2862,0.0,4.2901,4.2901,4.2901,4.2901,0.0,4.2901,4.2901,4.2901,4.2901,4.3155,4.3951,4.4747,4.5562,4.6377,4.7192,4.7717,4.7717,4.7717,4.7717,4.7717,4.7717,4.7717,4.7717,4.7717,4.7717,4.7717,4.7717,4.7717,4.7717,4.7717,4.7717,4.7717,4.7102,4.6794,4.6794,4.5979,4.5182,4.4367,4.357,4.3063,4.2901,4.2901,4.2901,4.2901,4.2901,4.3013,4.3214,4.3267,4.3425,4.3612,4.3679,4.3857,4.4091,4.4091,4.4277,4.4501,4.4501,4.4501,4.4501,4.4501,4.4501,4.4501,4.4501,4.4501,4.4501,4.4501,4.4501,4.4501,4.4501,4.4501,4.4501,4.4501,4.4501,4.4501,4.4501,4.435,4.4219,4.4219,4.405,4.39,4.39,4.39,4.3694,4.3088,4.2994,4.2693,4.1835,4.1723,4.1648,4.146,4.1441,4.1441,4.1441,4.0309,3.9589,3.9589,4.019,4.0591,4.0797,4.2018,4.29,4.3294,4.3895,4.4313,4.4501,4.4501,4.4501,4.4501,4.4501,4.4501,4.2767,4.2843,4.2901,4.2901,4.2901,4.2901,4.2901,4.2901,4.2901,4.2901,4.2901,4.3027,4.3462,4.4204,4.5001,4.5816,4.6631,4.7283,4.7663,4.7717,4.7717,4.7717,4.7717,4.7717,4.7717,4.7717,4.7717,4.7717,4.7717,4.7717,4.7717,4.7717,4.7536,4.7174,4.6739,4.6504,4.6504,4.5345,4.453,4.4077,4.3262,4.2901,4.2901,4.3032,4.3069,4.3105,4.3214,4.3355,4.3494,4.3629,4.3761,4.3889,4.4017,4.4173,4.4292,4.4292,4.4383,4.4501,4.4501,4.4501,4.4501,4.4501,4.4501,4.4501,4.4501,4.4501,4.4501,4.4501,4.4501,4.4501,4.4501,4.4501,4.4501,4.4501,4.4501,4.4501,4.4501,4.4501,4.4501,4.4501,4.4501,4.4501,4.4501,4.4501,4.435,4.3933,4.3857,4.3557,4.2699,4.26,4.2436,4.2042,4.2004,4.2004,4.2004,4.121,4.0703,4.0703,4.1116,4.1529,4.1924,4.2825,4.3463,4.3839,4.4275,4.4501,4.4501,4.4501,4.4501,4.4501,4.4501,4.4501,4.267,4.2767,4.2901,4.2901,4.2901,4.2901,4.2901,4.2901,4.2901,4.2901,4.2901,4.2901,4.2901,4.3661,4.4512,4.5182,4.6087,4.6941,4.7653,4.7762,4.7783,4.7845,4.7845,4.7824,4.7762,4.7762,4.7741,4.7699,4.7717,4.7717,4.7717,4.7591,4.721,4.6522,4.6309,4.6184,4.6184,4.4803,4.4042,4.3973,4.3284,4.2976,4.3032,4.3249,4.3355,4.3373,4.3595,0.0,4.3777,4.3999,4.4121,4.4185,4.4411,4.4501,4.4501,4.4501,4.4501,4.4501,4.4501,4.4501,4.4501,4.4501,4.4501,4.4501,4.4501,4.4501,4.4501,4.4501,4.4501,4.4501,4.4501,4.4501,4.4501,4.4501,4.4501,4.4501,4.4501,4.4501,4.4501,4.4501,4.4501,4.4501,4.4501,4.4501,4.4501,4.4501,4.4501,4.4238,4.3576,4.3482,4.32,4.2455,4.238,4.238,4.238,4.238,4.238,4.238,4.2267,4.2567,4.3444,4.3482,4.3801,4.4482,4.4501,4.4501,4.4501,4.4501,4.4501,4.4501,4.4501,4.4501,4.2824,4.2881,4.2901,4.2901,4.2901,4.2901,4.2901,4.2901,4.2901,4.2901,4.2901,4.2901,4.2901,4.4114,4.5164,4.5273,4.6558,4.7638,4.7995,4.8035,4.8134,4.842,4.8458,4.8345,4.8055,4.8035,4.7933,4.772,4.7717,4.7717,4.7717,4.7065,4.6631,4.6504,4.5399,4.4802,4.4802,4.4339,4.3867,4.3414,4.3286,4.3355,4.3579,4.3612,4.3629,4.3646,0.0,4.3825,4.4045,4.4075,4.4229,4.444,4.4468,4.4501,4.4501,4.4501,4.4501,4.4501,4.4501,4.4501,4.4501,4.4501,4.4501,4.4501,4.4501,4.4501,4.4501,4.4501,4.4501,4.4501,4.4501,4.4501,4.4501,4.4501,4.4501,4.4501,4.4501,4.4501,4.4501,4.4501,4.4501,4.4501,4.4501,4.4501,4.4501,4.4501,4.4501,4.4463,4.4332,4.4313,4.4257,4.4125,4.4125,4.4125,4.4125,4.4125,4.4125,4.4125,4.3482,4.3463,4.4275,4.4313,4.4369,4.4501,4.4501,4.4501,4.4501,4.4501,4.4501,4.4501,4.4501,4.4501,4.2863,4.2901,4.2901,4.2901,4.2901,4.2901,4.2901,4.2901,4.2901,4.2901,4.2901,4.2901,4.2901,4.3498,4.4277,4.5164,4.6287,4.7295,4.8,4.8114,4.8231,4.8569,4.8605,4.8476,4.8134,4.8114,4.7994,4.772,4.7717,4.7518,4.7083,4.6848,4.6309,4.5453,4.4949,4.4504,4.4081,4.3959,4.3757,4.3511,4.3511,4.3579,4.3695,4.3841,4.3921,4.3921,0.0,4.4185,4.4321,4.4321,4.4397,4.4501,4.4501,4.4501,4.4501,4.4501,4.4501,4.4515,4.4578,4.4605,4.4605,4.4605,4.4605,4.4592,4.451,4.4501,4.4515,4.4578,4.457,4.4501,4.4501,4.4501,4.4501,4.4501,4.4501,4.4501,4.4501,4.4501,4.4501,4.4501,4.4501,4.4501,4.4501,4.4501,4.4501,4.4501,4.4501,4.4501,4.4501,4.4501,4.4501,4.4501,4.4501,4.4501,4.4501,4.4501,4.4501,4.4501,4.4158,4.412,4.4482,4.4501,4.4501,4.4501,4.4501,4.4501,4.4501,4.4501,4.4501,4.4501,4.4501,4.4501,4.2901,4.2901,4.2901,4.2901,4.2901,4.2901,4.2901,4.2901,4.2901,4.2901,4.2901,4.2901,4.2901,4.3083,4.3735,4.5309,4.619,4.7062,4.8122,4.8365,4.8532,4.8818,4.8872,4.8713,4.8364,4.8308,4.8173,4.7827,4.7666,4.7322,4.6624,4.6501,4.5865,4.4637,4.466,4.4422,4.3793,4.386,4.386,4.3793,4.3793,4.3825,4.3889,4.4109,4.4199,4.4199,4.4411,4.4501,4.4501,4.4501,4.4501,4.4501,4.4501,4.4501,4.4501,4.4501,4.4528,4.4551,4.4672,4.4725,4.4751,4.4751,4.4751,4.4738,4.4619,4.4592,4.4619,4.4725,4.4672,4.4592,4.4592,4.4592,4.4592,4.4592,4.4592,4.4592,4.4592,4.4592,4.4592,4.4592,4.4592,4.4592,4.4592,4.4592,4.4592,4.4592,4.4565,4.4556,4.4556,4.4528,4.4501,4.4501,4.4501,4.4515,4.4537,4.4584,4.4592,4.4592,4.4524,4.4496,4.4556,4.4528,4.4496,4.4556,4.4515,4.4501,4.4501,4.4501,4.4501,4.4501,4.4524,4.4542,4.2901,4.2901,4.2901,4.2901,4.2901,4.2901,4.2901,4.2901,4.2901,4.2901,4.2901,4.2901,4.2901,4.3611,4.4683,4.618,4.6889,4.759,4.8617,4.9062,4.9378,4.96,4.9615,4.943,4.8974,4.894,4.8695,4.8096,4.761,4.7187,4.6887,4.5698,4.499,4.4861,4.4419,4.4135,4.406,4.4321,4.4321,4.406,4.406,4.4199,4.444,4.4454,4.4468,4.4468,4.4501,4.4501,4.4501,4.4501,4.4501,4.4501,4.4501,4.4501,4.4501,4.4501,4.4578,4.4699,4.4699,4.477,4.4902,4.4902,4.4902,4.4883,4.487,4.4858,4.487,4.487,4.487,4.4858,4.4858,4.4858,4.4858,4.4858,4.4858,4.4858,4.4858,4.4858,4.4858,4.4858,4.4858,4.4858,4.4858,4.4858,4.4858,4.4858,4.4776,4.4685,4.4685,4.4578,4.4501,4.4501,4.4501,4.4537,4.4685,4.4796,4.4858,4.4858,4.4632,4.457,4.4685,4.4584,4.457,4.4685,4.4551,4.4501,4.4501,4.4501,4.4501,4.4501,4.4632,4.4619,4.2901,4.2901,4.2901,4.2901,4.2901,4.2901,4.2901,4.2957,4.3012,4.3012,4.3068,4.3142,4.3355,4.3681,4.432,4.5544,4.5931,4.6608,4.8191,4.8566,4.8936,4.9726,4.975,4.9555,4.9153,4.904,4.8614,4.7666,4.7408,4.6817,4.5716,4.5329,4.492,4.4435,4.4367,4.4335,4.4335,4.444,4.444,4.4335,4.4335,4.4411,4.4501,4.4501,4.4501,4.4501,4.4501,4.4501,4.4501,4.4501,4.4501,4.4501,4.4501,4.4537,4.4619,4.4619,4.4712,4.4833,4.4919,4.4979,4.5014,4.5014,4.5014,4.5003,4.4938,4.4895,4.4907,4.4991,4.5014,4.501,4.4919,4.4895,4.4895,4.4895,4.4895,4.4895,4.4895,4.4895,4.4895,4.4895,4.4895,4.4895,4.4895,4.4895,4.4895,4.4895,4.4846,4.4821,4.4821,4.477,4.4751,4.4751,4.4751,4.4757,4.4808,4.4858,4.4895,4.4895,4.4796,4.4757,4.4821,4.4789,4.4719,4.4712,4.4646,4.4619,4.4619,4.4619,4.4672,4.4764,4.4796,4.4815,4.2938,4.2976,4.305,4.3124,4.3178,4.3231,4.3284,4.3249,4.325,4.339,4.3441,4.3542,4.3786,4.3868,4.4206,4.5158,4.5454,4.6087,4.7641,4.798,4.8443,4.9421,4.9468,4.9282,4.8979,4.8858,4.8329,4.714,4.6876,4.6281,4.5103,4.5031,4.4808,4.4306,4.444,4.4528,4.4551,4.4528,4.4501,4.4501,4.4537,4.4537,4.4501,4.4537,4.4551,4.4584,4.4605,4.4632,4.4619,4.4578,4.4551,4.4551,4.4551,4.4646,4.4757,4.4757,4.4846,4.4986,4.508,4.5125,4.5159,4.5159,4.5159,4.5148,4.5049,4.5033,4.5057,4.5136,4.5159,4.5148,4.5057,4.5033,4.5033,4.5033,4.5033,4.5033,4.5033,4.5033,4.5033,4.5033,4.5033,4.5033,4.5033,4.5033,4.5033,4.5033,4.4979,4.4955,4.4955,4.4938,4.4895,4.4895,4.4931,4.4955,4.4955,4.4991,4.5033,4.5033,4.5033,4.5022,4.4955,4.4919,4.487,4.4821,4.477,4.4757,4.4757,4.4757,4.4808,4.4895,4.4931,4.4931,4.3068,4.3214,4.3373,4.3644,4.3804,4.3943,4.4073,4.3796,4.3619,4.4009,4.4098,4.4098,4.4117,4.4227,4.4522,4.5185,4.5738,4.6323,4.6995,4.7495,4.8029,4.8712,4.8795,4.8682,4.8419,4.8391,4.7855,4.6581,4.5997,4.5577,4.5304,4.4784,4.4565,4.4699,4.4565,4.4584,4.4699,4.4565,4.4501,4.4501,4.4632,4.4632,4.4515,4.4646,4.4712,4.4712,4.4833,4.4895,4.4883,4.4764,4.4712,4.4712,4.4712,4.477,4.4895,4.4895,4.4998,4.5103,4.5103,4.5192,4.5307,4.5307,4.5307,4.5307,4.5307,4.5307,4.5307,4.5307,4.5307,4.5307,4.5307,4.5307,4.5307,4.5307,4.5307,4.5307,4.5307,4.5307,4.5307,4.5307,4.5307,4.5307,4.5307,4.5307,4.5307,4.5307,4.5181,4.5103,4.5103,4.4998,4.4895,4.4895,4.5014,4.5103,4.5103,4.5213,4.5307,4.5307,4.5307,4.5235,4.5114,4.4967,4.4974,4.5103,4.4967,4.4895,4.4895,4.4895,4.4895,4.4907,4.5045,4.5026,4.3284,4.3423,4.3522,4.389,4.4013,4.4132,4.446,4.428,4.411,4.4285,4.4308,4.4364,4.4567,4.4618,4.4796,4.5221,4.5426,4.5799,4.6565,4.6797,4.7185,4.7991,4.8005,4.7921,4.7846,4.7763,4.7297,4.6283,4.6067,4.5708,4.5057,4.4864,4.4796,4.4833,4.4712,4.4659,4.4712,4.4565,4.4556,4.4646,4.4685,4.4685,4.4646,4.477,4.4833,4.4833,4.487,4.4895,4.4895,4.4846,4.4833,4.4833,4.4833,4.4919,4.5045,4.5045,4.5125,4.5235,4.5235,4.5275,4.5307,4.5307,4.5307,4.5307,4.5307,4.5307,4.5307,4.5307,4.5307,4.5307,4.5307,4.5307,4.5307,4.5307,4.5307,4.5307,4.5307,4.5307,4.5307,4.5307,4.5307,4.5307,4.5307,4.5307,4.5307,4.5307,4.5275,4.5235,4.5235,4.5203,4.5181,4.5181,4.5213,4.5235,4.5235,4.5286,4.5307,4.5307,4.5307,4.5286,4.5235,4.5203,4.5159,4.5103,4.5068,4.5045,4.5045,4.5045,4.5091,4.5181,4.5213,4.5213,4.3687,4.3859,4.3964,4.4304,4.4447,4.4567,4.4875,4.4814,4.4714,4.4752,4.4764,4.4814,4.4976,4.5011,4.5057,4.5256,4.5307,4.5468,4.5965,4.6023,4.6347,4.7177,4.7217,4.7148,4.712,4.7048,4.6613,4.5691,4.5615,4.5407,4.4933,4.4895,4.4919,4.4986,4.4846,4.4815,4.4846,4.4738,4.4712,4.477,4.4821,4.4858,4.4858,4.4931,4.4967,4.4979,4.5045,4.5033,4.4967,4.4967,4.4967,4.4967,4.4967,4.5049,4.5181,4.5181,4.5224,4.5307,4.5307,4.5307,4.5307,4.5307,4.5307,4.5307,4.5307,4.5307,4.5307,4.5307,4.5307,4.5307,4.5307,4.5307,4.5307,4.5307,4.5307,4.5307,4.5307,4.5307,4.5307,4.5307,4.5307,4.5307,4.5307,4.5307,4.5307,4.5307,4.5307,4.5307,4.5307,4.5307,4.5307,4.5307,4.5307,4.5307,4.5307,4.5307,4.5307,4.5307,4.535,4.538,4.538,4.538,4.533,4.5258,4.5258,4.529,4.5341,4.527,4.53,4.538,4.538,4.535,4.4184,4.443,4.4572,4.4776,4.4976,4.5148,4.5275,4.5307,4.5307,4.5307,4.5307,4.5307,4.5307,4.5307,4.5307,4.5307,4.5307,4.5307,4.5307,4.5307,4.5564,4.6309,4.6385,4.6361,4.6317,4.6306,4.5917,4.5019,4.4931,4.4931,4.4931,4.4931,4.4979,4.5114,4.4998,4.4986,4.5103,4.4955,4.4914,4.4919,4.5038,4.5114,4.5125,4.5125,4.5125,4.5125,4.5254,4.5224,4.5125,4.5125,4.5125,4.5125,4.5125,4.5192,4.5307,4.5307,4.5307,4.5307,4.5307,4.5307,4.5307,4.5307,4.5307,4.5307,4.5307,4.5307,4.5307,4.5307,4.5307,4.5307,4.5307,4.5307,4.5307,4.5307,4.5307,4.5307,4.5307,4.5307,4.5307,4.5307,4.5307,4.5307,4.5307,4.5307,4.5307,4.5307,4.5307,4.5307,4.5307,4.5317,4.5317,4.5307,4.5309,4.5319,4.5328,4.5338,4.5348,4.5348,4.5448,4.5522,4.5522,4.5522,4.5522,4.5522,4.5522,4.5584,4.5708,4.5584,4.5522,4.5522,4.5504,4.5438,4.4406,4.4643,4.4745,4.5098,4.5224,4.5256,4.5297,4.5307,4.5307,4.5307,4.5307,4.5307,4.5307,4.5307,4.5307,4.5307,4.5307,4.5307,4.5307,4.5307,4.5354,4.5545,4.5564,4.5553,4.5532,4.5532,4.5445,4.5233,4.5213,4.5213,4.5213,4.5213,4.5243,4.5265,4.5125,4.508,4.5103,4.4955,4.4943,4.5068,4.5091,4.5159,4.5265,4.5265,4.5265,4.5265,4.5297,4.5286,4.5265,4.5265,4.5265,4.5265,4.5265,4.5256,4.5307,4.5307,4.5307,4.5307,4.5307,4.5307,4.5307,4.5307,4.5307,4.5307,4.5307,4.5307,4.5307,4.5307,4.5307,4.5307,4.5307,4.5307,4.5307,4.5307,4.5307,4.5307,4.5307,4.5307,4.5307,4.5307,4.5307,4.5307,4.5307,4.5307,4.5307,4.5307,4.5307,4.5307,4.5307,4.54,4.5429,4.5317,4.5485,4.5575,4.5467,4.5558,4.5599,4.5599,4.5651,4.5668,4.5668,4.5668,4.5668,4.5668,4.5668,4.5676,4.5708,4.5676,4.5668,4.564,4.5558,4.5549,4.4527,4.4831,4.5053,4.5246,4.5307,4.5307,4.5307,4.5307,4.5307,4.5307,4.5307,4.5307,4.5307,4.5307,4.5307,4.5307,4.5307,4.5307,4.5307,4.5307,4.5307,4.5307,4.5307,4.5307,4.5307,4.5307,4.5307,4.5307,4.5307,4.5307,4.5307,4.5307,4.5307,4.5307,4.5224,4.5192,4.5192,4.5125,4.5125,4.5192,4.5192,4.5224,4.5307,4.5307,4.5307,4.5307,4.5307,4.5307,4.5307,4.5307,4.5307,4.5307,4.5307,4.5307,4.5307,4.5307,4.5307,4.5307,4.5307,4.5307,4.5307,4.5307,4.5307,4.5307,4.5307,4.5307,4.5307,4.5307,4.5307,4.5307,4.5307,4.5307,4.5307,4.5307,4.5307,4.5307,4.5307,4.5307,4.5307,4.5307,4.5307,4.5307,4.5307,4.5307,4.5307,4.5307,4.535,4.54,4.54,4.5513,4.5575,4.5504,4.5627,4.5676,4.561,4.5668,4.5708,4.5708,4.5761,4.5791,4.5791,4.5827,4.5827,4.5791,4.5791,4.5819,4.5835,4.5819,4.5791,4.5791,4.5731,4.568,4.458,4.4988,4.5307,4.5307,4.5307,4.5307,4.5307,4.5307,4.5307,4.5307,4.5307,4.5307,4.5307,4.5307,4.5307,4.5307,4.5307,4.5307,4.5307,4.5307,4.5307,4.5307,4.5307,4.5307,4.5307,4.5307,4.5307,4.5307,4.5307,4.5307,4.5307,4.5307,4.5307,4.5307,4.5307,4.5307,4.5307,4.5307,4.5307,4.5307,4.5307,4.5307,4.5307,4.5307,4.5307,4.5307,4.5307,4.5307,4.5307,4.5307,4.5307,4.5307,4.5307,4.5307,4.5307,4.5307,4.5307,4.5307,4.5307,4.5307,4.5307,4.5307,4.5307,4.5307,4.5307,4.5307,4.5307,4.5307,4.5307,4.5307,4.5307,4.5307,4.5307,4.5307,4.5307,4.5307,4.5307,4.5307,4.5307,4.5307,4.5307,4.5307,4.5307,4.5307,4.5317,4.5319,4.5438,4.5513,4.5531,4.566,4.5731,4.5708,4.5727,4.5742,4.5739,4.5754,4.5749,4.5749,4.586,4.5925,4.5925,4.5964,4.5964,4.5925,4.5925,4.5943,4.6002,4.5943,4.5925,4.5925,4.5906,4.584,4.4572,4.4988,4.5307,4.5307,4.5307,4.5307,4.5307,4.5307,4.5307,4.5307,4.5307,4.5307,4.5307,4.5307,4.5307,4.5307,4.5307,4.5307,4.5307,4.5307,4.5307,4.5307,4.5307,4.5307,4.5307,4.5307,4.5307,4.5307,4.5307,4.5307,4.5307,4.5307,4.5307,4.5307,4.5307,4.5307,4.5307,4.5307,4.5307,4.5307,4.5307,4.5307,4.5307,4.5307,4.5307,4.5307,4.5307,4.5307,4.5307,4.5307,4.5307,4.5307,4.5307,4.5307,4.5307,4.5307,4.5307,4.5307,4.5307,4.5307,4.5307,4.5307,4.5307,4.5307,4.5307,4.5307,4.5307,4.5307,4.5307,4.5307,4.5307,4.5307,4.5307,4.5307,4.5307,4.5307,4.5307,4.5307,4.5307,4.5307,4.5307,4.5307,4.5307,4.5307,4.5329,4.5448,4.5485,4.5549,4.5668,4.5791,4.5819,4.5715,4.5867,4.5935,4.5886,4.5937,4.5964,4.5964,4.5975,4.5986,4.5986,4.5997,4.5997,4.5986,4.5986,4.5991,4.6002,4.5991,4.5986,4.598,4.5918,4.5918,4.4619,4.5117,4.5307,4.5307,4.5307,4.5307,4.5307,4.5307,4.5307,4.5307,4.5307,4.5307,4.5307,4.5307,4.5307,4.5307,4.5307,4.5307,4.5307,4.5307,4.5307,4.5307,4.5307,4.5307,4.5307,4.5307,4.5307,4.5307,4.5307,4.5307,4.5307,4.5307,4.5307,4.5307,4.5307,4.5307,4.5307,4.5307,4.5307,4.5307,4.5307,4.5307,4.5307,4.5307,4.5307,4.5307,4.5307,4.5307,4.5307,4.5307,4.5307,4.5307,4.5307,4.5307,4.5307,4.5307,4.5307,4.5307,4.5307,4.5307,4.5307,4.5307,4.5307,4.5307,4.5307,4.5307,4.5307,4.5307,4.5621,4.5965,4.5965,4.6328,4.671,4.671,4.6328,4.5965,4.5965,4.5621,4.5307,4.5307,4.536,4.5419,4.5419,4.5476,4.5549,4.559,4.5684,4.5746,4.5798,4.5899,4.5923,4.5861,4.5953,4.5986,4.5966,4.598,4.6002,4.6002,4.6002,4.6002,4.6002,4.6002,4.6002,4.6002,4.6002,4.6002,4.6002,4.6002,4.6002,4.6002,4.5958,4.5964,4.4228,4.479,4.4998,4.5239,4.5307,4.5307,4.5307,4.5307,4.5307,4.5307,4.5307,4.5307,4.5307,4.5307,4.5307,4.5307,4.5307,4.5307,4.5307,4.5307,4.5307,4.5307,4.5307,4.5307,4.5307,4.5307,4.5307,4.5307,4.5307,4.5307,4.5307,4.5307,4.5307,4.5307,4.5307,4.5307,4.5307,4.5307,4.5307,4.5307,4.5307,4.5307,4.5307,4.5307,4.5307,4.5307,4.5307,4.5307,4.5307,4.5307,4.5307,4.5307,4.5307,4.5307,4.5307,4.5307,4.5307,4.5307,4.5307,4.5307,4.5307,4.5307,4.543,4.5602,4.5602,4.5755,4.5946,4.5946,4.6366,4.6825,4.6825,4.7311,4.7788,4.7788,4.7292,4.671,4.629,4.5748,4.535,4.535,4.5457,4.5558,4.5558,4.5624,4.5715,4.5746,4.5845,4.5906,4.5912,4.5978,4.6002,4.6002,4.6002,4.6002,4.6002,4.6002,4.6002,4.6002,4.6002,4.6002,4.6002,4.6002,4.6002,4.6002,4.6002,4.6002,4.6002,4.6002,4.6002,4.6002,4.6002,4.6002,4.306,4.3677,4.4195,4.5084,4.5307,4.5307,4.5307,4.5307,4.5307,4.5307,4.5307,4.5307,4.5307,4.5307,4.5307,4.5307,4.5307,4.5307,4.5307,4.5307,4.5307,4.5307,4.5307,4.5307,4.5307,4.5307,4.5307,4.5307,4.5307,4.5307,4.5307,4.5307,4.5307,4.5307,4.5307,4.5307,4.5307,4.5307,4.5307,4.5307,4.5307,4.5307,4.5307,4.5307,4.5307,4.5307,4.5307,4.5307,4.5307,4.5307,4.5307,4.5307,4.5307,4.5307,4.5307,4.5307,4.5307,4.5307,4.5307,4.5307,4.5307,4.5307,4.5812,4.6443,4.6443,4.7005,4.7674,4.7674,4.7693,4.7731,4.7731,4.7769,4.7788,4.7788,4.7769,4.7302,4.5698,4.5429,4.5485,4.5485,4.5601,4.57,4.57,4.57,4.5746,4.5873,4.5893,4.5912,4.598,4.5997,4.6002,4.6002,4.6002,4.6002,4.6002,4.6002,4.6002,4.6002,4.6002,4.6002,4.6002,4.6002,4.6002,4.6002,4.6002,4.6002,4.6002,4.6002,4.6002,4.6002,4.6002,4.6002,4.272,4.3529,4.4097,4.4949,4.5243,4.5307,4.5307,4.5307,4.5307,4.5307,4.5307,4.5307,4.5307,4.5307,4.5307,4.5307,4.5307,4.5307,4.5307,4.5307,4.5307,4.5307,4.5307,4.5307,4.5307,4.5307,4.5307,4.5307,4.5307,4.5307,4.5307,4.5307,4.5307,4.5307,4.5307,4.5307,4.5307,4.5307,4.5307,4.5307,4.5307,4.5307,4.5307,4.5307,4.5307,4.5307,4.5307,4.5307,4.5307,4.5307,4.5307,4.5307,4.5307,4.5307,4.5307,4.5307,4.5307,4.5373,4.5889,4.6061,4.6156,4.6729,4.7111,4.733,4.733,4.754,4.7788,4.7788,4.82,4.8621,4.8621,4.9022,4.927,4.8754,4.8621,4.8315,4.7169,4.6944,4.6998,4.7098,4.7216,4.7333,4.7417,4.7042,4.6745,4.6801,4.6321,4.5964,4.5997,4.6002,4.6002,4.6002,4.6002,4.6002,4.6002,4.6002,4.6002,4.6002,4.6002,4.6002,4.6002,4.6002,4.6002,4.6002,4.6002,4.6002,4.6002,4.6002,4.6002,4.6002,4.6002,4.6002,4.2034,4.2887,4.3535,4.4783,4.517,4.5235,4.5297,4.5307,4.5307,4.5307,4.5307,4.5307,4.5307,4.5307,4.5307,4.5307,4.5307,4.5307,4.5307,4.5307,4.5307,4.5307,4.5545,4.5698,4.5698,4.5965,4.6137,4.6137,4.6137,4.6003,4.5717,4.5698,4.5583,4.5307,4.5307,4.5307,4.5307,4.5307,4.5307,4.5307,4.5307,4.5307,4.5307,4.5307,4.5307,4.5307,4.5307,4.5307,4.5307,4.5307,4.5307,4.5307,4.5307,4.5307,4.5307,4.5307,4.5468,4.5774,4.6309,4.6691,4.7035,4.7616,4.8009,4.8239,4.8239,4.843,4.8629,4.8629,4.906,4.95,4.95,4.9901,5.0168,4.9633,4.95,4.9347,4.8774,4.8269,4.7961,4.8058,4.8205,4.8363,4.8458,4.8054,4.7745,4.7745,4.724,4.6773,4.6463,4.6443,4.6327,4.6041,4.6002,4.6002,4.6002,4.6002,4.6002,4.6002,4.6002,4.6002,4.6002,4.6002,4.6002,4.6002,4.6002,4.6002,4.6002,4.6002,4.6002,4.6002,4.6002,4.6002,0.0,0.0,0.0,4.455,4.5091,4.5136,4.5256,4.5297,4.5297,4.5297,4.5307,4.5307,4.5307,4.5307,4.5307,4.5307,4.5307,4.5307,4.5307,4.5307,4.5307,4.5326,4.6023,4.6519,4.6538,4.7292,4.7788,4.7788,4.7788,4.7425,4.6577,4.6519,4.6137,4.5326,4.5307,4.5307,4.5307,4.5307,4.5307,4.5307,4.5307,4.5307,4.5307,4.5307,4.5307,4.5307,4.5307,4.5307,4.5307,4.5307,4.5307,4.5307,4.5307,4.5307,4.5345,4.5345,4.5851,4.6538,4.6577,4.7131,4.7845,4.7865,4.8449,4.9148,4.9148,4.9671,5.0302,5.0302,5.0302,5.0302,5.0302,5.0302,5.0302,5.0302,5.0302,5.0302,5.0314,4.924,4.8274,4.8274,4.8482,4.8677,4.8677,4.8658,4.8638,4.8638,4.8619,4.8289,4.7453,4.7331,4.7007,4.6177,4.606,4.6041,4.6041,4.6021,4.6002,4.6002,4.6002,4.6002,4.6002,4.6002,4.6002,4.6002,4.6002,4.6002,4.6002,4.6002,4.6002,4.6002,4.6002,4.6002,4.0889,0.0,0.0,0.0,0.0,0.0,4.5125,4.5159,4.5181,4.5286,4.5307,4.5307,4.5307,4.5307,4.5307,4.5307,4.5307,4.5307,4.5307,4.5307,4.5507,4.6099,4.6366,4.6748,4.7368,4.7654,4.7788,4.7788,4.7788,4.7693,4.7444,4.6844,4.6137,4.5326,4.5307,4.5307,4.5307,4.5307,4.5307,4.5307,4.5307,4.5307,4.5307,4.5307,4.5307,4.5307,4.5307,4.5307,4.5307,4.5307,4.5307,4.5307,4.5307,4.566,4.6175,4.6175,4.671,4.7521,4.8162,4.8544,4.8831,4.9423,4.9767,4.9977,4.9977,5.013,5.0302,5.0302,5.0302,5.0302,5.0302,5.0302,5.0317,5.0421,5.0374,5.0352,5.0548,5.0276,5.001,5.001,5.0198,5.0377,5.0452,4.9959,4.9537,4.9537,4.9007,4.8502,4.8269,4.825,4.8153,4.79,4.7317,4.6948,4.6948,4.6366,4.6002,4.6002,4.6002,4.6002,4.6002,4.6002,4.6002,4.6002,4.6002,4.6002,4.6002,4.6002,4.6002,4.6002,4.6002,4.6002,4.1085,4.1961,4.2927,4.3894,0.0,0.0,4.4881,4.5026,4.5136,4.5275,4.5307,4.5307,4.5307,4.5307,4.5307,4.5307,4.5307,4.5307,4.5307,4.5307,4.5602,4.6405,4.6825,4.7379,4.8258,4.8659,4.8839,4.8839,4.8839,4.8697,4.8353,4.7532,4.6672,4.5831,4.5793,4.564,4.5307,4.5307,4.5307,4.5307,4.5307,4.5307,4.5307,4.5307,4.5307,4.5307,4.5307,4.5307,4.5326,4.566,4.5793,4.5793,4.5793,4.6309,4.7043,4.7043,4.7589,4.8411,4.8919,4.932,4.9671,5.0149,5.0302,5.0302,5.0302,5.0302,5.0302,5.0302,5.0302,5.0302,5.0302,5.0302,5.0325,5.0388,5.0363,5.0363,5.0567,5.0661,5.0713,5.0811,5.0959,5.1115,5.119,5.0775,5.0445,5.0445,5.0017,4.9551,4.9182,4.9143,4.9007,4.8638,4.8153,4.7842,4.7842,4.7376,4.6929,4.656,4.654,4.6385,4.6021,4.6002,4.6002,4.6002,4.6002,4.6002,4.6002,4.6002,4.6002,4.6002,4.6002,4.6002,4.1322,4.1922,4.2474,4.3536,4.4035,0.0,4.4585,4.4869,4.5103,4.5224,4.5265,4.5265,4.5286,4.5286,4.5286,4.5297,4.5307,4.5307,4.5307,4.5307,4.5621,4.6538,4.733,4.8181,4.9137,4.9882,5.0302,5.0302,5.0302,4.9939,4.9148,4.8372,4.7551,4.6672,4.6557,4.6156,4.543,4.5345,4.5307,4.5307,4.5307,4.5307,4.5307,4.5307,4.5307,4.5307,4.5392,4.543,4.5488,4.6309,4.6596,4.6519,4.6615,4.7188,4.7941,4.7941,4.8487,4.9243,4.9243,4.9691,5.0302,5.0302,5.0302,5.0302,5.0302,5.0302,5.0302,5.0302,5.0302,5.0302,5.0302,5.0302,5.0302,5.0325,5.0314,5.034,5.0486,5.0625,5.0758,5.0963,5.1115,5.1202,5.1202,5.1202,5.1202,5.1202,5.1202,5.0911,5.014,5.0042,4.9751,4.8968,4.8794,4.8735,4.8735,4.8658,4.8269,4.7492,4.7434,4.7104,4.6313,4.6293,4.6293,4.6293,4.6196,4.6138,4.6138,4.606,4.6002,4.6002,4.6002,4.6002,4.0798,4.1763,4.2887,4.3123,4.3658,0.0,4.4346,4.4589,4.4827,4.4943,4.4986,4.5003,4.5125,4.5148,4.517,4.5286,4.5307,4.5307,4.5307,4.5307,4.5851,4.7368,4.7693,4.8399,4.992,5.0206,5.0302,5.0302,5.0302,4.9939,4.9148,4.8926,4.8449,4.7559,4.6882,4.6424,4.6271,4.5621,4.5307,4.5307,4.5307,4.5307,4.5307,4.5307,4.5307,4.5345,4.5984,4.6271,4.6328,4.7177,4.712,4.6577,4.7272,4.8086,4.885,4.885,4.9366,5.0073,5.0073,5.0168,5.0302,5.0302,5.0302,5.0302,5.0302,5.0302,5.0302,5.0302,5.0302,5.0302,5.0302,5.0302,5.0337,5.0442,5.0385,5.0374,5.0615,5.0678,5.0758,5.0963,5.1115,5.1202,5.1202,5.1202,5.1202,5.1202,5.1202,5.1144,5.0969,5.095,5.0872,5.0717,5.0056,4.9654,4.9654,4.9007,4.8522,4.8366,4.8347,4.8269,4.8094,4.8094,4.8094,4.8094,4.7395,4.7045,4.7045,4.6346,4.6002,4.6002,4.6002,4.6002,4.0928,4.1647,4.2422,4.2731,4.3195,0.0,0.0,4.4217,4.4535,4.4662,4.4802,4.4919,4.4998,4.4991,4.5038,4.5181,4.5192,4.5213,4.5297,4.5307,4.5927,4.7597,4.7788,4.8457,5.0149,5.0302,5.0302,5.0302,5.0302,5.013,4.971,4.9691,4.9308,4.8468,4.8009,4.7589,4.7139,4.6748,4.6557,4.6557,4.6557,4.6557,4.6557,4.6557,4.6557,4.6577,4.6978,4.7139,4.7226,4.8086,4.8181,4.7837,4.8277,4.8965,4.9691,4.9691,4.9939,5.0302,5.0302,5.0302,5.0302,5.0302,5.0302,5.0302,5.0302,5.0302,5.0302,5.0302,5.0302,5.0302,5.0302,5.0302,5.0325,5.0377,5.0399,5.0445,5.0652,5.0775,5.0894,5.1069,5.1146,5.1202,5.1202,5.1202,5.1202,5.1202,5.1202,5.1202,5.1202,5.1202,5.1202,5.1202,5.0814,5.0542,5.0542,5.0153,4.9707,4.9279,4.924,4.9046,4.8619,4.8599,4.8577,4.8509,4.8149,4.7917,4.7843,4.747,4.6857,4.5997,4.5978,4.5978,4.0919,4.1356,4.1753,4.2251,4.2653,4.3014,0.0,0.0,0.0,4.4266,4.4525,4.4751,4.4777,4.4833,4.4914,4.5045,4.5091,4.5136,4.5254,4.542,4.6099,4.7616,4.7788,4.8457,5.0149,5.0302,5.0302,5.0302,5.0302,5.0302,5.0302,5.0302,4.9996,4.9358,4.9186,4.8754,4.8067,4.7884,4.7788,4.7788,4.7788,4.7788,4.7788,4.7788,4.7788,4.7807,4.7979,4.8048,4.8124,4.8984,4.9328,4.9328,4.9328,4.9729,5.0302,5.0302,5.0302,5.0302,5.0302,5.0302,5.0302,5.0302,5.0302,5.0302,5.0302,5.0302,5.0302,5.0302,5.0302,5.0302,5.0302,5.0302,5.0302,5.0302,5.0377,5.0497,5.0606,5.0769,5.0937,5.1089,5.1121,5.1178,5.1196,5.1202,5.1202,5.1202,5.1202,5.1202,5.1202,5.1202,5.1202,5.1202,5.1202,5.1202,5.1202,5.1202,5.0891,5.0198,5.0159,4.9823,4.9124,4.9104,4.905,4.8948,4.8851,4.8767,4.8655,4.8548,4.7816,4.6455,4.6228,4.6145,4.0062,4.0724,4.144,4.1507,4.2154,4.2732,4.2789,0.0,4.3525,4.3523,0.0,4.4225,4.4351,0.0,0.0,4.4895,4.5014,4.5114,4.5125,4.5843,4.6729,4.7693,4.7788,4.8457,5.0149,5.0302,5.0302,5.0302,5.0302,5.0302,5.0302,5.0302,5.0264,5.0168,4.9461,4.9052,4.8945,4.82,4.7788,4.7788,4.7788,4.7788,4.7788,4.7788,4.7788,4.7845,4.8621,4.8945,4.9033,4.9824,5.0168,5.0168,5.0168,5.0225,5.0302,5.0302,5.0302,5.0302,5.0302,5.0302,5.0302,5.0302,5.0302,5.0302,5.0302,5.0302,5.0302,5.0302,5.0302,5.0302,5.0302,5.0302,5.0302,5.0302,5.0314,5.0337,5.034,5.0464,5.0606,5.0741,5.0894,5.1055,5.1184,5.1202,5.1202,5.1202,5.1202,5.1202,5.1202,5.1202,5.1202,5.1202,5.1202,5.1202,5.1202,5.1202,5.1163,5.1066,5.1047,5.1008,5.0911,5.0911,5.0905,5.0874,5.0015,4.9579,4.9546,4.8667,4.8199,4.8114,4.7333,4.6909,3.9849,4.0353,4.0919,4.1305,4.1835,4.2274,4.2434,4.2732,4.3032,4.3141,0.0,0.0,0.0,0.0,0.0,0.0,4.4739,4.4914,4.4967,4.5388,4.6213,4.7635,4.8258,4.9003,5.0187,5.0302,5.0302,5.0302,5.0302,5.0302,5.0302,5.0302,5.0302,5.0302,4.9977,4.9805,4.9805,4.9423,4.9251,4.9251,4.9251,4.9251,4.9251,4.9251,4.9251,4.927,4.9633,4.9805,4.9824,5.0168,5.0302,5.0302,5.0302,5.0302,5.0302,5.0302,5.0302,5.0302,5.0302,5.0302,5.0302,5.0302,5.0302,5.0302,5.0302,5.0302,5.0302,5.0302,5.0302,5.0302,5.0302,5.0302,5.0325,5.0388,5.0476,5.0528,5.0528,5.0672,5.0805,5.0863,5.0937,5.1041,5.1184,5.1202,5.1202,5.1202,5.1202,5.1202,5.1202,5.1202,5.1202,5.1202,5.1202,5.1202,5.1202,5.1202,5.1202,5.1202,5.1202,5.1202,5.1202,5.1128,5.1029,5.0905,5.0496,5.0237,5.015,4.983,4.9637,4.9591,4.8242,4.7634,3.9668,3.9978,4.0368,4.0866,4.1328,4.1701,4.1895,4.2213,4.2518,4.2674,4.2977,0.0,0.0,0.0,4.398,0.0,0.0,4.4648,4.4821,4.5188,4.6032,4.7571,4.8732,4.9652,5.0245,5.0302,5.0302,5.0302,5.0302,5.0302,5.0302,5.0302,5.0302,5.0302,5.0302,5.0302,5.0302,5.0302,5.0302,5.0302,5.0302,5.0302,5.0302,5.0302,5.0302,5.0302,5.0302,5.0302,5.0302,5.0302,5.0302,5.0302,5.0302,5.0302,5.0302,5.0302,5.0302,5.0302,5.0302,5.0302,5.0302,5.0302,5.0302,5.0302,5.0302,5.0302,5.0302,5.0302,5.0302,5.0302,5.0302,5.0302,5.0317,5.0421,5.0508,5.0596,5.0596,5.0699,5.0825,5.0858,5.0866,5.0906,5.1042,5.1146,5.1202,5.1202,5.1202,5.1202,5.1202,5.1202,5.119,5.1146,5.1184,5.119,5.1146,5.1184,5.119,5.1146,5.114,5.1128,5.1063,5.0966,5.0855,5.0705,5.0661,5.0606,5.0497,5.0558,5.0538,5.0415,4.9017,4.8395,3.9325,3.9616,3.9926,3.9952,4.0476,4.1024,4.1047,4.1485,4.1917,4.1938,4.2356,4.277,4.2995,0.0,0.0,0.0,0.0,0.0,0.0,4.5652,4.6675,4.7505,4.9182,5.0264,5.0302,5.0302,5.0302,5.0302,5.0302,5.0302,5.0302,5.0302,5.0302,5.0302,5.0302,5.0302,5.0302,5.0302,5.0302,5.0302,5.0302,5.0302,5.0302,5.0302,5.0302,5.0302,5.0302,5.0302,5.0302,5.0302,5.0302,5.0302,5.0302,5.0302,5.0302,5.0302,5.0302,5.0302,5.0302,5.0302,5.0302,5.0302,5.0302,5.0302,5.0302,5.0302,5.0302,5.0302,5.0302,5.0302,5.0302,5.0302,5.0302,5.0314,5.0314,5.0314,5.0314,5.0325,5.0363,5.0486,5.0517,5.0567,5.0687,5.0988,5.1202,5.1202,5.1202,5.1202,5.1202,5.1202,5.1146,5.1027,5.1128,5.1146,5.102,5.1128,5.114,5.102,5.1012,5.0921,5.0722,5.0713,5.0705,5.0705,5.0567,5.0507,5.0497,5.0355,5.0314,5.0294,4.959,4.9177,0.0,0.0,4.0179,3.9961,4.0451,4.0931,4.0659,4.0984,4.1351,4.1529,4.1878,4.2234,4.2494,0.0,0.0,0.0,0.0,0.0,0.0,4.5902,4.72,4.7569,4.9201,5.0302,5.0302,5.0302,5.0302,5.0302,5.0302,5.0302,5.0302,5.0302,5.0302,5.0302,5.0302,5.0302,5.0302,5.0302,5.0302,5.0302,5.0302,5.0302,5.0302,5.0302,5.0302,5.0302,5.0302,5.0302,5.0302,5.0302,5.0302,5.0302,5.0302,5.0302,5.0302,5.0302,5.0302,5.0302,5.0302,5.0302,5.0302,5.0302,5.0302,5.0302,5.0302,5.0302,5.0302,5.0302,5.0302,5.0302,5.0302,5.0302,5.0317,5.041,5.0432,5.0432,5.0432,5.0432,5.0453,5.0486,5.0497,5.0538,5.0678,5.0792,5.0917,5.1055,5.114,5.1202,5.1202,5.1202,5.119,5.1134,5.1082,5.1048,5.0993,5.1041,5.0993,5.0819,5.0921,5.0914,5.0705,5.0605,5.0567,5.0567,5.0442,5.0374,5.0374,5.0325,5.0302,5.0283,5.0073,4.9939,3.9299,3.9661,0.0,3.991,4.0353,4.0724,4.0449,4.0707,4.1047,4.1232,4.1436,4.1723,4.2225,0.0,0.0,0.0,0.0,0.0,0.0,4.5749,4.7081,4.7538,4.9201,5.0302,5.0302,5.0302,5.0302,5.0302,5.0302,5.0302,5.0302,5.0302,5.0302,5.0302,5.0302,5.0302,5.0302,5.0302,5.0302,5.0302,5.0302,5.0302,5.0302,5.0302,5.0302,5.0302,5.0302,5.0302,5.0302,5.0302,5.0302,5.0302,5.0302,5.0302,5.0302,5.0302,5.0302,5.0302,5.0302,5.0302,5.0302,5.0302,5.0302,5.0302,5.0302,5.0302,5.0302,5.0302,5.0302,5.0302,5.0302,5.0302,5.0325,5.041,5.0432,5.0432,5.0432,5.0432,5.0432,5.0432,5.0432,5.0464,5.0538,5.0606,5.0689,5.0863,5.0966,5.1016,5.1016,5.1016,5.1002,5.0959,5.0921,5.0887,5.0887,5.0887,5.0811,5.0653,5.0743,5.0735,5.0567,5.0476,5.0432,5.0432,5.034,5.0302,5.0302,5.0302,5.0302,5.0302,5.0302,5.0302]}]]